[[{"header":{"parameterUnit":"m.s-1","parameterCategory":1,"la1":30.6,"la2":29.2853,"lo1":-89.7004,"lo2":-87.6739,"dy":0.0162,"dx":0.0183,"nx":112,"ny":82,"refTime":"2023-03-23T06:00:00:Z","depth":0,"parameterNumber":2,"parameterNumberName":"U-component_of_WINDS"},"data":[0.0,0.0,0.0,0.0,0.0,0.0,0.0,0.0,0.0,0.0,0.0,0.0,0.0,0.0,0.0,0.0,0.0,0.0,0.0,0.0,0.0,0.0,0.0,0.0,0.0,0.0,0.0,0.0,0.0,0.0,0.0,0.0,0.0,0.0,0.0,0.0,0.0,0.0,0.0,0.0,0.0,0.0,0.0,0.0,0.0,0.0,0.0,0.0,0.0,0.0,0.0,0.0,0.0,0.0,0.0,0.0,0.0,0.0,0.0,0.0,0.0,0.0,0.0,0.0,0.0,0.0,0.0,0.0,0.0,0.0,0.0,0.0,0.0,0.0,0.0,0.0,0.0,0.0,0.0,0.0,0.0,0.0,0.0,0.0,0.0,0.0,0.0,0.0,0.0,0.0,-0.601,-0.5817,-0.4519,-0.3838,-0.424,-0.4256,-0.4184,-0.4032,0.0,0.0,0.0,0.0,0.0,0.0,0.0,0.0,0.0,0.0,0.0,0.0,0.0,0.0,0.0,0.0,0.0,0.0,0.0,0.0,0.0,0.0,0.0,0.0,0.0,0.0,0.0,0.0,0.0,0.0,0.0,0.0,0.0,0.0,0.0,0.0,0.0,0.0,0.0,0.0,0.0,0.0,0.0,0.0,0.0,0.0,0.0,0.0,0.0,0.0,0.0,0.0,0.0,0.0,0.0,0.0,0.0,0.0,0.0,0.0,0.0,0.0,0.0,0.0,0.0,0.0,0.0,0.0,0.0,0.0,0.0,0.0,0.0,0.0,0.0,0.0,0.0,0.0,0.0,0.0,0.0,0.0,0.0,0.0,0.0,0.0,0.0,0.0,0.0,0.0,0.0,0.0,0.0,0.0,0.0,0.0,0.0,0.0,0.0,0.0,0.0,0.0,0.0,0.0,-0.5731,-0.4973,-0.4069,-0.3586,-0.371,-0.3366,-0.3295,-0.3649,0.0,0.0,0.0,0.0,0.0,0.0,0.0,0.0,0.0,0.0,0.0,0.0,0.0,0.0,0.0,0.0,0.0,0.0,0.0,0.0,0.0,0.0,0.0,0.0,0.0,0.0,0.0,0.0,0.0,0.0,0.0,0.0,0.0,0.0,0.0,0.0,0.0,0.0,0.0,0.0,0.0,0.0,0.0,0.0,0.0,0.0,0.0,0.0,0.0,0.0,0.0,0.0,0.0,0.0,0.0,0.0,0.0,0.0,0.0,0.0,0.0,0.0,0.0,0.0,0.0,0.0,0.0,0.0,0.0,0.0,0.0,0.0,0.0,0.0,0.0,0.0,0.0,0.0,0.0,0.0,0.0,0.0,0.0,0.0,0.0,0.0,0.0,0.0,0.0,0.0,0.0,0.0,0.0,0.0,0.0,0.0,0.0,0.0,0.0,0.0,0.0,0.0,0.0,-0.6288,-0.5472,-0.4379,-0.3681,-0.3271,-0.3225,-0.3062,-0.317,-0.3676,-0.3488,0.0,0.0,0.0,0.0,0.0,0.0,0.0,0.0,0.0,0.0,0.0,0.0,0.0,0.0,0.0,0.0,0.0,0.0,0.0,0.0,0.0,0.0,0.0,0.0,0.0,0.0,0.0,0.0,0.0,0.0,0.0,0.0,0.0,0.0,0.0,0.0,0.0,0.0,0.0,0.0,0.0,0.0,0.0,0.0,0.0,0.0,0.0,0.0,0.0,0.0,0.0,0.0,0.0,0.0,0.0,0.0,0.0,0.0,0.0,0.0,0.0,0.0,0.0,0.0,0.0,0.0,0.0,0.0,0.0,0.0,0.0,0.0,0.0,0.0,0.0,0.0,0.0,0.0,0.0,0.0,0.0,0.0,0.0,0.0,0.0,0.0,0.0,0.0,0.0,0.0,0.0,0.0,0.0,0.0,0.0,0.0,0.0,0.0,0.0,0.0,0.0,0.0,-0.591,-0.5072,-0.4029,-0.3458,-0.314,-0.3133,-0.3009,-0.327,-0.4056,-0.3462,0.0,0.0,0.0,0.0,0.0,0.0,0.0,0.0,0.0,0.0,0.0,0.0,0.0,0.0,0.0,0.0,0.0,0.0,0.0,0.0,0.0,0.0,0.0,0.0,0.0,0.0,0.0,0.0,0.0,0.0,0.0,0.0,0.0,0.0,0.0,0.0,0.0,0.0,0.0,0.0,0.0,0.0,0.0,0.0,0.0,0.0,0.0,0.0,0.0,0.0,0.0,0.0,0.0,0.0,0.0,0.0,0.0,0.0,0.0,0.0,0.0,0.0,0.0,0.0,0.0,0.0,0.0,0.0,0.0,0.0,0.0,0.0,0.0,0.0,0.0,0.0,0.0,0.0,0.0,0.0,0.0,0.0,0.0,0.0,0.0,0.0,0.0,0.0,0.0,0.0,0.0,0.0,0.0,0.0,0.0,0.0,0.0,0.0,0.0,0.0,0.0,0.0,-0.5706,-0.4363,-0.4023,-0.3571,-0.344,-0.3801,-0.3151,-0.338,-0.4909,-0.4326,0.0,0.0,0.0,0.0,0.0,0.0,0.0,0.0,0.0,0.0,0.0,0.0,0.0,0.0,0.0,0.0,0.0,0.0,0.0,0.0,0.0,0.0,0.0,0.0,0.0,0.0,0.0,0.0,0.0,0.0,0.0,0.0,0.0,0.0,0.0,0.0,0.0,0.0,0.0,0.0,0.0,0.0,0.0,0.0,0.0,0.0,0.0,0.0,0.0,0.0,0.0,0.0,0.0,0.0,0.0,0.0,0.0,0.0,0.0,0.0,0.0,0.0,0.0,0.0,0.0,0.0,0.0,0.0,0.0,0.0,0.0,0.0,0.0,0.0,0.0,0.0,0.0,0.0,0.0,0.0,0.0,0.0,0.0,0.0,0.0,0.0,0.0,0.0,0.0,0.0,0.0,0.0,0.0,0.0,0.0,0.0,0.0,0.0,0.0,0.0,0.0,0.0,-0.6202,-0.4938,0.0,-0.3889,-0.3894,-0.3957,-0.3956,-0.4385,-0.541,0.0,0.0,0.0,0.0,0.0,0.0,0.0,0.0,0.0,0.0,0.0,0.0,0.0,0.0,0.0,0.0,0.0,0.0,0.0,0.0,0.0,0.0,0.0,0.0,0.0,0.0,0.0,0.0,0.0,0.0,0.0,0.0,0.0,0.0,0.0,0.0,0.0,0.0,0.0,0.0,0.0,0.0,0.0,0.0,0.0,0.0,0.0,0.0,0.0,0.0,0.0,0.0,0.0,0.0,0.0,0.0,0.0,0.0,0.0,0.0,0.0,0.0,0.0,0.0,0.0,0.0,0.0,0.0,0.0,0.0,0.0,0.0,0.0,0.0,0.0,0.0,0.0,0.0,0.0,0.0,0.0,0.0,0.0,0.0,0.0,0.0,0.0,0.0,0.0,0.0,0.0,0.0,0.0,0.0,0.0,0.0,0.0,0.0,0.0,0.0,0.0,0.0,-0.7833,-0.666,-0.5427,0.0,-0.4528,-0.4481,-0.4091,-0.4609,-0.5176,-0.57,0.0,0.0,0.0,0.0,0.0,0.0,0.0,0.0,0.0,0.0,0.0,0.0,0.0,0.0,0.0,0.0,0.0,0.0,0.0,0.0,0.0,0.0,0.0,0.0,0.0,0.0,0.0,0.0,0.0,0.0,0.0,0.0,0.0,0.0,0.0,0.0,0.0,0.0,0.0,0.0,0.0,0.0,0.0,0.0,0.0,0.0,0.0,0.0,0.0,0.0,0.0,0.0,0.0,0.0,0.0,0.0,0.0,0.0,0.0,0.0,0.0,0.0,0.0,0.0,0.0,0.0,0.0,0.0,0.0,0.0,0.0,0.0,0.0,0.0,0.0,0.0,0.0,0.0,0.0,0.0,0.0,0.0,0.0,0.0,0.0,0.0,0.0,0.0,0.0,0.0,0.0,0.0,0.0,0.0,0.0,0.0,0.0,0.0,0.0,0.0,0.0,0.0,-0.85,-0.6995,-0.5668,-0.535,-0.5489,-0.5223,-0.43,-0.501,-0.5585,0.0,0.0,0.0,0.0,0.0,0.0,0.0,0.0,0.0,0.0,0.0,0.0,0.0,0.0,0.0,0.0,0.0,0.0,0.0,0.0,0.0,0.0,0.0,0.0,0.0,0.0,0.0,0.0,0.0,0.0,0.0,0.0,0.0,0.0,0.0,0.0,0.0,0.0,0.0,0.0,0.0,0.0,0.0,0.0,0.0,0.0,0.0,0.0,0.0,0.0,0.0,0.0,0.0,0.0,0.0,0.0,0.0,0.0,0.0,0.0,0.0,0.0,0.0,0.0,0.0,0.0,0.0,0.0,0.0,0.0,0.0,0.0,0.0,0.0,0.0,0.0,0.0,0.0,0.0,0.0,0.0,0.0,0.0,0.0,0.0,0.0,0.0,0.0,0.0,0.0,0.0,0.0,0.0,0.0,0.0,0.0,0.0,0.0,0.0,0.0,0.0,0.0,0.0,-0.8439,-0.698,-0.5882,-0.6119,-0.5897,-0.5725,-0.5682,-0.5702,-0.5875,-0.627,0.0,0.0,0.0,0.0,0.0,0.0,0.0,0.0,0.0,0.0,0.0,0.0,0.0,0.0,0.0,0.0,0.0,0.0,0.0,0.0,0.0,0.0,0.0,0.0,0.0,0.0,0.0,0.0,0.0,0.0,0.0,0.0,0.0,0.0,0.0,0.0,0.0,0.0,0.0,0.0,0.0,0.0,0.0,0.0,0.0,0.0,0.0,0.0,0.0,0.0,0.0,0.0,0.0,0.0,0.0,0.0,0.0,0.0,0.0,0.0,0.0,0.0,0.0,0.0,0.0,0.0,0.0,0.0,0.0,0.0,0.0,0.0,0.0,0.0,0.0,0.0,0.0,0.0,0.0,0.0,0.0,0.0,0.0,0.0,0.0,0.0,0.0,0.0,0.0,0.0,0.0,0.0,0.0,0.0,0.0,0.0,0.0,0.0,0.0,0.0,0.0,0.0,-0.9438,-0.7968,-0.6881,-0.7085,-0.6653,-0.6262,-0.6045,-0.5836,-0.5845,-0.6124,0.0,0.0,0.0,0.0,0.0,0.0,0.0,0.0,0.0,0.0,0.0,0.0,0.0,0.0,0.0,0.0,0.0,0.0,0.0,0.0,0.0,0.0,0.0,0.0,0.0,0.0,0.0,0.0,0.0,0.0,0.0,0.0,0.0,0.0,0.0,0.0,0.0,0.0,0.0,0.0,0.0,0.0,0.0,0.0,0.0,0.0,0.0,0.0,0.0,0.0,0.0,0.0,0.0,0.0,0.0,0.0,0.0,0.0,0.0,0.0,0.0,0.0,0.0,0.0,0.0,0.0,0.0,0.0,0.0,0.0,0.0,0.0,0.0,0.0,0.0,0.0,0.0,0.0,0.0,0.0,0.0,0.0,0.0,0.0,0.0,0.0,0.0,0.0,0.0,0.0,0.0,0.0,0.0,0.0,0.0,0.0,0.0,0.0,0.0,0.0,0.0,0.0,-1.0985,-0.9461,-0.825,-0.8132,-0.7589,-0.6839,-0.5889,-0.5699,-0.5623,-0.5619,0.0,0.0,0.0,0.0,0.0,0.0,0.0,0.0,0.0,0.0,0.0,0.0,0.0,0.0,0.0,0.0,0.0,0.0,0.0,0.0,0.0,0.0,0.0,0.0,0.0,0.0,0.0,0.0,0.0,0.0,0.0,0.0,0.0,0.0,0.0,0.0,0.0,0.0,0.0,0.0,0.0,0.0,0.0,0.0,0.0,0.0,0.0,0.0,0.0,0.0,0.0,0.0,0.0,0.0,0.0,0.0,0.0,0.0,0.0,0.0,-1.3224,0.0,0.0,0.0,0.0,0.0,0.0,0.0,0.0,0.0,0.0,0.0,0.0,0.0,0.0,0.0,0.0,0.0,0.0,0.0,0.0,0.0,0.0,0.0,0.0,0.0,0.0,0.0,0.0,0.0,0.0,0.0,0.0,0.0,0.0,0.0,0.0,0.0,0.0,0.0,0.0,0.0,-1.0852,-0.9437,-0.8522,-0.8903,-0.809,-0.7468,-0.7336,-0.6406,-0.5816,-0.5754,-0.4685,0.0,0.0,0.0,0.0,0.0,0.0,0.0,0.0,0.0,0.0,0.0,0.0,0.0,0.0,0.0,0.0,0.0,0.0,0.0,0.0,0.0,0.0,0.0,0.0,0.0,0.0,0.0,0.0,0.0,0.0,0.0,0.0,0.0,0.0,0.0,0.0,0.0,0.0,0.0,0.0,0.0,0.0,0.0,0.0,0.0,0.0,0.0,0.0,0.0,0.0,0.0,0.0,0.0,0.0,0.0,0.0,0.0,0.0,0.0,0.0,-1.446,0.0,0.0,0.0,0.0,0.0,0.0,0.0,0.0,0.0,0.0,0.0,0.0,0.0,0.0,0.0,0.0,0.0,0.0,0.0,0.0,0.0,0.0,0.0,0.0,0.0,0.0,0.0,0.0,0.0,0.0,0.0,0.0,0.0,0.0,0.0,0.0,0.0,0.0,0.0,0.0,-1.1486,-1.0057,-0.8964,-0.8793,-0.7839,-0.7152,-0.6993,-0.5822,-0.5216,-0.5541,-0.4215,0.0,0.0,0.0,0.0,0.0,0.0,0.0,0.0,0.0,0.0,0.0,0.0,0.0,0.0,0.0,0.0,0.0,0.0,0.0,0.0,0.0,0.0,0.0,0.0,0.0,0.0,0.0,0.0,0.0,0.0,0.0,0.0,0.0,0.0,0.0,0.0,0.0,0.0,0.0,0.0,0.0,0.0,0.0,0.0,0.0,0.0,0.0,0.0,0.0,0.0,0.0,0.0,0.0,-1.9635,-2.0061,-1.9731,-2.0457,-2.0473,-1.9781,-1.7545,-1.6825,-1.707,-1.5253,0.0,0.0,0.0,0.0,0.0,0.0,0.0,0.0,0.0,0.0,0.0,0.0,0.0,0.0,0.0,0.0,0.0,0.0,0.0,0.0,0.0,0.0,0.0,0.0,-1.0736,-1.1062,-1.0766,0.0,0.0,0.0,0.0,0.0,0.0,0.0,0.0,0.0,0.0,0.0,-1.1984,-1.0633,-0.9323,-0.8375,-0.7514,-0.6766,-0.6205,-0.5181,-0.4742,-0.5135,-0.381,-0.2747,0.0,0.0,0.0,0.0,0.0,0.0,0.0,0.0,0.0,0.0,0.0,0.0,0.0,0.0,0.0,0.0,0.0,0.0,0.0,0.0,0.0,0.0,0.0,0.0,0.0,0.0,0.0,0.0,0.0,0.0,0.0,0.0,-1.5314,-1.534,0.0,0.0,0.0,0.0,0.0,0.0,0.0,0.0,0.0,0.0,0.0,0.0,0.0,-1.5784,-1.833,-1.7754,-1.8246,-1.9811,-1.9794,-2.0031,-2.0489,-2.1215,-2.1525,-2.1468,-2.1055,0.0,-1.7883,-1.5785,0.0,0.0,0.0,0.0,0.0,0.0,0.0,0.0,0.0,0.0,0.0,0.0,0.0,0.0,0.0,0.0,0.0,0.0,0.0,0.0,0.0,0.0,-1.0313,-1.0228,-1.041,-1.0758,0.0,-1.1947,-1.2436,-1.2682,-1.3017,0.0,0.0,0.0,0.0,0.0,0.0,0.0,-1.1082,-1.018,-0.9255,-0.8323,-0.7943,-0.7376,-0.6439,-0.6155,-0.5615,-0.4668,-0.3917,-0.311,-0.2223,-0.1575,0.0,0.0,0.0,0.0,0.0,0.0,0.0,0.0,0.0,0.0,0.0,0.0,0.0,0.0,0.0,0.0,0.0,0.0,0.0,0.0,0.0,0.0,0.0,0.0,0.0,0.0,0.0,0.0,0.0,-1.5956,-1.6799,-1.5822,-1.5599,-1.4994,0.0,0.0,0.0,0.0,0.0,0.0,0.0,0.0,0.0,-1.8226,-1.7806,-1.8439,-2.0226,-1.9906,-2.02,-2.1187,-2.1842,-2.2089,-2.201,-2.3569,-2.3618,-2.2503,-2.2872,-2.1796,-1.9628,-1.7741,-1.6997,-1.6975,0.0,0.0,0.0,0.0,-1.53,-1.523,-1.4826,-1.4661,-1.4665,-1.4836,0.0,0.0,0.0,0.0,0.0,0.0,0.0,0.0,0.0,0.0,-1.1582,-1.1242,-1.1826,-1.2597,-1.3026,-1.3705,-1.3978,0.0,-1.3865,-1.4674,-1.4793,0.0,0.0,0.0,0.0,-1.158,-1.083,-1.0035,-0.922,-0.8356,-0.814,-0.7531,-0.617,-0.6283,-0.583,-0.4476,-0.3961,-0.336,-0.2567,-0.1714,-0.1264,0.0,0.0,0.0,0.0,0.0,0.0,0.0,0.0,0.0,0.0,0.0,0.0,0.0,0.0,0.0,0.0,0.0,0.0,0.0,0.0,0.0,0.0,0.0,0.0,0.0,0.0,0.0,0.0,-1.7575,-1.808,-1.6642,-1.6688,-1.5963,0.0,0.0,0.0,0.0,0.0,0.0,-1.8009,-1.8723,-1.9448,-2.0129,-2.0157,-2.0653,-2.1695,-2.1889,-2.2215,-2.2694,-2.3723,-2.3978,-2.3614,-2.5313,-2.508,-2.3345,-2.3944,-2.312,-2.12,-1.9351,-1.8318,-1.7865,-1.6963,-1.6458,-1.6264,-1.6203,-1.6144,-1.6052,-1.5755,-1.5591,-1.5543,-1.5616,-1.6264,-1.6925,-1.6509,0.0,0.0,0.0,0.0,-1.4149,-1.3112,-1.3136,-1.3302,-1.2829,-1.3573,-1.4463,-1.4755,-1.5459,-1.5556,0.0,-1.4592,-1.5269,-1.5133,0.0,0.0,0.0,0.0,-1.1606,-1.0754,-1.0104,-0.9367,-0.8404,-0.8243,-0.7637,-0.6269,-0.6389,-0.5971,-0.466,-0.4212,-0.3652,-0.2884,-0.1968,-0.1437,-0.1358,0.0,0.0,0.0,0.0,0.0,0.0,0.0,0.0,0.0,0.0,0.0,0.0,0.0,0.0,0.0,0.0,0.0,0.0,0.0,0.0,0.0,0.0,0.0,0.0,0.0,0.0,0.0,0.0,0.0,-1.8378,-1.7458,0.0,0.0,0.0,0.0,-1.4563,-1.5817,-1.6915,-1.7782,-1.8689,-1.9532,-2.0264,-2.0836,-2.1757,-2.3081,-2.3545,-2.4032,-2.4569,-2.4518,-2.4704,-2.5096,-2.5396,-2.5027,-2.4159,-2.4384,-2.3634,-2.2062,-1.974,-1.8846,-1.8783,-1.742,-1.7377,-1.7972,-1.7229,-1.6934,-1.6801,-1.5835,-1.5549,-1.5694,-1.6326,-1.7507,-1.877,-1.9167,-1.846,0.0,0.0,-1.6298,-1.5141,-1.5143,-1.5112,-1.506,-1.4969,-1.518,-1.5576,-1.6089,-1.6981,-1.7231,0.0,-1.4979,-1.4788,-1.5524,0.0,-1.3642,-1.371,-1.3005,-1.1993,-1.0681,-1.0418,-0.9822,-0.8442,-0.8245,-0.7903,-0.7187,-0.6794,-0.6237,-0.5395,-0.4859,-0.4087,-0.3038,-0.2329,-0.1906,-0.1775,-0.1013,0.0,0.0,0.0,0.0,0.0,0.0,0.0,0.0,0.0,0.0,0.0,0.0,0.0,0.0,0.0,0.0,0.0,0.0,0.0,0.0,0.0,0.0,0.0,0.0,0.0,0.0,0.0,0.0,-1.9685,-1.9503,0.0,-1.721,-1.6777,-1.6724,-1.7026,-1.7675,-1.8461,-1.9426,-1.976,-2.097,-2.3333,-2.3512,-2.467,-2.6977,-2.6623,-2.6687,-2.7191,-2.6583,-2.6242,-2.6168,-2.6285,-2.5561,-2.4209,-2.4416,-2.3665,-2.2175,-2.0412,-1.969,-1.9571,-1.8171,-1.7819,-1.8106,-1.7869,-1.7797,-1.7783,-1.7377,-1.7261,-1.736,-1.785,-1.8306,-1.8701,-1.8871,-1.8273,-1.7447,-1.7065,-1.6174,-1.5337,-1.5358,-1.5385,-1.5385,-1.5317,-1.5731,-1.6218,-1.6506,-1.7104,-1.7496,-1.715,-1.687,-1.6663,-1.6549,-1.5256,-1.4281,-1.439,-1.3279,-1.2113,-1.1197,-1.0674,-1.0219,-0.971,-0.9242,-0.8698,-0.8026,-0.8307,-0.7963,-0.6637,-0.6132,-0.5442,-0.4463,-0.3188,-0.2471,-0.2381,-0.231,-0.2519,0.0,0.0,0.0,0.0,0.0,0.0,0.0,0.0,0.0,0.0,0.0,0.0,0.0,0.0,0.0,0.0,0.0,0.0,0.0,0.0,0.0,0.0,0.0,0.0,0.0,0.0,-2.2573,-2.1398,-2.1576,-2.1191,-1.9626,-1.936,-1.9347,-1.9524,-2.0116,-2.0775,-2.1507,-2.1741,-2.2837,-2.498,-2.5408,-2.6555,-2.8511,-2.843,-2.8507,-2.8731,-2.8215,-2.7638,-2.7046,-2.7165,-2.6149,-2.4273,-2.4447,-2.3695,-2.222,-2.082,-2.0213,-2.0023,-1.8597,-1.807,-1.8151,-1.8221,-1.8253,-1.8263,-1.8183,-1.8312,-1.8533,-1.8758,-1.8946,-1.9056,-1.9014,-1.8526,-1.7873,-1.7462,-1.6802,-1.6215,-1.6215,-1.6389,-1.6562,-1.6562,-1.7115,-1.7679,-1.776,-1.7865,-1.8009,-1.82,-1.7838,-1.7463,-1.7357,-1.6035,-1.5214,-1.583,-1.4349,-1.3018,-1.2598,-1.1462,-1.0633,-1.0421,-0.9773,-0.921,-0.8836,-0.9051,-0.8756,-0.7702,-0.6884,-0.6235,-0.5798,-0.4562,-0.3952,-0.4111,-0.4335,-0.5044,-0.6262,0.0,0.0,0.0,0.0,0.0,0.0,0.0,0.0,0.0,0.0,0.0,0.0,0.0,0.0,0.0,0.0,0.0,0.0,0.0,0.0,0.0,0.0,0.0,-2.3648,-2.4338,-2.4466,-2.3502,-2.351,-2.2881,-2.108,-2.1361,-2.1702,-2.1872,-2.2905,-2.3632,-2.3829,-2.4493,-2.4886,-2.4922,-2.6274,-2.7148,-2.7485,-2.8848,-2.9385,-2.9079,-2.926,-2.8763,-2.7701,-2.7947,-2.6705,-2.4385,-2.4506,-2.3718,-2.2252,-2.087,-2.0286,-2.0115,-1.8675,-1.8151,-1.8211,-1.8274,-1.8263,-1.82,-1.8158,-1.8556,-1.9092,-1.9019,-1.9461,-2.0023,-1.9885,-1.9416,-1.8925,-1.886,-1.8345,-1.7834,-1.7867,-1.8303,-1.8755,-1.8812,-1.9378,-1.9891,-1.9911,-1.9349,-1.886,-1.8915,-1.7783,-1.7046,-1.7879,-1.6842,-1.6409,-1.7879,-1.6186,0.0,-1.4831,-1.2788,-1.1125,-1.0575,-0.9829,-0.9452,-0.9625,-0.8916,-0.8509,-0.8563,-0.7086,-0.6442,-0.6963,-0.6395,-0.6348,-0.6929,-0.6985,-0.8115,-1.0353,0.0,0.0,0.0,0.0,0.0,0.0,0.0,0.0,0.0,0.0,0.0,0.0,0.0,0.0,0.0,0.0,0.0,0.0,0.0,0.0,0.0,0.0,-2.5514,-2.5163,-2.5397,-2.5497,-2.5224,-2.4124,-2.3337,-2.3209,-2.2803,-2.2885,-2.3694,-2.4093,-2.4408,-2.465,-2.4263,-2.455,-2.5655,-2.6448,-2.7646,-2.9274,-3.0089,-3.0663,-3.0946,-3.0468,-2.9383,-2.7756,-2.7453,-2.599,-2.3684,-2.3757,-2.298,-2.1604,-2.069,-1.9978,-1.9407,-1.8519,-1.8172,-1.82,-1.8221,-1.8221,-1.828,-1.8847,-1.9142,-1.9424,-2.045,-2.0921,-2.1067,-2.0921,-2.0408,-1.9816,-1.9693,-1.9162,-1.8694,-1.9131,-1.937,-1.9499,-1.9517,-1.9629,-1.9783,-1.9878,-1.9693,-1.9555,-1.9668,-1.9015,-1.854,-1.8824,-1.8538,-1.8239,-1.8179,-1.6652,0.0,-1.5598,-1.3628,-1.2401,-1.283,-1.1733,-1.0813,-1.043,-1.0191,-1.0128,-1.0223,-0.9277,-0.8757,-0.8854,-0.7987,-0.7595,-0.7762,-0.8774,-0.9967,0.0,0.0,0.0,0.0,0.0,0.0,0.0,0.0,0.0,0.0,0.0,0.0,0.0,0.0,0.0,0.0,0.0,0.0,0.0,0.0,0.0,0.0,-2.6675,-2.7553,-2.7693,-2.7509,-2.7364,-2.7331,-2.6573,-2.6029,-2.59,-2.5624,-2.5577,-2.5941,-2.5998,-2.5991,-2.5936,-2.5409,-2.5524,-2.6421,-2.7335,-2.8511,-2.9938,-3.0906,-3.1443,-3.1509,-3.0864,-2.9742,-2.8194,-2.7657,-2.6111,-2.3848,-2.3616,-2.2705,-2.1323,-2.025,-1.9578,0.0,0.0,0.0,0.0,0.0,-1.8407,-1.8717,-1.9192,-1.9746,-2.0307,-2.085,-2.1262,-2.1357,-2.0606,-2.0286,-2.0116,-1.9704,-1.9461,-1.9387,-1.9721,-1.9964,-2.0143,-2.017,-2.0373,-2.0606,-2.0715,-2.0451,-2.0247,-2.0353,-2.0149,0.0,-1.9592,-1.9121,-1.8971,-1.959,-1.7742,-1.6457,-1.6845,-1.4655,-1.3111,-1.3273,-1.1996,-1.0867,-1.0178,-1.0177,0.0,0.0,0.0,-0.9827,-1.028,-1.0018,0.0,0.0,0.0,-1.1653,-1.2152,0.0,0.0,0.0,-1.0948,-1.0374,0.0,0.0,0.0,0.0,0.0,0.0,0.0,0.0,0.0,0.0,0.0,0.0,0.0,0.0,0.0,0.0,-2.8515,-2.9333,-3.041,-2.9987,-2.9539,-2.9399,-2.9557,-2.9342,-2.8485,-2.869,-2.8659,-2.8163,-2.8212,-2.7956,-2.7348,0.0,0.0,0.0,0.0,-2.9387,-2.9875,-3.1342,-3.1786,-3.1198,-3.0701,-2.9806,-2.856,-2.808,-2.6571,-2.4354,-2.3752,-2.2654,-2.1169,-1.9786,-1.9207,-1.9114,-1.8459,-1.819,-1.819,-1.819,-1.8644,-1.9298,-1.9355,0.0,0.0,-2.082,-2.1022,-2.1198,-1.9703,-1.9628,-1.9911,-1.9192,-1.9432,-1.9907,-1.99,-2.0354,-2.0838,-2.0912,-2.1437,-2.1913,-2.2003,-2.1435,-2.0936,-2.0989,-2.1052,-2.0898,-2.0314,-1.9297,-1.9176,-2.1013,-1.8912,-1.7341,-1.7947,-1.5567,-1.3564,-1.2822,0.0,0.0,-0.9507,-0.9547,-0.9911,-1.0632,-1.0082,-1.0239,-1.1399,-1.2038,-1.2415,-1.2521,-1.2992,-1.3176,-1.3035,-1.4042,-1.4229,-1.3639,-1.2705,-1.2299,0.0,0.0,0.0,0.0,0.0,0.0,0.0,0.0,0.0,0.0,0.0,0.0,0.0,0.0,0.0,-2.8027,-2.8797,-2.9665,-3.0737,-3.0825,-3.0535,-2.9863,-2.8898,-2.8339,-2.8466,-2.8646,-2.8767,-2.8802,-2.9417,-2.9225,-2.7995,-2.7901,-2.7583,-2.688,-2.8117,-2.9139,-2.981,-3.1184,-3.1436,-3.0651,0.0,0.0,-2.7182,-2.6961,-2.5711,-2.3667,-2.3505,-2.2303,-2.0497,-2.0128,-1.9367,-1.839,-1.8203,-1.8113,-1.8113,-1.8065,-1.8505,-1.9224,-1.9762,-2.0526,-2.1347,-2.1903,-2.175,-2.1191,-2.0384,-1.9761,0.0,-1.8992,-1.9403,-2.0012,-2.0406,-2.138,-2.2228,-2.237,-2.2421,-2.2489,-2.266,-2.2126,-2.1611,-2.1626,-2.1244,-2.1075,-2.1538,-2.1159,-2.0321,-1.8921,-1.8239,-1.7504,-1.6413,-1.5341,-1.4405,-1.3716,-1.2866,-1.1789,-1.0387,-1.0237,-1.0325,-1.0539,-1.0899,-1.1486,-1.2317,-1.2621,-1.2754,-1.2664,-1.3596,-1.4203,-1.4502,-1.4718,-1.4937,-1.5138,-1.4327,-1.3653,0.0,0.0,0.0,0.0,0.0,0.0,0.0,0.0,0.0,0.0,0.0,-2.6593,0.0,0.0,-2.9151,-2.9578,-2.969,-2.9889,-3.0418,-3.0654,-3.0707,-3.061,-2.9997,-2.9586,-2.9558,-2.954,-2.9379,-2.8993,-2.9325,-2.9117,-2.8144,-2.8426,-2.8404,-2.7957,-2.9246,-3.0067,-3.0299,-3.1303,-3.1519,-3.0994,-3.0078,-2.9052,-2.7913,-2.6624,-2.5291,-2.396,-2.3139,-2.1807,-2.0162,-1.9434,-1.8733,-1.8132,-1.8514,-1.8439,-1.814,-1.8044,-1.8483,-1.9138,-1.9437,-2.0017,-2.0717,-2.1147,-2.1054,-2.0619,-1.9913,-1.9679,-1.9551,-1.9088,-1.966,-2.0458,-2.0689,-2.1661,-2.2605,-2.2638,-2.2606,-2.2573,-2.2685,-2.2158,-2.1724,-2.1738,-2.1499,-2.1192,-2.0852,-2.0622,-2.0175,-1.921,-1.8455,-1.761,-1.6546,-1.5815,-1.4846,-1.3399,-1.2622,-1.157,-0.9975,-1.0125,-1.0301,-1.0308,-1.0992,-1.1654,-1.2228,-1.2638,-1.295,-1.3149,-1.4198,-1.4814,-1.4957,-1.5317,-1.5581,-1.574,-1.5509,-1.5163,0.0,0.0,0.0,0.0,0.0,0.0,0.0,0.0,-2.6295,-2.7532,-2.8502,-2.9575,-3.1177,-3.1041,-3.0859,-3.1254,-3.0678,-3.0206,-3.0206,-3.0215,-3.0373,-3.0858,-3.1094,-3.1096,-3.076,-3.0673,-3.0248,-2.9328,-2.9304,-2.9009,-2.828,-2.8942,-2.9304,-2.9289,-3.06,-3.1255,-3.1183,-3.1678,-3.1752,-3.1411,-2.9801,-2.8983,-2.8779,-2.6489,-2.5107,-2.4389,-2.2581,-2.1153,-2.002,-1.8625,-1.8134,-1.8289,-1.8916,-1.8932,-1.8559,-1.8289,-1.8563,-1.908,-1.8965,-1.9527,-2.0234,-2.0094,-2.0081,-1.9966,-1.9221,-1.9435,-1.9772,-1.9156,-1.9904,-2.0872,-2.0775,-2.1661,-2.2573,-2.2508,-2.2476,-2.2492,-2.2508,-2.2002,-2.1573,-2.1617,-2.1549,-2.1103,-1.9946,-1.9514,-1.9323,-1.934,-1.8358,-1.7345,-1.657,-1.5997,-1.4874,-1.2833,-1.2126,-1.1135,-0.9533,-0.9985,-1.0339,-1.0259,-1.0957,-1.1651,-1.2256,-1.2829,-1.34,-1.3982,-1.4937,-1.5338,-1.5219,-1.5849,-1.6053,-1.5927,-1.6303,-1.6328,-1.9647,-2.0284,-2.1348,-2.3423,-2.4071,-2.517,0.0,0.0,-2.961,-3.0456,-3.1701,-3.236,-3.1466,-3.2161,-3.2688,-3.215,-3.1466,-3.0994,-3.0994,-3.0095,-2.9457,-2.9522,-3.043,-3.1083,-3.1215,-3.1367,-3.121,-3.063,-3.0748,-3.0269,-2.8873,-2.9618,-3.0059,-2.9982,-3.1063,-3.1936,-3.2572,-3.2405,-3.1975,-3.1218,-2.9597,-2.8551,-2.7962,-2.6101,-2.4977,-2.4338,-2.1549,-2.028,-2.0074,-1.8546,-1.837,-1.9058,-1.9041,-1.9421,-1.9894,-1.9159,-1.8949,-1.8987,-1.8807,-1.9651,-2.0706,-2.0112,-1.9855,-1.9658,-1.9149,-1.8937,-1.8871,-1.8903,-1.9823,-2.0775,-2.0648,-2.1555,-2.2492,-2.2427,-2.241,-2.2427,-2.2492,-2.1938,-2.1417,-2.1433,-2.0944,-2.0502,-2.0339,-1.9227,-1.7973,-1.6809,-1.6648,-1.6154,-1.4776,-1.4738,-1.4271,-1.2833,-1.2564,-1.1838,-1.0214,-1.059,-1.0891,-1.0817,-1.1343,-1.2264,-1.3629,-1.4149,-1.4717,-1.5367,-1.5895,-1.6111,-1.5988,-1.6174,-1.6177,-1.6011,-1.6445,-1.6554,-2.3086,-2.407,-2.5008,0.0,-2.7908,-2.9581,-3.0745,-3.115,-3.1472,-3.2183,-3.2576,-3.2866,-3.3104,-3.2927,-3.2749,0.0,-3.1887,-3.1197,-3.1108,-3.0063,-2.9268,-2.9186,-2.927,-2.9573,-3.025,-3.0808,-3.0783,-2.9935,-3.0093,-2.9618,-2.8207,-2.9339,-3.0248,-3.072,-3.1533,-3.222,-3.2848,-3.2088,-3.1557,-3.124,-2.9503,-2.8645,-2.8524,-2.632,-2.471,-2.3577,-2.1641,-2.079,-2.0705,-1.9665,-1.9421,-1.978,-2.0223,-2.0258,-2.0056,-1.9787,-1.9644,-1.957,-1.9391,-1.9716,-2.0144,-1.9821,-1.9421,-1.9097,-1.9328,-1.9077,-1.8805,-1.9303,-2.0084,-2.0791,-2.0693,-2.1601,-2.2557,-2.2524,-2.2459,-2.2427,-2.2492,-2.1859,-2.1341,-2.1496,-2.0833,-2.0125,-1.9805,-1.8494,-1.7147,-1.6068,-1.6105,-1.5868,-1.4744,-1.4524,-1.3991,-1.2773,-1.224,-1.1673,-1.0965,-1.1029,-1.104,-1.0914,-1.1072,-1.162,-1.2584,-1.3145,-1.3945,-1.5046,-1.5609,-1.6017,-1.6275,-1.6409,-1.6396,-1.6232,-1.663,-1.6747,-2.4822,0.0,0.0,-2.8239,-3.0479,-3.2345,-3.1711,-3.2208,-3.2889,-3.3191,-3.3013,-3.3054,-3.3862,-3.3353,-3.2889,-3.3199,-3.2462,-3.1749,-3.1388,-3.0298,-2.942,-2.9062,-2.8584,-2.8505,-2.9026,-2.9802,-2.9856,-2.8881,-2.9111,-2.8775,-2.7548,-2.9004,-3.0312,-3.1254,-3.1825,-3.2522,-3.3331,-3.2012,-3.1418,-3.1526,-2.9563,-2.8794,-2.9001,-2.6354,-2.4406,-2.302,-2.1803,-2.124,-2.1159,-2.0433,-2.0246,-2.0433,-2.1092,-2.104,-2.063,-2.0738,-2.0441,-1.9963,-1.9844,-1.9887,-1.9957,-1.9694,-1.9422,-1.9275,-1.9837,-1.9784,-1.966,-2.0254,-2.088,-2.1311,-2.1069,-2.1663,-2.231,-2.2278,-2.2167,-2.2037,-2.1907,-2.1342,-2.0876,-2.0926,-2.0187,-1.942,-1.9028,-1.786,-1.6763,-1.6085,-1.5791,-1.5386,-1.4609,-1.4186,-1.3666,-1.2877,-1.2349,-1.1939,-1.1675,-1.1728,-1.1625,-1.1242,-1.1317,-1.1671,-1.2311,-1.2948,-1.3854,-1.5041,-1.5675,-1.6155,-1.649,-1.6625,-1.6707,-1.6774,-1.709,-1.7316,0.0,0.0,-2.7338,-2.8646,-3.0116,-3.1514,-3.2513,-3.3419,-3.3916,-3.3475,-3.3487,-3.339,-3.2856,-3.3303,-3.369,-3.3423,-3.3367,-3.301,-3.2084,-3.0935,-2.983,-2.8913,-2.8795,-2.8503,0.0,-2.8431,-2.8579,-2.7891,-2.827,-2.8156,-2.7264,-2.886,-3.0318,-3.1454,-3.1953,-3.2916,-3.4426,-3.2684,-3.1909,-3.2148,-2.9796,-2.8848,-2.9001,-2.5927,-2.401,-2.3036,-2.1765,-2.12,-2.1145,-2.0339,-2.0432,-2.1086,-2.116,-2.1589,-2.2147,-2.2215,-2.1258,-1.9887,-1.9818,-2.0207,-2.0642,-1.9843,-2.0075,-2.0649,-2.0741,-2.1209,-2.1742,-2.1893,-2.2367,-2.2659,-2.1947,-2.1709,-2.159,-2.1465,-2.1325,-2.1086,-2.05,-2.0185,-1.9883,-1.9366,-1.8667,-1.8151,-1.8148,-1.7487,-1.6914,-1.6706,-1.545,-1.4352,-1.3802,-1.3383,-1.3175,-1.3261,-1.3376,-1.3124,-1.2341,-1.2864,-1.2899,-1.2105,-1.2553,-1.3179,-1.3897,-1.4638,-1.531,-1.5952,-1.6629,-1.6872,-1.6683,-1.6837,-1.7165,-1.7678,-1.795,-1.8481,0.0,0.0,-2.9971,-3.0729,-3.2173,-3.3534,-3.4118,-3.3856,-3.3453,-3.3306,-3.2246,-3.1418,-3.167,-3.115,-3.1128,-3.2449,-3.2331,-3.2236,-3.2722,-3.1714,-3.0538,-2.9518,-2.9038,0.0,0.0,0.0,0.0,-2.8049,-2.8426,-2.8645,-2.8545,-2.9557,-3.0571,-3.1543,-3.1494,-3.2181,-3.3625,-3.1939,-3.1433,-3.213,-3.0569,-2.9505,-2.8838,-2.6995,-2.5573,-2.4493,-2.3245,-2.2417,-2.1918,-2.1637,-2.1646,-2.1824,-2.1855,-2.1992,-2.2264,-2.2823,-2.2355,-2.1412,-2.1251,-2.1302,-2.1398,-2.1094,-2.086,-2.0884,-2.185,-2.1937,-2.1939,-2.291,-2.3308,-2.3358,-2.3063,-2.2605,-2.2312,-2.2753,-2.2345,-2.1698,-2.1098,-2.0844,-2.0556,-2.003,-1.897,-1.8305,-1.8762,-1.7439,-1.6116,-1.5483,-1.4806,-1.4013,-1.3033,-1.2822,-1.2884,-1.3193,-1.3353,-1.3555,-1.3871,-1.4059,-1.4218,-1.4346,-1.4529,-1.4741,-1.4974,-1.5149,-1.5544,-1.6195,-1.6291,-1.6528,-1.6889,-1.7445,-1.7797,-1.7982,-1.8794,-1.9303,0.0,-2.9694,-3.1641,-3.2641,-3.3873,-3.4827,-3.4872,-3.4177,-3.3299,-3.2535,-3.1224,-3.0107,-2.9775,-2.921,-2.9251,-3.0609,-3.1079,-3.1575,-3.2353,-3.2157,-3.1544,-3.0495,-3.0035,-2.9353,0.0,0.0,0.0,-2.8096,-2.8498,-2.8815,-2.8977,-3.013,-3.1016,-3.1588,-3.1469,-3.2075,-3.3443,-3.1583,-3.0699,-3.0888,-3.0238,-2.9354,-2.823,-2.6962,-2.6151,-2.5614,-2.4045,-2.3257,-2.3054,-2.2789,-2.2796,-2.3003,-2.3001,-2.2971,-2.2977,-2.3553,-2.3405,-2.2878,-2.2517,-2.2328,-2.2224,-2.218,-2.2031,-2.2046,-2.2944,-2.3044,-2.298,-2.3622,-2.3719,-2.3603,-2.3308,-2.2655,-2.2248,-2.303,-2.2718,-2.2068,-2.1407,-2.1182,-2.0861,-2.0032,-1.8956,-1.8305,-1.8716,-1.7254,-1.5704,-1.4802,-1.4541,-1.4149,-1.3347,-1.3044,-1.3125,-1.3743,-1.3905,-1.4243,-1.489,-1.4914,-1.509,-1.5542,-1.5829,-1.5981,-1.6001,-1.6397,-1.6814,-1.7253,-1.7292,-1.7518,-1.7932,-1.8358,-1.8714,-1.9042,-1.9739,-2.024,-2.9764,-3.1217,-3.2408,-3.427,-3.507,-3.5261,-3.4851,-3.4323,-3.3356,-3.1299,-3.0391,-2.9316,0.0,0.0,-2.8105,-2.8132,-2.977,-3.1091,-3.1206,-3.2349,-3.2781,0.0,0.0,0.0,0.0,0.0,0.0,-2.8172,0.0,-2.8716,-2.8693,-3.0545,-3.1588,-3.1624,-3.1888,-3.2577,-3.3821,-3.1691,-3.0015,-2.8833,-2.913,-2.8614,-2.7385,-2.6081,-2.5832,-2.6284,-2.4142,-2.3698,-2.4441,-2.3707,-2.3794,-2.4399,-2.4511,-2.44,-2.4226,-2.437,-2.4354,-2.4141,-2.3597,-2.3252,-2.3065,-2.3065,-2.3484,-2.4017,-2.405,-2.4446,-2.4757,-2.4082,-2.38,-2.3568,-2.2965,-2.2085,-2.16,-2.246,-2.2475,-2.2084,-2.1344,-2.1135,-2.0702,-1.9397,-1.8612,-1.8119,-1.8067,-1.6937,-1.575,-1.4863,-1.4786,-1.4754,-1.4612,-1.3924,-1.3827,-1.4793,-1.4951,-1.5119,-1.5435,-1.5472,-1.561,-1.5838,-1.654,-1.6973,-1.7048,-1.8325,-1.9032,-1.9053,-1.947,-1.9661,-1.9605,-1.9509,-1.9918,-2.0782,-2.0815,-2.1356,-2.9351,-3.1704,-3.4182,-3.5062,-3.5124,-3.5018,-3.5308,-3.3409,-3.1402,-3.0854,-2.8602,-2.6383,0.0,0.0,0.0,-2.7191,-2.9141,0.0,-3.2599,-3.3477,0.0,-3.2813,0.0,-3.2119,-3.0585,-3.0362,0.0,0.0,-2.9083,-2.9242,-2.9991,-3.0929,-3.1591,-3.1892,-3.2062,-3.2344,-3.2767,-3.2359,-3.1565,-3.0421,-3.1196,-3.0734,-2.9204,-2.8408,-2.7411,-2.6262,-2.5196,-2.4609,-2.4451,-2.4741,-2.4625,-2.4324,-2.4926,-2.4727,-2.4213,-2.4845,-2.476,-2.4405,-2.4693,-2.4362,-2.3815,-2.3767,-2.3851,-2.4083,-2.4595,-2.4825,-2.4936,-2.5157,-2.5161,-2.5149,-2.5433,-2.4152,-2.3118,-2.4428,-2.3456,-2.2019,-2.1214,-2.1071,-2.0846,-1.9948,-1.9312,-1.86,-1.76,-1.7088,-1.6771,-1.6569,-1.643,-1.5895,-1.4676,-1.4383,-1.4449,-1.4869,-1.4918,-1.5261,-1.6082,-1.6603,-1.7161,-1.7821,-1.8542,-1.8968,-1.8997,-1.9425,-1.9652,-1.9601,-1.967,-1.9717,-1.976,-2.0171,-2.0818,-2.1682,-2.2333,-2.2788,-3.119,-3.3183,-3.516,-3.5691,-3.5534,-3.4969,-3.3754,-3.2249,-3.0436,-2.8147,-2.6471,0.0,0.0,0.0,0.0,0.0,0.0,0.0,-3.2249,-3.3581,-3.4178,0.0,-3.3534,0.0,-3.1766,-3.1669,-3.1304,0.0,-2.9756,-2.9889,-3.0931,-3.1681,-3.2271,-3.2685,-3.2705,-3.2562,-3.2222,-3.2124,-3.1626,-3.0712,-3.0962,-3.0448,-2.9209,-2.8565,-2.7722,-2.6727,0.0,-2.5247,-2.5346,-2.5665,-2.5748,-2.5715,-2.6501,-2.6282,-2.5612,-2.6081,-2.5832,-2.528,-2.5681,-2.5497,-2.4996,-2.4647,-2.4729,-2.4977,-2.5042,-2.5187,-2.5364,-2.5321,-2.5206,-2.5217,-2.5944,-2.4641,-2.3572,-2.5166,-2.4068,-2.2549,-2.2078,-2.1776,-2.1231,-1.9867,-1.9391,-1.8664,-1.697,-1.6638,-1.6613,-1.6592,-1.6536,-1.6272,-1.565,-1.5558,-1.5727,-1.6181,-1.5991,-1.6089,-1.6733,-1.7127,-1.7563,-1.8082,-1.8847,-1.926,-1.926,-1.9986,-2.039,-2.0374,-2.0947,-2.1267,-2.134,-2.1957,-2.2556,-2.3111,-2.368,-2.4032,-3.3724,-3.4837,-3.5724,-3.6084,-3.5907,-3.4809,-3.1607,-3.0905,-2.963,-2.4977,0.0,-2.4231,-2.2283,-2.2674,-2.3637,-2.4749,0.0,-2.9847,-3.1462,-3.3404,-3.4538,-3.4192,-3.4151,-3.3775,-3.2842,-3.291,-3.2449,-3.1047,-3.0433,-3.05,-3.1368,-3.2376,-3.3154,-3.3611,-3.3383,-3.2833,-3.2012,-3.1511,-3.0953,-3.03,-2.9861,-2.9264,-2.8508,-2.776,-2.745,-2.7422,-2.589,-2.576,-2.6601,-2.6497,-2.6797,-2.7419,-2.8271,-2.8098,-2.7409,-2.7566,-2.7182,-2.6613,-2.6717,-2.6616,-2.6329,-2.5579,-2.5726,-2.607,-2.5441,-2.5603,-2.5877,-2.5129,-2.4753,-2.4749,-2.553,-2.4459,-2.3594,-2.5199,-2.4426,-2.3274,-2.3184,-2.2708,-2.1682,-1.9621,-1.9291,-1.8716,-1.6746,-1.6423,-1.6354,-1.6136,-1.6273,-1.658,-1.6995,-1.6927,-1.7119,-1.7861,-1.748,-1.7286,-1.7576,-1.7666,-1.7716,-1.7754,-1.8489,-1.8918,-1.8918,-2.0318,-2.1169,-2.1339,-2.2631,-2.3351,-2.3457,-2.4003,-2.4434,-2.4705,-2.4889,-2.5067,-3.349,-3.4855,-3.6277,-3.6078,-3.5217,-3.3853,-3.1705,-2.9264,0.0,0.0,0.0,-2.1982,-2.1106,-2.2183,0.0,-2.5293,0.0,0.0,0.0,0.0,-3.5185,0.0,0.0,0.0,0.0,0.0,0.0,0.0,-3.0926,-3.0672,-3.0445,-3.2164,-3.3355,-3.3815,-3.2909,-3.229,-3.2012,-3.1421,-3.0866,-3.0396,-3.0788,-3.0354,-2.9198,-2.8408,-2.8039,-2.7976,-2.6614,0.0,-2.7083,-2.7175,-2.6946,-2.6629,-2.7996,-2.8023,-2.7402,-2.7999,-2.8187,-2.8108,-2.8068,-2.7688,-2.7095,-2.6345,-2.6142,-2.6169,-2.6036,-2.6086,-2.6081,-2.5646,-2.5505,-2.561,-2.6202,-2.5252,-2.4397,-2.5312,-2.4374,-2.3256,-2.308,-2.2555,-2.1679,-2.0141,-1.9989,-1.9788,-1.8746,-1.8598,-1.8418,-1.7725,-1.8156,-1.8407,-1.795,-1.7397,-1.7342,-1.8072,-1.8052,-1.831,-1.9045,-1.9577,-1.9647,-1.9091,-1.9722,-2.0103,-2.0103,-2.1052,-2.1897,-2.2554,-2.3419,-2.3979,-2.4201,-2.4206,-2.4734,-2.5752,-2.5783,-2.5844,-3.4768,-3.5565,-3.6264,-3.5948,-3.4698,-3.2543,-2.8865,0.0,0.0,0.0,-2.1174,-2.0987,-2.0892,0.0,0.0,0.0,0.0,0.0,0.0,0.0,0.0,0.0,0.0,0.0,0.0,0.0,0.0,0.0,-3.2222,-3.1936,-3.1335,-3.273,-3.3442,-3.3175,-3.228,-3.1742,-3.1686,-3.0665,-3.0332,-3.0653,-3.056,-3.0059,-2.9235,-2.8829,-2.8464,-2.8053,-2.7421,-2.7325,-2.7635,-2.8108,-2.7883,-2.746,-2.935,-2.9383,-2.8522,-2.9648,-2.9834,-2.9473,-2.9072,-2.871,-2.8315,-2.762,-2.6853,-2.6202,-2.6202,-2.6202,-2.615,-2.5881,-2.5738,-2.5745,-2.5966,-2.5448,-2.4973,-2.5443,-2.4408,-2.3177,-2.2737,-2.2079,-2.1279,-2.0252,-2.012,-1.9956,-1.9233,-1.9133,-1.8992,-1.8539,-1.8822,-1.9119,-1.9177,-1.897,-1.8798,-1.8779,-1.8803,-1.9001,-1.9454,-1.9736,-1.9909,-1.9968,-2.0239,-2.0539,-2.0853,-2.1738,-2.242,-2.2828,-2.4016,-2.4696,-2.4877,-2.5213,-2.5916,-2.6893,-2.7138,-2.7408,-3.5882,-3.635,-3.6537,-3.6027,-3.4499,-3.1741,-2.6531,-2.529,0.0,0.0,-1.9169,-2.0359,-2.0845,0.0,0.0,0.0,0.0,0.0,0.0,0.0,0.0,0.0,0.0,0.0,0.0,0.0,0.0,0.0,-3.32,-3.2889,-3.2471,-3.3144,-3.3189,-3.2485,-3.1745,-3.1291,-3.1133,-2.9941,-2.9774,-3.0632,-3.0057,-2.9621,-2.9295,-2.9132,-2.8837,-2.8412,-2.8121,-2.8072,-2.8232,-2.8698,-2.8631,-2.8379,-3.0302,-3.036,-2.9546,-3.0886,-3.108,-3.0596,-2.9873,-2.9588,-2.9452,-2.8778,-2.759,-2.6452,-2.6452,-2.6452,-2.6366,-2.6001,-2.594,-2.5863,-2.5456,-2.526,-2.5169,-2.5336,-2.4576,-2.3635,-2.289,-2.226,-2.1616,-2.0925,-2.0683,-2.0424,-1.9878,-1.9637,-1.9463,-1.9171,-1.9228,-1.946,-1.9909,-2.0204,-2.0226,-1.979,-1.9988,-2.0169,-2.0223,-2.0315,-2.05,-2.0794,-2.087,-2.1122,-2.1614,-2.2475,-2.3046,-2.3275,-2.468,-2.553,-2.5747,-2.6401,-2.7142,-2.799,-2.8357,-2.875,-3.5663,-3.6847,-3.7913,-3.6735,-3.4923,-3.2214,-2.7511,0.0,0.0,-1.9827,-1.9242,-1.9555,-2.0621,-2.1497,-2.2925,0.0,0.0,0.0,0.0,0.0,0.0,0.0,0.0,0.0,0.0,0.0,0.0,0.0,-3.2813,-3.2256,-3.2886,-3.257,-3.2339,-3.2317,-3.1611,-3.0931,-3.0323,-2.9765,-2.9595,-2.9816,-2.9736,-2.9782,-2.9886,-2.9214,-2.9251,-2.9756,-2.8523,-2.8306,0.0,-2.8427,-2.8247,-2.83,-2.9224,-2.9512,-2.9496,-3.0307,-3.0922,-3.121,-3.0528,-3.0218,-3.0018,-2.928,-2.8201,-2.7199,-2.7199,-2.7199,-2.7013,-2.6151,-2.6372,-2.6531,-2.4991,-2.4596,-2.4578,-2.4596,-2.5058,-2.5255,-2.4394,-2.4202,-2.3961,-2.3148,-2.2554,-2.215,-2.2036,-2.1456,-2.0749,-1.9999,-1.9903,-1.974,-1.9251,-1.9853,-2.0527,-2.1141,-2.1981,-2.2516,-2.2577,-2.3206,-2.3057,-2.1845,-2.2282,-2.2599,-2.2665,-2.3326,-2.4048,-2.4775,-2.5671,-2.6473,-2.7211,-2.7334,-2.7916,-2.8879,-2.8915,-2.9072,-3.6111,-3.721,-3.7584,-3.6716,-3.4618,-3.1649,-2.7245,0.0,0.0,-1.924,-1.8265,-1.8532,-2.0592,-2.0378,-2.1056,0.0,0.0,0.0,0.0,0.0,0.0,0.0,0.0,0.0,0.0,0.0,0.0,0.0,-3.2329,-3.163,-3.1501,-3.1861,-3.1892,-3.1524,-3.1215,-3.0768,-3.0076,-2.9531,-2.9321,-2.9464,-2.9525,-2.9675,-2.9798,-2.961,-2.967,-2.9913,-2.9388,-2.9269,0.0,-2.9751,-2.9619,-2.9389,-3.0615,-3.086,-3.0629,-3.1369,-3.1808,-3.1894,-3.1194,-3.0926,-3.0729,-2.9992,-2.9137,-2.8313,-2.7943,-2.7904,-2.7857,-2.7298,-2.7115,-2.677,-2.5538,-2.4932,-2.472,-2.5143,-2.5161,-2.5018,-2.4723,-2.4246,-2.382,-2.3529,-2.3185,-2.2957,-2.3024,-2.2781,-2.2602,-2.263,-2.2342,-2.2328,-2.2927,-2.2979,-2.3258,-2.4028,-2.326,-2.293,-2.3504,-2.3421,-2.3486,-2.3849,-2.37,-2.3752,-2.41,-2.4878,-2.5243,-2.5127,-2.6395,-2.72,-2.752,-2.7466,-2.7963,-2.8926,-2.8611,-2.8971,-3.5242,-3.6638,-3.7157,-3.6402,-3.4211,-3.1146,0.0,0.0,-2.1513,-1.8733,-1.7678,-1.7987,-2.0321,-1.9971,-2.0404,0.0,0.0,0.0,0.0,0.0,0.0,0.0,0.0,0.0,0.0,0.0,0.0,-3.2939,-3.2006,-3.131,-3.0791,-3.1356,-3.1485,-3.0999,-3.0999,-3.0669,-3.0019,-2.9391,-2.9167,-2.9305,-2.9434,-2.9563,-2.9697,-2.9852,-2.9896,-2.9896,-3.0107,-3.0204,0.0,-3.0966,-3.1034,-3.0766,-3.1821,-3.1972,-3.163,-3.1964,-3.2204,-3.2191,-3.1242,-3.104,-3.1061,-3.0348,-2.976,-2.9295,-2.885,-2.8711,-2.8527,-2.7853,-2.7066,-2.6282,-2.5613,-2.5105,-2.4894,-2.5332,-2.5286,-2.5144,-2.5127,-2.4664,-2.43,-2.4512,-2.4259,-2.4107,-2.4403,-2.4079,-2.3948,-2.4432,-2.3933,-2.397,-2.5224,-2.4986,-2.5123,-2.611,-2.4618,-2.3735,-2.4199,-2.3819,-2.3917,-2.478,-2.438,-2.443,-2.5095,-2.5912,-2.6231,-2.5948,-2.7309,-2.8,-2.7984,-2.7967,-2.8326,-2.8963,-2.8869,-2.9695,-3.2392,-3.4822,-3.693,-3.5801,-3.3789,-3.0998,0.0,0.0,-2.1315,-1.8557,-1.785,-1.8153,-1.9629,-2.0649,-2.1714,-2.3079,0.0,0.0,0.0,0.0,0.0,0.0,0.0,0.0,0.0,0.0,0.0,-3.2709,-3.1875,0.0,-3.1388,-3.1149,-3.1024,-3.1002,-3.0983,-3.0669,-3.0019,-2.9391,-2.9167,-2.9305,-2.9434,-2.9563,-2.9697,-2.9852,-2.9896,-2.9929,-3.0603,-3.0888,0.0,-3.1843,-3.2183,-3.219,-3.2289,-3.2318,-3.222,-3.1548,-3.1694,-3.1987,-3.0516,-3.0395,-3.0791,-3.0123,-2.993,-2.9979,-2.9979,-2.966,-2.8951,-2.7358,-2.5897,-2.4816,-2.4816,-2.4903,-2.4971,-2.4834,-2.5516,-2.6115,-2.5917,-2.5937,-2.6116,-2.6664,-2.617,-2.5875,-2.6542,-2.5473,-2.4553,-2.4674,-2.4073,-2.3895,-2.47,-2.48,-2.5357,-2.6833,-2.6267,-2.5495,-2.4849,-2.4974,-2.4779,-2.405,-2.413,-2.456,-2.5363,-2.6117,-2.6872,-2.7666,-2.8533,-2.8941,-2.8907,-2.9141,-2.9212,-2.9123,-3.0038,-3.1549,-2.8521,-3.0221,-3.1293,-3.028,-2.9305,-2.7725,-2.4375,0.0,-2.1002,-1.8574,-1.747,-1.7362,-1.8761,-1.8221,-1.8779,-2.2543,-2.2725,0.0,0.0,0.0,0.0,0.0,0.0,0.0,0.0,0.0,-3.4313,-3.3284,-3.2988,-3.2421,-3.1451,-3.169,-3.1832,-3.1683,-3.1142,-3.0814,-3.0685,-2.954,-2.9082,-2.9305,-2.9434,-2.9563,-2.9714,-3.0219,-3.0513,-3.0613,-3.1232,-3.1578,-3.172,-3.2497,-3.2813,-3.2764,-3.2268,-3.2097,-3.195,-3.0786,-3.0742,-3.1248,-3.0771,-3.0733,-3.0872,-3.0645,-3.0285,-2.9924,-2.9924,-2.9977,-2.9753,-2.8326,-2.7545,-2.6893,-2.5873,-2.5645,-2.5663,-2.5627,-2.5844,-2.6063,-2.6096,-2.6457,-2.6796,-2.6986,-2.7191,-2.7414,-2.762,-2.7186,-2.7,-2.7557,-2.6929,-2.6714,-2.7545,-2.7225,-2.7133,-2.7702,-2.7519,-2.7093,-2.6432,-2.5461,-2.5285,-2.6259,-2.5464,-2.5564,-2.6925,-2.7333,-2.7639,-2.7911,-2.9751,-3.0452,-2.9941,-3.0982,-3.1336,-3.1112,-3.2232,-3.3176,0.0,-2.6868,-2.7752,-2.7006,-2.6367,0.0,0.0,0.0,-2.0226,-1.8491,-1.7504,-1.7323,-1.8601,-1.8054,-1.8575,-2.225,-2.2583,0.0,0.0,0.0,0.0,0.0,0.0,0.0,0.0,-3.4591,-3.4281,-3.3757,-3.3435,-3.3008,-3.2536,-3.2246,-3.2248,-3.2484,-3.1444,-3.1083,-3.1492,-2.9776,-2.9162,-2.9718,-2.9803,-2.9895,-3.0032,-3.0778,-3.1146,-3.1288,-3.1974,-3.2345,0.0,-3.2902,-3.308,-3.304,-3.2287,-3.2174,-3.2271,-3.1128,-3.0959,-3.1309,-3.1309,-3.0969,-3.0571,-3.0823,-3.0457,-2.9902,-2.9924,-2.988,-2.9617,-2.8606,-2.8059,-2.7525,-2.6358,-2.6079,-2.6145,-2.6427,-2.6728,-2.703,-2.7383,-2.7777,-2.8183,-2.8629,-2.8619,-2.869,-2.9148,-2.8939,-2.8885,-2.9443,-2.9016,-2.8881,-2.9484,-2.9428,-2.9317,-2.9395,-2.9185,-2.8843,-2.8382,-2.6693,-2.6122,-2.7216,-2.6279,-2.6267,-2.7614,-2.8076,-2.8488,-2.8901,-3.0883,-3.1591,-3.0929,-3.1987,-3.2573,-3.2739,-3.3913,-3.4667,0.0,0.0,0.0,0.0,0.0,0.0,0.0,0.0,0.0,-1.8275,-1.7776,-1.7847,-1.9052,-1.9632,-2.0477,-2.2253,-2.3567,0.0,0.0,0.0,0.0,0.0,0.0,0.0,0.0,-3.3345,-3.4195,-3.4191,-3.3431,-3.3376,-3.4257,-3.2761,-3.2327,-3.3251,-3.1791,-3.1414,-3.2291,-3.0029,-2.943,-3.0482,-3.0434,-3.0465,-3.0622,-3.1454,-3.1839,0.0,-3.2741,-3.3137,-3.3137,-3.3137,-3.3137,-3.3072,-3.2344,-3.2474,-3.2975,-3.2247,-3.2004,-3.2029,-3.2053,-3.1202,-3.0182,-3.0726,-3.0409,-2.9837,-2.9908,-2.949,-2.8881,-2.8398,-2.7737,-2.7048,-2.648,-2.6268,-2.6419,-2.7249,-2.7971,-2.8696,-2.9426,-2.9626,-2.9982,-3.1066,-3.0243,-2.9748,-3.0908,-3.0538,-3.0201,-3.0502,-3.0438,-3.0401,-3.0613,-3.125,-3.1681,-3.1681,-3.1132,-3.0713,-3.0587,-2.8501,-2.7194,-2.7243,-2.6733,-2.6879,-2.7878,-2.8589,-2.9499,-3.0613,-3.1998,-3.2541,-3.2147,-3.2564,-3.3226,-3.4195,-3.5194,-3.61,-1.7765,0.0,-2.0152,-1.9244,0.0,0.0,0.0,0.0,0.0,0.0,0.0,0.0,0.0,-1.9468,-2.0065,-2.351,-2.4001,-2.5118,0.0,0.0,0.0,0.0,0.0,0.0,0.0,-3.4869,-3.5086,-3.5098,-3.49,-3.4632,-3.432,-3.3338,-3.295,-3.3293,-3.1602,-3.1211,-3.2291,-2.9979,-2.9627,-3.1165,-3.0656,-3.0768,-3.151,-3.2045,-3.2373,-3.2602,-3.315,-3.347,-3.3572,-3.3572,-3.3572,-3.3492,-3.2761,-3.2568,-3.2632,-3.1959,-3.2039,-3.2472,-3.257,-3.2394,-3.1983,-3.1172,-3.0069,-2.907,-2.9091,-2.9377,-2.9609,-2.9038,-2.8434,-2.7921,-2.7775,-2.6974,-2.6649,-2.8472,-2.8661,-2.8614,-2.9307,-2.9884,-3.0216,-2.9922,-3.0051,-3.0455,-3.121,-3.1139,-3.1199,-3.1839,-3.1831,-3.1798,-3.1989,-3.2182,-3.232,-3.2431,-3.2392,-3.2352,-3.233,-2.9625,-2.8187,-2.8748,-2.8185,-2.8771,-3.0892,-3.0749,-3.1353,-3.2901,-3.3515,-3.4406,-3.5632,-3.5379,-3.5758,-3.6738,-3.7147,-3.779,-1.6408,-1.7535,-1.8574,-1.7833,-1.8261,-1.8676,0.0,0.0,0.0,0.0,0.0,0.0,0.0,0.0,0.0,0.0,-2.5072,0.0,0.0,0.0,0.0,0.0,0.0,0.0,0.0,-3.5222,-3.5392,-3.5736,-3.51,-3.4722,-3.4711,-3.3548,-3.2973,-3.3203,-3.1462,-3.1063,-3.2189,-2.9946,-2.961,-3.1216,-3.0917,-3.1205,-3.2052,-3.2638,-3.2965,-3.315,-3.3457,-3.3617,-3.3678,-3.3316,-3.3189,-3.3125,-3.2421,-3.2341,-3.2565,-3.2197,-3.2293,-3.2686,-3.3132,-3.3135,-3.2724,-3.1334,-3.0597,-3.0214,-2.9874,-3.0352,-3.0739,-2.9459,-2.9403,-2.9638,-2.9329,-2.8712,-2.8572,-3.014,-3.0476,-3.0663,-3.1437,-3.186,-3.2066,-3.1951,-3.1702,-3.1709,-3.2302,-3.2366,-3.2629,-3.3439,-3.3716,-3.3913,-3.4086,-3.4407,-3.4513,-3.4237,-3.4049,-3.3918,-3.3821,-3.176,-3.063,-3.1012,-3.0688,-3.1124,-3.2547,-3.2315,-3.2825,-3.4216,-3.4659,-3.5508,-3.6796,-3.6819,-3.7094,-3.7649,-3.7934,-3.8488,-1.6687,-1.8042,-1.9225,-1.8473,-1.8648,-1.9028,0.0,0.0,0.0,0.0,0.0,0.0,0.0,0.0,0.0,0.0,0.0,0.0,0.0,0.0,0.0,0.0,0.0,0.0,-3.5094,-3.5164,-3.5532,-3.6268,-3.4917,-3.4416,-3.5109,-3.3575,-3.2784,-3.3096,-3.1357,-3.0897,-3.1929,-2.985,-2.9624,-3.12,-3.1205,-3.1634,-3.2507,-3.3155,-3.3477,-3.3503,0.0,0.0,-3.3451,-3.2818,-3.2538,-3.2515,-3.2028,-3.2203,-3.2697,-3.2697,-3.2697,-3.2818,-3.3588,-3.3498,-3.2846,-3.1609,-3.1463,-3.1737,-3.1082,-3.1521,-3.1854,-3.0102,-3.0525,-3.1391,-3.0927,-3.0654,-3.0758,-3.1843,-3.2485,-3.3095,-3.3963,-3.4134,-3.4259,-3.4658,-3.3806,-3.3237,-3.3825,-3.3834,-3.4112,-3.505,-3.5539,-3.5894,-3.6133,-3.6721,-3.687,-3.6241,-3.5695,-3.5308,-3.5112,-3.409,-3.3477,-3.3482,-3.3203,-3.318,-3.346,-3.3621,-3.4168,-3.5124,-3.5633,-3.6206,-3.6915,-3.7449,-3.7775,-3.7936,-3.8217,-3.8862,-1.7543,-1.9298,-2.0359,-1.8257,-1.8655,-1.9419,0.0,0.0,0.0,0.0,0.0,0.0,0.0,0.0,0.0,0.0,0.0,0.0,0.0,0.0,0.0,0.0,0.0,-3.5724,-3.599,-3.5871,-3.6093,-3.6811,-3.5649,-3.4927,-3.4922,-3.363,-3.2924,-3.3096,-3.1462,-3.0752,-3.1175,-2.9585,-2.9923,-3.2092,-3.1507,-3.1937,-3.3318,-3.3324,-3.3398,-3.3471,0.0,-3.2526,-3.2526,-3.2374,-3.2342,-3.239,-3.2855,-3.3108,-3.3187,-3.3187,-3.3187,-3.3229,-3.3497,-3.3246,-3.2804,-3.2579,-3.1861,-3.105,-3.0937,-3.159,-3.2302,-3.1974,-3.1709,-3.16,-3.2061,-3.1351,-3.1023,-3.3017,-3.3106,-3.294,-3.3709,-3.4333,-3.4591,-3.4078,-3.4286,-3.4736,-3.5358,-3.4938,-3.4987,-3.638,-3.6149,-3.6075,-3.6828,-3.7036,-3.7069,-3.6953,-3.6495,-3.6157,-3.6013,-3.5518,-3.5189,-3.5155,-3.3745,-3.3354,-3.4281,-3.5142,-3.5835,-3.6336,-3.6536,-3.6906,-3.7485,-3.7577,-3.808,-3.8959,-3.903,-3.9878,-1.7001,-1.8625,-1.9938,-1.8889,-2.0125,-2.1498,0.0,0.0,0.0,0.0,0.0,0.0,0.0,0.0,0.0,0.0,0.0,0.0,0.0,0.0,0.0,0.0,0.0,-3.5916,-3.6409,-3.6127,-3.6189,-3.6952,-3.5806,-3.5036,-3.4909,-3.4041,-3.3419,-3.3112,-3.1899,-3.1378,-3.1684,-3.0568,-3.0537,-3.1606,-3.1719,-3.2364,-3.3372,-3.3335,-3.3319,-3.3382,0.0,-3.2845,-3.2845,-3.2845,-3.2639,-3.2323,-3.2639,-3.2766,-3.2813,-3.3166,-3.3361,-3.3424,-3.3477,-3.3409,-3.3235,-3.2998,-3.2781,-3.2562,-3.2315,-3.2894,-3.3649,-3.3649,-3.3495,-3.3406,-3.372,-3.333,-3.3127,-3.4154,-3.4137,-3.4087,-3.4833,-3.5263,-3.5512,-3.5578,-3.586,-3.605,-3.5935,-3.5943,-3.6224,-3.6901,-3.705,-3.739,-3.8195,-3.8278,-3.8278,-3.8278,-3.7794,-3.7261,-3.6738,-3.6584,-3.6246,-3.5599,-3.4802,-3.4588,-3.5059,-3.5613,-3.6272,-3.7074,-3.6925,-3.7494,-3.8785,-3.8563,-3.8942,-3.986,-3.9896,-4.0547,-1.7036,-1.8246,-1.957,-2.0162,0.0,0.0,0.0,0.0,0.0,0.0,0.0,0.0,0.0,0.0,0.0,0.0,0.0,0.0,0.0,0.0,-3.5167,-3.5721,-3.5828,-3.609,-3.6631,-3.6304,-3.6286,-3.6892,-3.5904,-3.5151,-3.4852,-3.4379,-3.3787,-3.3074,-3.2274,-3.1977,-3.2291,-3.1637,-3.1303,-3.1319,-3.1972,-3.2655,-3.3309,-3.3309,-3.3309,-3.3293,-3.3135,-3.2961,-3.2819,-3.2819,-3.2408,-3.1817,-3.1991,-3.2149,-3.237,-3.304,-3.3346,-3.345,-3.345,-3.3555,-3.364,-3.328,-3.3598,-3.4028,-3.3656,-3.4055,-3.4594,-3.4594,-3.4847,-3.5124,-3.5164,-3.5297,-3.5413,-3.5413,-3.5413,-3.5578,-3.6141,-3.639,-3.6688,-3.7251,-3.75,-3.7433,-3.687,-3.7102,-3.7433,-3.7582,-3.7963,-3.8477,-3.9216,-3.9299,-3.9299,-3.9299,-3.874,-3.806,-3.7269,-3.727,-3.6942,-3.6139,-3.6124,-3.6079,-3.5915,-3.6158,-3.6778,-3.7763,-3.7554,-3.8199,-3.9775,-3.9532,-3.986,-4.0672,-4.0727,-4.1198,-1.8902,-1.9558,-2.0309,-2.2181,0.0,0.0,0.0,0.0,0.0,0.0,0.0,0.0,0.0,0.0,0.0,0.0,0.0,0.0,0.0,0.0,-3.6415,-3.6585,-3.6508,-3.6523,-3.6677,-3.6554,-3.6523,-3.6723,-3.6192,-3.5521,-3.4738,-3.4323,-3.3732,-3.2955,-3.2311,-3.208,-3.2291,-3.2244,-3.2212,-3.2212,-3.2276,-3.2655,-3.3309,-3.3309,-3.3309,-3.3261,-3.2639,-3.1966,-3.134,-3.134,-3.0954,-3.0425,-3.1049,-3.1697,-3.237,-3.304,-3.3309,-3.3293,-3.3293,-3.3477,-3.3694,-3.3672,-3.385,-3.4084,-3.4061,-3.4177,-3.4325,-3.4325,-3.5013,-3.5762,-3.5902,-3.6439,-3.6953,-3.6953,-3.6953,-3.697,-3.7019,-3.7566,-3.8079,-3.8129,-3.8659,-3.9133,-3.9067,-3.8526,-3.8361,-3.905,-3.8593,-3.8477,-3.9216,-3.9299,-3.9299,-3.9299,-3.874,-3.8153,-3.7511,-3.7369,-3.7369,-3.7545,-3.7665,-3.7462,-3.6831,-3.7483,-3.8083,-3.8602,-3.8833,-3.9188,-3.97,-3.9918,-4.0541,-4.1502,-4.1521,-4.1993,-1.7888,-1.9004,-2.0271,-2.1629,0.0,0.0,0.0,0.0,0.0,0.0,0.0,0.0,0.0,0.0,0.0,0.0,0.0,0.0,0.0,-3.5661,-3.5891,-3.5952,-3.6261,-3.6523,-3.6569,-3.66,-3.6476,-3.6119,-3.6094,-3.5587,-3.4376,-3.4187,-3.3814,-3.3181,-3.2856,-3.2767,-3.2914,-3.2914,-3.3145,-3.3541,-3.3103,-3.304,-3.3309,-3.3309,-3.3072,-3.2671,-3.2402,-3.1896,-3.1198,-3.1198,-3.0796,-3.0267,-3.0939,-3.1381,-3.1744,-3.2882,-3.3309,-3.3309,-3.3309,-3.3388,-3.3503,-3.3745,-3.3899,-3.4025,-3.4275,-3.4374,-3.4423,-3.4423,-3.5021,-3.572,-3.5844,-3.6464,-3.7102,-3.7102,-3.7102,-3.7235,-3.7698,-3.7623,-3.7665,-3.8129,-3.8427,-3.846,-3.8013,-3.8444,-3.8808,-3.8642,-3.8758,-3.8974,-3.9265,-3.9299,-3.9299,-3.9299,-3.9103,-3.8916,-3.8753,-3.8755,-3.8673,-3.8395,-3.8014,-3.7699,-3.753,-3.779,-3.8412,-3.9425,-3.9134,-3.9705,-4.1194,-4.0955,-4.1541,-4.2839,-4.2491,-4.3018,-1.7291,-1.8544,-2.0219,0.0,0.0,0.0,0.0,0.0,0.0,0.0,0.0,0.0,0.0,0.0,0.0,0.0,0.0,0.0,-3.5508,-3.5738,-3.5829,-3.5829,-3.6215,-3.6492,-3.6492,-3.6569,-3.6368,-3.5807,-3.5984,-3.5535,-3.4168,-3.4101,-3.3826,-3.3245,-3.315,-3.315,-3.3309,-3.3309,-3.353,-3.3972,-3.3514,-3.3309,-3.3293,-3.3072,-3.2598,-3.1959,-3.1959,-3.1539,-3.0891,-3.0891,-3.0607,-3.0283,-3.1126,-3.1489,-3.1681,-3.2866,-3.3309,-3.3309,-3.3309,-3.3335,-3.3398,-3.3668,-3.3822,-3.3949,-3.4226,-3.4349,-3.4374,-3.4374,-3.4946,-3.5569,-3.5645,-3.6519,-3.7439,-3.7654,-3.7538,-3.7505,-3.8034,-3.7529,-3.719,-3.8001,-3.8133,-3.806,-3.7831,-3.874,-3.9318,-3.8792,-3.9256,-3.9661,-3.9661,-3.9547,-3.9432,-3.9299,-3.9514,-3.9674,-3.9771,-3.9914,-3.9929,-3.9781,-3.8916,-3.8334,-3.8261,-3.8464,-3.902,-3.995,-3.9617,-4.0175,-4.1683,-4.1801,-4.2415,-4.3474,-4.349,-4.4057,-1.7537,-1.8532,-2.0229,0.0,0.0,0.0,0.0,0.0,0.0,0.0,0.0,0.0,0.0,0.0,0.0,0.0,0.0,-3.599,-3.599,-3.6274,-3.6476,-3.6476,-3.6476,-3.6476,-3.6476,-3.6476,-3.6291,-3.5895,-3.5878,-3.5357,-3.4148,-3.4085,-3.3771,-3.3128,-3.3096,-3.315,-3.3309,-3.3309,-3.3309,-3.3309,-3.3309,-3.3309,-3.3261,-3.2608,-3.1896,-3.1182,-3.1182,-3.0812,-3.0188,-3.0204,-3.0204,-3.0322,-3.153,-3.2106,-3.237,-3.304,-3.3309,-3.3309,-3.3309,-3.3372,-3.3503,-3.3503,-3.3684,-3.3899,-3.3899,-3.4,-3.4101,-3.4101,-3.472,-3.5375,-3.5417,-3.6675,-3.8167,-3.8815,-3.8496,-3.8002,-3.8002,-3.7321,-3.6957,-3.7827,-3.8002,-3.8269,-3.9139,-3.9642,-3.9901,-3.9901,-4.0179,-4.0375,-4.0392,-4.0138,-3.9763,-3.9342,-3.9978,-4.0426,-4.0409,-4.0519,-4.0971,-4.1854,-4.0647,-3.9632,-3.9056,-3.9723,-4.0096,-4.0096,-4.0434,-4.0659,-4.0802,-4.2346,-4.315,-4.3241,-4.4441,-4.5018,-1.8703,-1.9661,0.0,0.0,0.0,0.0,0.0,0.0,0.0,0.0,0.0,0.0,0.0,0.0,0.0,-3.4231,-3.442,-3.4606,-3.5199,-3.4973,-3.4729,-3.4729,-3.4805,-3.4865,-3.4865,-3.512,-3.4974,-3.4408,-3.4431,-3.4142,-3.3295,-3.3107,-3.303,-3.2951,-3.2951,-3.3032,-3.315,-3.3256,-3.3546,-3.3988,-3.353,-3.304,-3.2592,-3.2386,-3.1643,-3.0496,-3.0496,-3.0085,-2.9461,-2.9879,-3.0335,-3.0854,-3.1667,-3.2106,-3.237,-3.304,-3.3309,-3.3309,-3.3309,-3.3335,-3.3372,-3.3477,-3.3633,-3.3771,-3.3873,-3.4,-3.4101,-3.4101,-3.4288,-3.4753,-3.588,-3.664,-3.7305,-3.8107,-3.8609,-3.8904,-3.8904,-3.8236,-3.7712,-3.8058,-3.8064,-3.8121,-3.8467,-3.9046,-3.9484,-3.9484,-3.9573,-3.9819,-4.0327,-4.0721,-4.0735,-4.0127,-4.1272,-4.1716,-4.0748,-4.1268,-4.157,-4.1427,-4.1015,-4.0729,-4.0561,-4.0265,-4.0196,-4.037,-4.0795,-4.1123,-4.1386,-4.2709,-4.3665,-4.4185,-4.4646,-4.5423,-1.9321,0.0,0.0,0.0,0.0,0.0,0.0,0.0,0.0,0.0,0.0,0.0,0.0,0.0,0.0,-3.4648,-3.4464,-3.4272,-3.4818,-3.4364,-3.4015,-3.406,-3.4149,-3.4238,-3.4297,-3.4519,-3.4342,-3.3761,-3.3768,-3.3543,-3.2944,-3.2718,-3.2676,-3.2897,-3.2632,-3.2487,-3.2593,-3.2442,-3.2557,-3.2898,-3.2541,-3.2031,-3.141,-3.2013,-3.1532,-3.0204,-3.0204,-3.0077,-2.9871,-3.019,-3.0729,-3.1469,-3.2107,-3.2494,-3.2766,-3.3151,-3.3309,-3.3309,-3.3346,-3.3372,-3.3398,-3.3529,-3.3668,-3.3797,-3.3873,-3.4,-3.4101,-3.4101,-3.4311,-3.4758,-3.5737,-3.6519,-3.7239,-3.8179,-3.8609,-3.8762,-3.8708,-3.8015,-3.7508,-3.785,-3.7933,-3.8058,-3.8444,-3.9096,-3.9537,-3.9537,-3.985,-4.0184,-4.0408,-4.1017,-4.1155,-4.0348,-4.1674,-4.2185,-4.1127,-4.1832,-4.2349,-4.2351,-4.1849,-4.1726,-4.2066,-4.1356,-4.0917,-4.078,-4.1505,-4.1816,-4.1661,-4.3398,-4.4445,-4.4889,-4.5321,-4.6002,0.0,0.0,0.0,0.0,0.0,0.0,0.0,0.0,0.0,0.0,0.0,0.0,0.0,0.0,0.0,-3.5255,-3.5001,-3.4677,-3.4677,-3.4212,-3.3924,-3.4042,-3.4026,-3.4084,-3.4275,-3.4291,-3.4085,-3.3531,-3.3547,-3.3339,-3.278,-3.2707,-3.2738,-3.287,-3.2293,-3.1919,-3.1794,-3.1324,-3.1005,-3.0816,-3.0942,-3.0656,-3.0075,-3.1482,-3.1406,-3.0204,-3.0243,-3.0604,-3.1162,-3.1025,-3.1441,-3.2228,-3.2795,-3.3105,-3.3309,-3.3309,-3.3309,-3.3335,-3.353,-3.3572,-3.3598,-3.3712,-3.3867,-3.3954,-3.3915,-3.4,-3.4117,-3.4182,-3.4667,-3.5244,-3.5357,-3.6452,-3.7753,-3.875,-3.8519,-3.8031,-3.7925,-3.7267,-3.6884,-3.7503,-3.7758,-3.8122,-3.887,-3.9451,-3.984,-3.9933,-4.0788,-4.1225,-4.0733,-4.1266,-4.1321,-4.0418,-4.1576,-4.2208,-4.1591,-4.2247,-4.3101,-4.3963,-4.2881,-4.2564,-4.3331,-4.2692,-4.1982,-4.1322,-4.2356,-4.2558,-4.1906,-4.4159,-4.5229,-4.527,-4.6165,-4.659,0.0,-2.1834,0.0,0.0,0.0,0.0,0.0,0.0,0.0,0.0,0.0,0.0,0.0,0.0,0.0,-3.4728,-3.4696,-3.4535,-3.4535,-3.3638,-3.3004,-3.3018,-3.2796,-3.2662,-3.2691,-3.2788,-3.2595,-3.1929,-3.2376,-3.2403,-3.1766,-3.2669,-3.3036,-3.2664,-3.3075,-3.2819,-3.181,-3.1794,-3.1526,-3.0952,-3.0977,-3.0705,-3.0172,-3.0496,-3.0489,-3.0236,-3.0642,-3.1418,-3.2413,-3.2253,-3.2726,-3.3517,-3.3646,-3.3529,-3.3309,-3.3309,-3.3309,-3.3372,-3.3947,-3.4121,-3.4164,-3.4287,-3.442,-3.444,-3.4024,-3.4,-3.4214,-3.4797,-3.5082,-3.548,-3.669,-3.7264,-3.7726,-3.8625,-3.8745,-3.8603,-3.8575,-3.8368,-3.822,-3.8461,-3.8482,-3.8547,-3.8936,-3.9104,-3.9437,-4.0186,-4.1405,-4.2209,-4.2067,-4.2713,-4.285,-4.208,-4.2941,-4.3277,-4.2542,-4.2779,-4.3014,-4.321,-4.3065,-4.3048,-4.3244,-4.2655,-4.2219,-4.2066,-4.2612,-4.2817,-4.2662,-4.4061,-4.481,-4.4924,-4.5963,-4.6495,0.0,0.0,0.0,0.0,0.0,0.0,0.0,0.0,0.0,0.0,0.0,0.0,0.0,0.0,-3.3046,-3.3862,-3.3507,-3.3262,-3.3698,-3.2751,-3.2135,-3.2425,-3.2031,-3.1744,-3.1811,-3.1893,-3.1794,-3.1439,-3.1958,-3.205,-3.1413,-3.2004,-3.2097,-3.157,-3.1745,-3.1482,-3.0752,-3.0595,-3.0324,-2.9946,-2.9979,-2.9887,-2.969,-3.0046,-3.0394,-3.0701,-3.0917,-3.1502,-3.2355,-3.2633,-3.3205,-3.3911,-3.3979,-3.3924,-3.3735,-3.3419,-3.3309,-3.3403,-3.4148,-3.4386,-3.4476,-3.4961,-3.5181,-3.5155,-3.4893,-3.4876,-3.4993,-3.5379,-3.5744,-3.6206,-3.7069,-3.7577,-3.7961,-3.849,-3.8694,-3.8777,-3.8711,-3.8644,-3.8588,-3.86,-3.8616,-3.8758,-3.9252,-3.9736,-4.0209,-4.0633,-4.1667,-4.2389,-4.2331,-4.2911,-4.3122,-4.2472,-4.3168,-4.3405,-4.2717,-4.3053,-4.331,-4.3413,-4.3516,-4.3556,-4.3642,-4.3395,-4.3118,-4.2828,-4.3585,-4.3795,-4.3434,-4.461,-4.5202,-4.5294,-4.5919,-4.6235,0.0,0.0,0.0,0.0,0.0,0.0,0.0,0.0,0.0,0.0,0.0,0.0,0.0,0.0,-3.2176,-3.2756,-3.2089,-3.1728,-3.2354,-3.1783,-3.1459,-3.1967,-3.1653,-3.1459,-3.1551,-3.1567,-3.1493,-3.137,-3.1784,-3.1772,-3.1217,-3.1229,-3.0998,-3.0443,-3.0225,-2.9943,-2.9645,-2.9272,-2.9014,-2.8818,-2.8889,-2.899,-2.9091,-2.9722,-3.0385,-3.1024,-3.1127,-3.1461,-3.2028,-3.2745,-3.3369,-3.3907,-3.4046,-3.4195,-3.4209,-3.3546,-3.3372,-3.3588,-3.4222,-3.4551,-3.4768,-3.5521,-3.5847,-3.5927,-3.5826,-3.5794,-3.581,-3.5966,-3.643,-3.6966,-3.7163,-3.7701,-3.8196,-3.8497,-3.8695,-3.8814,-3.8621,-3.8576,-3.8581,-3.8598,-3.8796,-3.9158,-3.9789,-4.0705,-4.1309,-4.1193,-4.1875,-4.241,-4.2291,-4.2783,-4.2991,-4.2535,-4.3056,-4.3215,-4.2738,-4.328,-4.3734,-4.3898,-4.3939,-4.4027,-4.4126,-4.4253,-4.408,-4.3612,-4.4572,-4.4761,-4.411,-4.5113,-4.5606,-4.5632,-4.5786,-4.5887,0.0,0.0,0.0,0.0,0.0,0.0,0.0,0.0,0.0,0.0,0.0,0.0,0.0,0.0,0.0,-3.1446,-3.1301,-3.1101,-3.0685,-3.097,-3.1238,-3.132,-3.1857,-3.2259,-3.2259,-3.2164,-3.1836,-3.1255,-3.1301,-3.1056,-3.0409,-3.0994,-3.1142,-3.0583,-3.1073,-3.084,-2.9777,-2.9821,-2.9532,-2.8897,-2.9006,-2.9013,-2.8943,-2.9147,-2.9643,-3.0385,-3.1309,-3.207,-3.2703,-3.3336,-3.3706,-3.3911,-3.405,-3.4183,-3.4209,-3.3546,-3.3672,-3.4162,-3.43,-3.4742,-3.5324,-3.5542,-3.6015,-3.6425,-3.5943,-3.5794,-3.5934,-3.6558,-3.6826,-3.705,-3.763,-3.787,-3.8136,-3.8904,-3.9137,-3.9017,-3.8521,-3.8436,-3.8614,-3.9246,-3.9933,-4.0443,-4.0541,-4.1292,-4.1884,-4.1868,-4.249,-4.2996,-4.2965,-4.3185,-4.3339,-4.324,-4.3443,-4.3549,-4.3449,-4.3697,-4.3868,-4.3898,-4.4126,-4.4253,-4.4281,-4.431,-4.4344,-4.4434,-4.4603,-4.4631,-4.4529,-4.4686,-4.4831,-4.4923,-4.5177,-4.5363,0.0,0.0,0.0,0.0,0.0,0.0,0.0,0.0,0.0,0.0,0.0,0.0,0.0,0.0,0.0,-3.0287,-3.0438,-3.0762,-3.1249,-3.1399,-3.1582,-3.1842,-3.1847,-3.1647,-3.1198,-3.1114,-3.0647,-2.9592,-2.979,-2.9739,-2.9219,-2.9449,-2.9566,-2.9487,-2.9841,-2.9604,-2.8732,-2.8872,-2.8784,-2.8446,-2.8355,-2.8559,-2.9013,-2.8951,-2.9171,-2.9651,-3.0742,-3.1446,-3.1914,-3.3259,-3.388,-3.4034,-3.4156,-3.4502,-3.4826,-3.4115,-3.4036,-3.4352,-3.4762,-3.5126,-3.5486,-3.5894,-3.6524,-3.7076,-3.6816,-3.6807,-3.6928,-3.7275,-3.7412,-3.763,-3.8434,-3.8611,-3.8846,-3.9731,-3.9922,-3.9871,-3.9638,-3.9266,-3.9104,-3.9457,-4.041,-4.1216,-4.1216,-4.1938,-4.2517,-4.2591,-4.29,-4.3143,-4.3235,-4.3235,-4.3235,-4.3235,-4.3265,-4.3372,-4.3479,-4.3568,-4.3658,-4.3734,-4.3818,-4.3906,-4.3906,-4.408,-4.4241,-4.4315,-4.4384,-4.4468,-4.4615,-4.4615,-4.4626,-4.4709,-4.5032,-4.523,0.0,0.0,0.0,0.0,0.0,0.0,0.0,0.0,0.0,0.0,0.0,0.0,0.0,0.0,0.0,0.0,-2.9264,-2.9884,-3.0778,-3.0932,-3.1129,-3.1503,-3.1033,-3.0437,-2.9844,-2.9672,-2.9256,-2.8458,-2.8464,-2.8454,-2.8339,-2.7962,-2.7849,-2.8062,-2.8218,-2.8139,-2.7908,-2.8027,-2.8,-2.7841,-2.7821,-2.8166,-2.8846,-2.8865,-2.9061,-2.9446,-3.0407,-3.0914,-3.1156,-3.2958,-3.3768,-3.3877,-3.4171,-3.4747,-3.5315,-3.4778,-3.4683,-3.4889,-3.5268,-3.5505,-3.5742,-3.6235,-3.6911,-3.751,-3.7539,-3.7612,-3.77,-3.773,-3.7817,-3.8078,-3.8929,-3.9165,-3.942,-4.0471,-4.0712,-4.0693,-4.0529,-4.0237,-4.004,-4.004,-4.1029,-4.1871,-4.1902,-4.248,-4.2961,-4.3082,-4.3113,-4.3143,-4.3312,-4.3204,-4.3113,-4.3174,-4.3174,-4.3235,-4.3449,-4.3509,-4.3568,-4.3658,-4.3717,-4.3717,-4.3717,-4.3923,-4.4085,-4.4097,-4.4167,-4.4327,-4.4615,-4.4615,-4.4615,-4.4615,-4.4913,-4.5059,0.0,0.0,0.0,0.0,0.0,0.0,0.0,0.0,0.0,0.0,0.0,0.0,0.0,0.0,0.0,0.0,0.0,0.0,-2.7689,-2.8394,-2.903,-2.9237,-2.8949,-2.8741,-2.8685,-2.8232,-2.8198,-2.8915,-2.7822,-2.743,-2.818,-2.7111,-2.6533,-2.6614,-2.6747,-2.7177,-2.7893,-2.8027,-2.7778,-2.7162,-2.7772,-2.811,-2.8173,-2.8814,-2.9477,-3.0164,-3.0735,-3.0974,-3.1109,-3.2536,-3.3159,-3.3249,-3.3997,-3.4747,-3.5394,-3.5347,-3.5758,-3.6203,-3.5616,-3.5821,-3.6345,-3.6393,-3.6911,-3.7539,-3.7642,-3.77,-3.773,-3.7847,-3.7905,-3.8065,-3.8814,-3.9019,-3.9402,-4.0981,-4.135,-4.1218,-4.0612,-4.1029,-4.1498,-4.1498,-4.2067,-4.2617,-4.2803,-4.2883,-4.2961,-4.3082,-4.3113,-4.3096,-4.3096,-4.3113,-4.3174,-4.3372,-4.3372,-4.3432,-4.3598,-4.3763,-4.3868,-4.3898,-4.3998,-4.4068,-4.4068,-4.3969,-4.3969,-4.4097,-4.3969,-4.4143,-4.4615,-4.4615,-4.4615,-4.4615,-4.4626,-4.4626,0.0,0.0,0.0,0.0,0.0,0.0,0.0,0.0,0.0,0.0,0.0,0.0,0.0,0.0,0.0,0.0,0.0,0.0,0.0,-2.8771,-2.9146,-2.9396,-2.8951,-2.8423,-2.7942,-2.746,-2.6838,-2.6036,-2.5824,-2.5826,-2.6138,-2.6237,-2.6327,-2.6497,-2.6916,-2.7191,-2.7271,-2.6924,-2.7083,-2.7731,-2.746,-2.7838,-2.8735,-2.8903,-2.943,-3.0236,-3.0874,-3.1401,-3.1889,-3.2746,-3.3401,-3.3918,-3.4194,-3.5015,-3.5995,-3.5552,-3.5821,-3.6298,-3.5631,-3.5853,-3.6472,-3.6959,-3.7575,-3.8223,-3.8711,-3.8945,-3.9052,-3.9113,-3.9264,-3.9604,-4.0294,-4.0562,-4.0911,-4.1942,-4.2184,-4.2103,-4.189,-4.2067,-4.2116,-4.1693,-4.2148,-4.2634,-4.2696,-4.2696,-4.2759,-4.2945,-4.2976,-4.3007,-4.3082,-4.3113,-4.3143,-4.3204,-4.3204,-4.3281,-4.3462,-4.3539,-4.3598,-4.3687,-4.3747,-4.3776,-4.3776,-4.3939,-4.3998,-4.3969,-4.4097,-4.4241,-4.4412,-4.4412,-4.4468,-4.4615,-4.4615,-4.4615,0.0,0.0,0.0,0.0,0.0,0.0,0.0,0.0,0.0,0.0,0.0,0.0,0.0,0.0,0.0,0.0,0.0,0.0,0.0,0.0,-2.8387,-2.862,-2.806,-2.7417,-2.681,-2.6534,-2.5974,-2.5009,-2.5114,0.0,-2.5206,-2.5553,-2.5792,-2.583,-2.6497,-2.6763,-2.6533,-2.6225,-2.6656,-2.7797,-2.7251,-2.7646,-2.8851,-2.9178,-2.9801,-3.0632,-3.1345,-3.189,-3.2355,-3.2919,-3.3623,-3.432,-3.4557,-3.5236,-3.6058,-3.5821,-3.6026,-3.6329,-3.59,-3.6342,-3.7212,-3.767,-3.8286,-3.8934,-3.9454,-3.969,-3.983,-3.9939,-4.0092,-4.0359,-4.1095,-4.1589,-4.1989,-4.2426,-4.2571,-4.2602,-4.2602,-4.2602,-4.2457,-4.2019,-4.231,-4.2634,-4.2696,-4.2696,-4.2759,-4.2945,-4.2976,-4.3007,-4.3082,-4.3052,-4.3099,-4.3204,-4.3082,-4.316,-4.3432,-4.3449,-4.3462,-4.3598,-4.3598,-4.3598,-4.3598,-4.3805,-4.3939,-4.3898,-4.4068,-4.4196,-4.431,-4.431,-4.4367,-4.4497,-4.457,-4.4733,0.0,0.0,0.0,0.0,0.0,0.0,0.0,0.0,0.0,0.0,0.0,0.0,0.0,0.0,0.0,0.0,0.0,0.0,0.0,0.0,0.0,-2.6708,-2.6152,-2.564,-2.5314,-2.5453,-2.5741,-2.611,-2.5806,-2.5576,-2.5561,-2.5123,-2.4774,-2.4555,-2.5373,-2.5843,-2.5874,-2.6129,-2.6602,-2.727,-2.7238,-2.7619,-2.8383,-2.9634,-3.0656,-3.1451,-3.2176,-3.2444,-3.2396,-3.305,-3.3704,-3.4383,-3.5094,-3.5379,-3.5505,-3.6124,-3.6393,-3.6424,-3.6408,-3.7308,-3.8507,-3.8508,-3.8981,-3.955,-3.9785,-3.9863,-3.9925,-4.0232,-4.0201,-4.0254,-4.1096,-4.185,-4.2381,-4.2381,-4.2492,-4.257,-4.257,-4.257,-4.257,-4.2586,-4.2602,-4.2665,-4.2868,-4.2899,-4.2961,-4.3082,-4.3082,-4.3096,-4.3096,-4.2992,-4.3056,-4.3375,-4.3164,-4.315,-4.3572,-4.3528,-4.3498,-4.3631,-4.3648,-4.3664,-4.3664,-4.3648,-4.3721,-4.3931,-4.3914,-4.4027,-4.4298,-4.431,-4.431,-4.4344,-4.4564,-4.5043,-1.3994,0.0,0.0,0.0,0.0,0.0,0.0,0.0,0.0,0.0,0.0,0.0,0.0,0.0,0.0,0.0,0.0,0.0,0.0,0.0,0.0,-2.5097,-2.4926,-2.4787,-2.4726,-2.4887,-2.5019,0.0,-2.517,-2.51,-2.4598,-2.4415,-2.4676,-2.5423,-2.6206,-2.6875,-2.7466,-2.7612,-2.8108,-2.886,-2.8371,-2.8499,-2.9195,-3.0105,-3.0871,-3.1582,-3.2325,-3.2892,-3.3335,-3.3397,-3.4111,-3.5047,-3.4715,-3.5236,-3.6105,-3.5789,-3.6311,-3.7117,-3.6582,-3.7308,-3.8602,-3.9076,-3.9345,-3.9692,-4.0784,-4.1085,-4.1117,-4.1214,-4.131,-4.1454,-4.1773,-4.2029,-4.2174,-4.2174,-4.1853,-4.1515,-4.1515,-4.1515,-4.1722,-4.2474,-4.2602,-4.2634,-4.2665,-4.2665,-4.2696,-4.2711,-4.2852,-4.2961,-4.2961,-4.3464,-4.3884,-4.3961,-4.4375,-4.4474,-4.4072,-4.447,-4.4614,-4.4273,-4.4702,-4.5045,-4.5202,-4.4763,-4.4527,-4.4497,-4.419,-4.4307,-4.4795,-4.4464,-4.4653,-4.5341,-4.594,-4.6295,0.0,0.0,0.0,0.0,0.0,0.0,-1.868,-1.9326,-2.005,0.0,0.0,0.0,0.0,0.0,0.0,0.0,0.0,0.0,0.0,0.0,0.0,0.0,-2.4455,-2.4479,-2.4344,-2.4702,-2.48,-2.4519,-2.5096,-2.5209,-2.4643,-2.4306,-2.4528,-2.5349,-2.6217,-2.7054,-2.7922,-2.7936,-2.8483,-2.9586,-2.8864,-2.8896,-2.9618,-3.0535,-3.1214,-3.1742,-3.2704,-3.3377,-3.3771,-3.3658,-3.433,-3.5431,-3.4948,-3.5268,-3.6011,-3.62,-3.6595,-3.7069,-3.7214,-3.8017,-3.9044,-3.9818,-4.0024,-4.0246,-4.137,-4.1736,-4.1736,-4.1736,-4.1817,-4.1898,-4.1883,-4.1964,-4.2012,-4.2012,-4.155,-4.1101,-4.1101,-4.1101,-4.1292,-4.1976,-4.2314,-4.2539,-4.2602,-4.2602,-4.2602,-4.2602,-4.2696,-4.2889,-4.3181,-4.3666,-4.4136,-4.4477,-4.487,-4.4951,-4.467,-4.4966,-4.5079,-4.4937,-4.5283,-4.5577,-4.5781,-4.5476,-4.5275,-4.5227,-4.4993,-4.51,-4.5551,-4.5035,-4.5255,-4.6177,-4.6599,-4.6955,0.0,0.0,0.0,0.0,0.0,0.0,-1.9358,-1.989,-2.0276,-2.1662,-2.2355,0.0,0.0,0.0,0.0,0.0,0.0,0.0,0.0,0.0,0.0,0.0,0.0,-2.4369,-2.4005,-2.4585,-2.4849,-2.4519,-2.5189,-2.5456,-2.516,-2.4578,-2.4468,-2.4965,-2.5909,-2.6878,-2.7812,-2.7654,-2.827,-2.9659,-2.9096,-2.916,-2.9836,-3.1023,-3.1638,-3.1854,-3.3162,-3.3723,-3.3761,-3.3739,-3.4463,-3.5574,-3.5355,-3.541,-3.5774,-3.7051,-3.718,-3.6914,-3.8191,-3.906,-3.9755,-4.0547,-4.0769,-4.0912,-4.1643,-4.1866,-4.1866,-4.1866,-4.1866,-4.1833,-4.167,-4.1736,-4.1866,-4.1866,-4.1374,-4.0926,-4.1022,-4.0974,-4.1037,-4.1385,-4.1979,-4.2461,-4.2668,-4.2651,-4.2635,-4.2699,-4.2716,-4.2991,-4.3735,-4.3897,-4.4237,-4.5,-4.5064,-4.513,-4.5326,-4.5261,-4.531,-4.5565,-4.5679,-4.5824,-4.6046,-4.5963,-4.5976,-4.6098,-4.6129,-4.6224,-4.6427,-4.5891,-4.6069,-4.6874,-4.7005,-4.7394,0.0,0.0,0.0,0.0,0.0,0.0,-1.7098,-1.8004,-1.9012,0.0,0.0,0.0,0.0,0.0,0.0,0.0,0.0,0.0,0.0,0.0,0.0,0.0,0.0,-2.3378,-2.3305,-2.3893,-2.4355,-2.4508,-2.4341,-2.4418,-2.4775,-2.461,-2.5007,-2.6033,-2.6746,-2.7597,-2.8654,-2.8621,-2.8921,-2.9541,-3.0055,-3.0305,-3.0389,-3.1863,-3.2183,-3.171,-3.3212,-3.3501,-3.2969,-3.3581,-3.4542,-3.5526,-3.4786,-3.5581,-3.713,-3.7415,-3.8081,-3.8934,-3.9218,-3.9787,-4.0403,-4.0578,-4.0657,-4.0784,-4.1464,-4.167,-4.167,-4.167,-4.167,-4.167,-4.1621,-4.1621,-4.167,-4.167,-4.0721,-3.9961,-4.0563,-4.0214,-4.0214,-4.1533,-4.211,-4.259,-4.317,-4.2879,-4.2797,-4.3379,-4.3508,-4.3767,-4.448,-4.5063,-4.5451,-4.5614,-4.6149,-4.6279,-4.5762,-4.6199,-4.6432,-4.6225,-4.6783,-4.7243,-4.757,-4.699,-4.6707,-4.6707,-4.6882,-4.7056,-4.7194,-4.7197,-4.7272,-4.7454,-4.823,-4.8663,0.0,0.0,0.0,-1.8314,0.0,0.0,0.0,-1.8007,-1.8393,-1.8569,0.0,0.0,0.0,0.0,0.0,0.0,0.0,0.0,0.0,0.0,0.0,0.0,0.0,-2.1577,-2.1784,-2.2437,-2.3297,-2.4422,-2.3789,-2.3898,-2.5195,-2.4897,-2.5038,-2.5775,-2.6537,-2.7108,-2.7458,-2.7596,-2.792,-2.8456,-2.9357,-2.9705,-2.9643,-3.1203,-3.1556,-3.1079,-3.2483,-3.2949,-3.2784,-3.379,-3.4739,-3.557,-3.5106,-3.5767,-3.7085,-3.8112,-3.8713,-3.9155,-4.0182,-4.0561,-4.0656,-4.1101,-4.1007,-4.0832,-4.1546,-4.1752,-4.1768,-4.1818,-4.1851,-4.1851,-4.1851,-4.1801,-4.1752,-4.1752,-4.0879,-4.0245,-4.0941,-4.0798,-4.1005,-4.2495,-4.2998,-4.3375,-4.3844,-4.3734,-4.3703,-4.4188,-4.4253,-4.4496,-4.5208,-4.5597,-4.5937,-4.6309,-4.6666,-4.673,-4.6374,-4.6682,-4.6918,-4.6962,-4.7307,-4.7637,-4.8001,-4.7653,-4.7454,-4.7454,-4.7568,-4.7615,-4.7711,-4.7836,-4.7994,-4.8214,-4.874,-4.9001,0.0,0.0,0.0,0.0,0.0,-1.845,0.0,0.0,0.0,0.0,0.0,0.0,0.0,0.0,0.0,0.0,0.0,0.0,0.0,0.0,0.0,0.0,0.0,-1.9969,-2.0323,-2.0905,-2.2055,-2.3969,-2.3094,-2.3427,-2.5651,-2.5183,-2.5014,-2.5383,-2.6158,-2.6378,-2.6009,-2.6313,-2.6757,-2.7365,-2.8451,-2.8895,-2.8887,-3.0353,-3.0754,-3.0363,-3.1725,-3.2349,-3.2483,-3.3927,-3.4938,-3.5562,-3.5689,-3.6175,-3.7008,-3.8839,-3.925,-3.9171,-4.0972,-4.1273,-4.0958,-4.161,-4.1468,-4.1119,-4.1723,-4.1931,-4.1947,-4.2093,-4.2109,-4.2077,-4.2093,-4.198,-4.1898,-4.1866,-4.1196,-4.0814,-4.1636,-4.1683,-4.2047,-4.3576,-4.4015,-4.4222,-4.4547,-4.4536,-4.4588,-4.4915,-4.4998,-4.5241,-4.5921,-4.6002,-4.6228,-4.6828,-4.6876,-4.6876,-4.6876,-4.6876,-4.7064,-4.747,-4.752,-4.7637,-4.8001,-4.8001,-4.8001,-4.8001,-4.8001,-4.8001,-4.8001,-4.813,-4.8373,-4.8675,-4.8832,-4.8909,0.0,0.0,0.0,0.0,-2.0223,0.0,0.0,0.0,-1.8067,-1.6842,0.0,0.0,0.0,0.0,0.0,0.0,0.0,0.0,0.0,0.0,0.0,0.0,0.0,-1.9677,-1.9788,-1.9981,-2.0833,-2.258,-2.1773,-2.2503,-2.5445,-2.5271,-2.538,-2.6051,-2.6303,-2.6288,-2.5994,-2.6492,-2.6912,-2.724,-2.8788,-2.9441,-2.9373,-3.0607,-3.0698,-2.9977,-3.1725,-3.1987,-3.1385,-3.372,-3.4966,-3.547,-3.6074,-3.7117,-3.8381,-3.9187,-3.9866,-4.0482,-4.1304,-4.1655,-4.1738,-4.1638,-4.1688,-4.1803,-4.1882,-4.198,-4.2077,-4.2109,-4.2109,-4.2077,-4.1947,-4.1898,-4.1866,-4.167,-4.1115,-4.0956,-4.2284,-4.2047,-4.2189,-4.4211,-4.4591,-4.4712,-4.4922,-4.4721,-4.4731,-4.5409,-4.5609,-4.5953,-4.6666,-4.6763,-4.6795,-4.6911,-4.6876,-4.6876,-4.6876,-4.6876,-4.7064,-4.747,-4.752,-4.7637,-4.8001,-4.8001,-4.8001,-4.8001,-4.8001,-4.8001,-4.8001,-4.813,-4.8227,-4.826,-4.8452,-4.8658,0.0,0.0,0.0,0.0,0.0,0.0,-1.7618,0.0,-1.7897,0.0,0.0,0.0,0.0,0.0,0.0,0.0,0.0,0.0,0.0,0.0,0.0,0.0,0.0,0.0,-1.9695,-1.9584,-2.0166,-2.1972,-2.1701,-2.235,-2.4393,-2.4805,-2.499,-2.4969,-2.5073,-2.4951,-2.4552,-2.5159,-2.5612,-2.5938,-2.7707,-2.8494,-2.8399,-2.9689,-2.9889,-2.9302,-3.0935,-3.1672,-3.1931,-3.4175,-3.5221,-3.5505,-3.6611,-3.7638,-3.8539,-3.8823,-3.9645,-4.0704,-4.1367,-4.167,-4.1703,-4.1621,-4.167,-4.1752,-4.1866,-4.1931,-4.2012,-4.2077,-4.2109,-4.2077,-4.2029,-4.1947,-4.1977,-4.2276,-4.2066,-4.2189,-4.3564,-4.3627,-4.3785,-4.5096,-4.5349,-4.5349,-4.5457,-4.5521,-4.5688,-4.6132,-4.6336,-4.6536,-4.6878,-4.6876,-4.6876,-4.6876,-4.6876,-4.6876,-4.6876,-4.6876,-4.703,-4.7301,-4.7521,-4.7721,-4.8001,-4.8001,-4.8001,-4.8001,-4.8001,-4.8001,-4.8001,-4.8066,-4.8082,-4.8082,-4.8356,-4.8564,-2.2277,0.0,0.0,0.0,0.0,0.0,0.0,0.0,0.0,0.0,0.0,0.0,0.0,0.0,0.0,0.0,0.0,0.0,0.0,0.0,0.0,0.0,0.0,0.0,0.0,-1.8914,-1.932,-2.1153,-2.1002,-2.1737,-2.3832,-2.4197,-2.4369,-2.4403,-2.4267,-2.3992,-2.3516,-2.4335,-2.4872,-2.5116,-2.6892,-2.7685,-2.764,-2.8815,-2.9078,-2.8777,-3.0411,-3.1552,-3.2449,-3.458,-3.5435,-3.5561,-3.6751,-3.7733,-3.8508,-3.8713,-3.9424,-4.0419,-4.1288,-4.1588,-4.1621,-4.167,-4.167,-4.1703,-4.1866,-4.1931,-4.198,-4.2077,-4.2109,-4.2077,-4.2061,-4.198,-4.204,-4.269,-4.2764,-4.3058,-4.4417,-4.4717,-4.4938,-4.5665,-4.5807,-4.5807,-4.5807,-4.6044,-4.6314,-4.6493,-4.6703,-4.6842,-4.6876,-4.6876,-4.6876,-4.6876,-4.6876,-4.6876,-4.6876,-4.6876,-4.6996,-4.7183,-4.7487,-4.7721,-4.7886,-4.7935,-4.7935,-4.8001,-4.8001,-4.8001,-4.8001,-4.8001,-4.8001,-4.8001,-4.8244,-4.8388,0.0,0.0,0.0,-2.0053,0.0,0.0,0.0,0.0,-1.7698,0.0,0.0,0.0,0.0,0.0,0.0,0.0,0.0,0.0,0.0,0.0,0.0,0.0,0.0,0.0,0.0,-1.7647,-1.8017,-1.9823,-1.8939,-2.0139,-2.434,-2.3542,-2.3626,-2.5129,-2.4526,-2.3999,-2.361,-2.4774,-2.5381,-2.5402,-2.6882,-2.7585,-2.7625,-2.8323,-2.8556,-2.8521,-3.0534,-3.1727,-3.2475,-3.4673,-3.5602,-3.5653,-3.6197,-3.7277,-3.8602,-3.9234,-3.9503,-3.974,-4.1114,-4.1588,-4.1621,-4.1833,-4.1898,-4.1898,-4.1898,-4.198,-4.2077,-4.2109,-4.2109,-4.2093,-4.1931,-4.1898,-4.2056,-4.2588,-4.2679,-4.3058,-4.4417,-4.4717,-4.4938,-4.5665,-4.5807,-4.5807,-4.5807,-4.5952,-4.6168,-4.6298,-4.6493,-4.6687,-4.6876,-4.6876,-4.6876,-4.6876,-4.6876,-4.6876,-4.6876,-4.6876,-4.6996,-4.7183,-4.7403,-4.7571,-4.7704,-4.7704,-4.7787,-4.8001,-4.8001,-4.8001,-4.8001,-4.8001,-4.8001,-4.8001,-4.8001,-4.8082,0.0,0.0,-2.2201,-2.0886,0.0,0.0,0.0,0.0,0.0,0.0,0.0,0.0,0.0,0.0,0.0,0.0,0.0,0.0,0.0,0.0,0.0,0.0,0.0,0.0,0.0,0.0,0.0,-1.8075,-1.8993,-2.0302,-2.2127,-2.2826,-2.3399,-2.3924,-2.3807,-2.3696,-2.3595,-2.4896,-2.5482,-2.5426,-2.6995,-2.774,-2.7765,-2.8162,-2.8602,-2.9175,-3.1036,-3.2499,-3.3644,-3.5502,-3.6253,-3.6352,-3.7397,-3.7812,-3.7907,-3.8602,-3.9708,-4.0956,-4.1415,-4.1588,-4.1621,-4.167,-4.1703,-4.1703,-4.1703,-4.1736,-4.1785,-4.1785,-4.1785,-4.1864,-4.2305,-4.2432,-4.2683,-4.3753,-4.4022,-4.429,-4.5238,-4.5444,-4.5507,-4.576,-4.5807,-4.5807,-4.5807,-4.5844,-4.5952,-4.6132,-4.6314,-4.6439,-4.6509,-4.6509,-4.6528,-4.6703,-4.6687,-4.6772,-4.6892,-4.6876,-4.6996,-4.7183,-4.7251,-4.7386,-4.7571,-4.7571,-4.7621,-4.7787,-4.782,-4.7853,-4.8001,-4.8001,-4.8001,-4.8001,-4.8001,-4.8033,-2.3282,-2.2965,0.0,-2.1293,-2.0971,0.0,-1.9195,0.0,0.0,0.0,0.0,0.0,0.0,0.0,0.0,0.0,0.0,0.0,0.0,0.0,0.0,0.0,0.0,0.0,0.0,0.0,-1.7071,-1.7576,-1.8826,-2.0133,0.0,-2.2472,-2.3223,-2.3681,-2.3592,-2.3686,-2.4019,-2.516,-2.5813,-2.5967,-2.7263,-2.784,-2.7831,-2.8332,-2.9029,-2.9954,-3.1742,-3.3361,-3.4802,-3.6182,-3.6761,-3.6819,-3.8088,-3.8344,-3.8134,-3.8979,-4.0341,-4.1703,-4.1621,-4.1588,-4.1588,-4.1588,-4.1588,-4.1588,-4.1588,-4.1588,-4.1588,-4.1588,-4.1588,-4.1762,-4.2505,-4.2695,-4.3026,-4.4385,-4.4717,-4.4907,-4.5649,-4.5807,-4.5807,-4.5807,-4.5807,-4.5807,-4.5807,-4.5807,-4.588,-4.6076,-4.6152,-4.6243,-4.6298,-4.6298,-4.6333,-4.6493,-4.6563,-4.6687,-4.6876,-4.6876,-4.6961,-4.7098,-4.7098,-4.7183,-4.7403,-4.7403,-4.7618,-4.8083,-4.7836,-4.8068,-4.8796,-4.8531,-4.8398,-4.8398,-4.8398,-4.8249]},{"header":{"parameterUnit":"m.s-1","parameterCategory":1,"la1":30.6,"la2":29.2853,"lo1":-89.7004,"lo2":-87.6739,"dy":0.0162,"dx":0.0183,"nx":112,"ny":82,"refTime":"2023-03-23T06:00:00:Z","depth":0,"parameterNumber":3,"parameterNumberName":"V-component_of_WINDS"},"data":[0.0,0.0,0.0,0.0,0.0,0.0,0.0,0.0,0.0,0.0,0.0,0.0,0.0,0.0,0.0,0.0,0.0,0.0,0.0,0.0,0.0,0.0,0.0,0.0,0.0,0.0,0.0,0.0,0.0,0.0,0.0,0.0,0.0,0.0,0.0,0.0,0.0,0.0,0.0,0.0,0.0,0.0,0.0,0.0,0.0,0.0,0.0,0.0,0.0,0.0,0.0,0.0,0.0,0.0,0.0,0.0,0.0,0.0,0.0,0.0,0.0,0.0,0.0,0.0,0.0,0.0,0.0,0.0,0.0,0.0,0.0,0.0,0.0,0.0,0.0,0.0,0.0,0.0,0.0,0.0,0.0,0.0,0.0,0.0,0.0,0.0,0.0,0.0,0.0,0.0,0.1006,0.259,0.4232,0.5704,0.6885,0.8067,0.8324,0.7368,0.0,0.0,0.0,0.0,0.0,0.0,0.0,0.0,0.0,0.0,0.0,0.0,0.0,0.0,0.0,0.0,0.0,0.0,0.0,0.0,0.0,0.0,0.0,0.0,0.0,0.0,0.0,0.0,0.0,0.0,0.0,0.0,0.0,0.0,0.0,0.0,0.0,0.0,0.0,0.0,0.0,0.0,0.0,0.0,0.0,0.0,0.0,0.0,0.0,0.0,0.0,0.0,0.0,0.0,0.0,0.0,0.0,0.0,0.0,0.0,0.0,0.0,0.0,0.0,0.0,0.0,0.0,0.0,0.0,0.0,0.0,0.0,0.0,0.0,0.0,0.0,0.0,0.0,0.0,0.0,0.0,0.0,0.0,0.0,0.0,0.0,0.0,0.0,0.0,0.0,0.0,0.0,0.0,0.0,0.0,0.0,0.0,0.0,0.0,0.0,0.0,0.0,0.0,0.0,0.131,0.3688,0.4744,0.5379,0.5578,0.5995,0.6432,0.6864,0.0,0.0,0.0,0.0,0.0,0.0,0.0,0.0,0.0,0.0,0.0,0.0,0.0,0.0,0.0,0.0,0.0,0.0,0.0,0.0,0.0,0.0,0.0,0.0,0.0,0.0,0.0,0.0,0.0,0.0,0.0,0.0,0.0,0.0,0.0,0.0,0.0,0.0,0.0,0.0,0.0,0.0,0.0,0.0,0.0,0.0,0.0,0.0,0.0,0.0,0.0,0.0,0.0,0.0,0.0,0.0,0.0,0.0,0.0,0.0,0.0,0.0,0.0,0.0,0.0,0.0,0.0,0.0,0.0,0.0,0.0,0.0,0.0,0.0,0.0,0.0,0.0,0.0,0.0,0.0,0.0,0.0,0.0,0.0,0.0,0.0,0.0,0.0,0.0,0.0,0.0,0.0,0.0,0.0,0.0,0.0,0.0,0.0,0.0,0.0,0.0,0.0,0.0,0.1003,0.2039,0.3499,0.4253,0.4672,0.4704,0.5291,0.5946,0.6649,0.6772,0.0,0.0,0.0,0.0,0.0,0.0,0.0,0.0,0.0,0.0,0.0,0.0,0.0,0.0,0.0,0.0,0.0,0.0,0.0,0.0,0.0,0.0,0.0,0.0,0.0,0.0,0.0,0.0,0.0,0.0,0.0,0.0,0.0,0.0,0.0,0.0,0.0,0.0,0.0,0.0,0.0,0.0,0.0,0.0,0.0,0.0,0.0,0.0,0.0,0.0,0.0,0.0,0.0,0.0,0.0,0.0,0.0,0.0,0.0,0.0,0.0,0.0,0.0,0.0,0.0,0.0,0.0,0.0,0.0,0.0,0.0,0.0,0.0,0.0,0.0,0.0,0.0,0.0,0.0,0.0,0.0,0.0,0.0,0.0,0.0,0.0,0.0,0.0,0.0,0.0,0.0,0.0,0.0,0.0,0.0,0.0,0.0,0.0,0.0,0.0,0.0,0.0,0.1779,0.2522,0.3091,0.3692,0.4139,0.4362,0.4959,0.5735,0.67,0.612,0.0,0.0,0.0,0.0,0.0,0.0,0.0,0.0,0.0,0.0,0.0,0.0,0.0,0.0,0.0,0.0,0.0,0.0,0.0,0.0,0.0,0.0,0.0,0.0,0.0,0.0,0.0,0.0,0.0,0.0,0.0,0.0,0.0,0.0,0.0,0.0,0.0,0.0,0.0,0.0,0.0,0.0,0.0,0.0,0.0,0.0,0.0,0.0,0.0,0.0,0.0,0.0,0.0,0.0,0.0,0.0,0.0,0.0,0.0,0.0,0.0,0.0,0.0,0.0,0.0,0.0,0.0,0.0,0.0,0.0,0.0,0.0,0.0,0.0,0.0,0.0,0.0,0.0,0.0,0.0,0.0,0.0,0.0,0.0,0.0,0.0,0.0,0.0,0.0,0.0,0.0,0.0,0.0,0.0,0.0,0.0,0.0,0.0,0.0,0.0,0.0,0.0,0.1416,0.2277,0.2936,0.3555,0.4201,0.4887,0.466,0.528,0.7125,0.6222,0.0,0.0,0.0,0.0,0.0,0.0,0.0,0.0,0.0,0.0,0.0,0.0,0.0,0.0,0.0,0.0,0.0,0.0,0.0,0.0,0.0,0.0,0.0,0.0,0.0,0.0,0.0,0.0,0.0,0.0,0.0,0.0,0.0,0.0,0.0,0.0,0.0,0.0,0.0,0.0,0.0,0.0,0.0,0.0,0.0,0.0,0.0,0.0,0.0,0.0,0.0,0.0,0.0,0.0,0.0,0.0,0.0,0.0,0.0,0.0,0.0,0.0,0.0,0.0,0.0,0.0,0.0,0.0,0.0,0.0,0.0,0.0,0.0,0.0,0.0,0.0,0.0,0.0,0.0,0.0,0.0,0.0,0.0,0.0,0.0,0.0,0.0,0.0,0.0,0.0,0.0,0.0,0.0,0.0,0.0,0.0,0.0,0.0,0.0,0.0,0.0,0.0,0.1525,0.2211,0.0,0.3872,0.461,0.4963,0.5285,0.5939,0.705,0.0,0.0,0.0,0.0,0.0,0.0,0.0,0.0,0.0,0.0,0.0,0.0,0.0,0.0,0.0,0.0,0.0,0.0,0.0,0.0,0.0,0.0,0.0,0.0,0.0,0.0,0.0,0.0,0.0,0.0,0.0,0.0,0.0,0.0,0.0,0.0,0.0,0.0,0.0,0.0,0.0,0.0,0.0,0.0,0.0,0.0,0.0,0.0,0.0,0.0,0.0,0.0,0.0,0.0,0.0,0.0,0.0,0.0,0.0,0.0,0.0,0.0,0.0,0.0,0.0,0.0,0.0,0.0,0.0,0.0,0.0,0.0,0.0,0.0,0.0,0.0,0.0,0.0,0.0,0.0,0.0,0.0,0.0,0.0,0.0,0.0,0.0,0.0,0.0,0.0,0.0,0.0,0.0,0.0,0.0,0.0,0.0,0.0,0.0,0.0,0.0,0.0,0.1232,0.1784,0.236,0.0,0.4194,0.4901,0.493,0.5742,0.6464,0.6945,0.0,0.0,0.0,0.0,0.0,0.0,0.0,0.0,0.0,0.0,0.0,0.0,0.0,0.0,0.0,0.0,0.0,0.0,0.0,0.0,0.0,0.0,0.0,0.0,0.0,0.0,0.0,0.0,0.0,0.0,0.0,0.0,0.0,0.0,0.0,0.0,0.0,0.0,0.0,0.0,0.0,0.0,0.0,0.0,0.0,0.0,0.0,0.0,0.0,0.0,0.0,0.0,0.0,0.0,0.0,0.0,0.0,0.0,0.0,0.0,0.0,0.0,0.0,0.0,0.0,0.0,0.0,0.0,0.0,0.0,0.0,0.0,0.0,0.0,0.0,0.0,0.0,0.0,0.0,0.0,0.0,0.0,0.0,0.0,0.0,0.0,0.0,0.0,0.0,0.0,0.0,0.0,0.0,0.0,0.0,0.0,0.0,0.0,0.0,0.0,0.0,0.0,0.1614,0.2172,0.2726,0.3343,0.4425,0.5022,0.4828,0.5918,0.6685,0.0,0.0,0.0,0.0,0.0,0.0,0.0,0.0,0.0,0.0,0.0,0.0,0.0,0.0,0.0,0.0,0.0,0.0,0.0,0.0,0.0,0.0,0.0,0.0,0.0,0.0,0.0,0.0,0.0,0.0,0.0,0.0,0.0,0.0,0.0,0.0,0.0,0.0,0.0,0.0,0.0,0.0,0.0,0.0,0.0,0.0,0.0,0.0,0.0,0.0,0.0,0.0,0.0,0.0,0.0,0.0,0.0,0.0,0.0,0.0,0.0,0.0,0.0,0.0,0.0,0.0,0.0,0.0,0.0,0.0,0.0,0.0,0.0,0.0,0.0,0.0,0.0,0.0,0.0,0.0,0.0,0.0,0.0,0.0,0.0,0.0,0.0,0.0,0.0,0.0,0.0,0.0,0.0,0.0,0.0,0.0,0.0,0.0,0.0,0.0,0.0,0.0,0.0,0.1997,0.2344,0.2821,0.3658,0.4474,0.52,0.5808,0.6403,0.7002,0.7639,0.0,0.0,0.0,0.0,0.0,0.0,0.0,0.0,0.0,0.0,0.0,0.0,0.0,0.0,0.0,0.0,0.0,0.0,0.0,0.0,0.0,0.0,0.0,0.0,0.0,0.0,0.0,0.0,0.0,0.0,0.0,0.0,0.0,0.0,0.0,0.0,0.0,0.0,0.0,0.0,0.0,0.0,0.0,0.0,0.0,0.0,0.0,0.0,0.0,0.0,0.0,0.0,0.0,0.0,0.0,0.0,0.0,0.0,0.0,0.0,0.0,0.0,0.0,0.0,0.0,0.0,0.0,0.0,0.0,0.0,0.0,0.0,0.0,0.0,0.0,0.0,0.0,0.0,0.0,0.0,0.0,0.0,0.0,0.0,0.0,0.0,0.0,0.0,0.0,0.0,0.0,0.0,0.0,0.0,0.0,0.0,0.0,0.0,0.0,0.0,0.0,0.0,0.2507,0.2715,0.3081,0.3857,0.4562,0.5208,0.5774,0.6467,0.7028,0.738,0.0,0.0,0.0,0.0,0.0,0.0,0.0,0.0,0.0,0.0,0.0,0.0,0.0,0.0,0.0,0.0,0.0,0.0,0.0,0.0,0.0,0.0,0.0,0.0,0.0,0.0,0.0,0.0,0.0,0.0,0.0,0.0,0.0,0.0,0.0,0.0,0.0,0.0,0.0,0.0,0.0,0.0,0.0,0.0,0.0,0.0,0.0,0.0,0.0,0.0,0.0,0.0,0.0,0.0,0.0,0.0,0.0,0.0,0.0,0.0,0.0,0.0,0.0,0.0,0.0,0.0,0.0,0.0,0.0,0.0,0.0,0.0,0.0,0.0,0.0,0.0,0.0,0.0,0.0,0.0,0.0,0.0,0.0,0.0,0.0,0.0,0.0,0.0,0.0,0.0,0.0,0.0,0.0,0.0,0.0,0.0,0.0,0.0,0.0,0.0,0.0,0.0,0.3072,0.3177,0.3407,0.3999,0.4662,0.5107,0.5222,0.6301,0.6882,0.6682,0.0,0.0,0.0,0.0,0.0,0.0,0.0,0.0,0.0,0.0,0.0,0.0,0.0,0.0,0.0,0.0,0.0,0.0,0.0,0.0,0.0,0.0,0.0,0.0,0.0,0.0,0.0,0.0,0.0,0.0,0.0,0.0,0.0,0.0,0.0,0.0,0.0,0.0,0.0,0.0,0.0,0.0,0.0,0.0,0.0,0.0,0.0,0.0,0.0,0.0,0.0,0.0,0.0,0.0,0.0,0.0,0.0,0.0,0.0,0.0,1.0101,0.0,0.0,0.0,0.0,0.0,0.0,0.0,0.0,0.0,0.0,0.0,0.0,0.0,0.0,0.0,0.0,0.0,0.0,0.0,0.0,0.0,0.0,0.0,0.0,0.0,0.0,0.0,0.0,0.0,0.0,0.0,0.0,0.0,0.0,0.0,0.0,0.0,0.0,0.0,0.0,0.0,0.3448,0.3307,0.3465,0.4379,0.4659,0.5169,0.6115,0.6547,0.7102,0.7866,0.8053,0.0,0.0,0.0,0.0,0.0,0.0,0.0,0.0,0.0,0.0,0.0,0.0,0.0,0.0,0.0,0.0,0.0,0.0,0.0,0.0,0.0,0.0,0.0,0.0,0.0,0.0,0.0,0.0,0.0,0.0,0.0,0.0,0.0,0.0,0.0,0.0,0.0,0.0,0.0,0.0,0.0,0.0,0.0,0.0,0.0,0.0,0.0,0.0,0.0,0.0,0.0,0.0,0.0,0.0,0.0,0.0,0.0,0.0,0.0,0.0,1.07,0.0,0.0,0.0,0.0,0.0,0.0,0.0,0.0,0.0,0.0,0.0,0.0,0.0,0.0,0.0,0.0,0.0,0.0,0.0,0.0,0.0,0.0,0.0,0.0,0.0,0.0,0.0,0.0,0.0,0.0,0.0,0.0,0.0,0.0,0.0,0.0,0.0,0.0,0.0,0.0,0.3774,0.3487,0.3463,0.4019,0.4102,0.4513,0.5452,0.5696,0.6557,0.8371,0.7845,0.0,0.0,0.0,0.0,0.0,0.0,0.0,0.0,0.0,0.0,0.0,0.0,0.0,0.0,0.0,0.0,0.0,0.0,0.0,0.0,0.0,0.0,0.0,0.0,0.0,0.0,0.0,0.0,0.0,0.0,0.0,0.0,0.0,0.0,0.0,0.0,0.0,0.0,0.0,0.0,0.0,0.0,0.0,0.0,0.0,0.0,0.0,0.0,0.0,0.0,0.0,0.0,0.0,1.2904,1.2966,1.254,1.3001,1.3011,1.2571,1.2058,1.1726,1.1541,1.0905,0.0,0.0,0.0,0.0,0.0,0.0,0.0,0.0,0.0,0.0,0.0,0.0,0.0,0.0,0.0,0.0,0.0,0.0,0.0,0.0,0.0,0.0,0.0,0.0,0.8017,0.8167,0.7644,0.0,0.0,0.0,0.0,0.0,0.0,0.0,0.0,0.0,0.0,0.0,0.401,0.3674,0.3451,0.3512,0.3574,0.3828,0.4385,0.4811,0.5961,0.8099,0.7397,0.7251,0.0,0.0,0.0,0.0,0.0,0.0,0.0,0.0,0.0,0.0,0.0,0.0,0.0,0.0,0.0,0.0,0.0,0.0,0.0,0.0,0.0,0.0,0.0,0.0,0.0,0.0,0.0,0.0,0.0,0.0,0.0,0.0,1.268,1.1481,0.0,0.0,0.0,0.0,0.0,0.0,0.0,0.0,0.0,0.0,0.0,0.0,0.0,0.8749,1.0477,1.0536,1.0855,1.1467,1.207,1.2578,1.3022,1.3483,1.3614,1.3447,1.3478,0.0,1.1836,1.0547,0.0,0.0,0.0,0.0,0.0,0.0,0.0,0.0,0.0,0.0,0.0,0.0,0.0,0.0,0.0,0.0,0.0,0.0,0.0,0.0,0.0,0.0,0.7896,0.7813,0.7668,0.7621,0.0,0.8307,0.8527,0.8335,0.7725,0.0,0.0,0.0,0.0,0.0,0.0,0.0,0.4102,0.3781,0.3576,0.3586,0.3853,0.4057,0.4142,0.5304,0.6114,0.6337,0.6487,0.6825,0.7387,0.7033,0.0,0.0,0.0,0.0,0.0,0.0,0.0,0.0,0.0,0.0,0.0,0.0,0.0,0.0,0.0,0.0,0.0,0.0,0.0,0.0,0.0,0.0,0.0,0.0,0.0,0.0,0.0,0.0,0.0,1.2188,1.2066,1.1182,1.1359,1.1095,0.0,0.0,0.0,0.0,0.0,0.0,0.0,0.0,0.0,0.8186,0.8398,0.937,1.1211,1.1262,1.1692,1.248,1.3287,1.3669,1.3686,1.4656,1.4651,1.3891,1.4223,1.3586,1.2265,1.1302,1.0724,1.0352,0.0,0.0,0.0,0.0,0.8372,0.842,0.8303,0.8316,0.8467,0.887,0.0,0.0,0.0,0.0,0.0,0.0,0.0,0.0,0.0,0.0,0.8147,0.7781,0.8033,0.8357,0.8379,0.8731,0.8884,0.0,0.8249,0.8092,0.7578,0.0,0.0,0.0,0.0,0.4708,0.4321,0.394,0.3667,0.3558,0.371,0.3673,0.3289,0.4238,0.4903,0.5037,0.5281,0.5705,0.6314,0.6314,0.6658,0.0,0.0,0.0,0.0,0.0,0.0,0.0,0.0,0.0,0.0,0.0,0.0,0.0,0.0,0.0,0.0,0.0,0.0,0.0,0.0,0.0,0.0,0.0,0.0,0.0,0.0,0.0,0.0,1.191,1.1713,1.1198,1.1443,1.1152,0.0,0.0,0.0,0.0,0.0,0.0,0.6823,0.7305,0.7808,0.8261,0.8843,0.9962,1.1657,1.1916,1.2536,1.3501,1.4254,1.455,1.4471,1.5398,1.5256,1.4236,1.453,1.3892,1.2613,1.1858,1.1226,1.0655,0.9992,0.9502,0.9132,0.8798,0.8743,0.8829,0.8801,0.8933,0.9133,0.9429,0.9942,1.0397,1.0216,0.0,0.0,0.0,0.0,0.8906,0.8134,0.8389,0.8742,0.8252,0.8647,0.9104,0.9042,0.9312,0.9301,0.0,0.8553,0.8551,0.7941,0.0,0.0,0.0,0.0,0.5289,0.4606,0.4289,0.3976,0.3546,0.3574,0.3351,0.2677,0.3335,0.3822,0.3927,0.424,0.4632,0.5123,0.554,0.5902,0.6221,0.0,0.0,0.0,0.0,0.0,0.0,0.0,0.0,0.0,0.0,0.0,0.0,0.0,0.0,0.0,0.0,0.0,0.0,0.0,0.0,0.0,0.0,0.0,0.0,0.0,0.0,0.0,0.0,0.0,1.1793,1.1665,0.0,0.0,0.0,0.0,0.8052,0.7397,0.7137,0.7343,0.7338,0.7596,0.8187,0.8898,0.9858,1.104,1.1997,1.2879,1.3689,1.3978,1.4552,1.5341,1.5147,1.4889,1.4552,1.4327,1.3714,1.2802,1.1628,1.0991,1.0708,0.9706,0.946,0.9632,0.9282,0.9171,0.917,0.9096,0.9045,0.9107,0.9689,1.0416,1.1195,1.2006,1.1479,0.0,0.0,1.0037,0.953,0.9417,0.9466,0.9548,0.9582,0.9394,0.9382,1.0078,1.0229,0.9999,0.0,0.8626,0.8409,0.8694,0.0,0.7292,0.708,0.6698,0.6061,0.5009,0.4969,0.4632,0.3605,0.3617,0.3426,0.275,0.3313,0.3493,0.2998,0.3579,0.3921,0.3897,0.4158,0.4854,0.5993,0.6583,0.0,0.0,0.0,0.0,0.0,0.0,0.0,0.0,0.0,0.0,0.0,0.0,0.0,0.0,0.0,0.0,0.0,0.0,0.0,0.0,0.0,0.0,0.0,0.0,0.0,0.0,0.0,0.0,1.1451,1.1834,0.0,1.0417,0.9808,0.927,0.8745,0.8078,0.7694,0.7652,0.7709,0.8208,0.9191,0.9739,1.0855,1.2579,1.2913,1.3488,1.4344,1.4321,1.4659,1.5338,1.5176,1.4944,1.4582,1.431,1.3698,1.2803,1.1637,1.1168,1.1101,1.0124,0.9751,0.9754,0.9576,0.9463,0.9406,0.946,0.9469,0.9573,1.041,1.0945,1.1348,1.1706,1.1336,1.0666,1.0279,0.979,0.9399,0.9365,0.9359,0.9359,0.9432,0.9616,0.9793,0.9844,1.0252,1.0435,0.9827,0.9569,0.9379,0.9102,0.8413,0.7835,0.7591,0.706,0.6424,0.5644,0.5249,0.4888,0.4502,0.4163,0.3703,0.3071,0.3473,0.3483,0.2809,0.3278,0.3526,0.3424,0.375,0.4143,0.4574,0.5576,0.6606,0.0,0.0,0.0,0.0,0.0,0.0,0.0,0.0,0.0,0.0,0.0,0.0,0.0,0.0,0.0,0.0,0.0,0.0,0.0,0.0,0.0,0.0,0.0,0.0,0.0,0.0,1.2934,1.2076,1.2394,1.2358,1.159,1.0759,1.0125,0.9734,0.9221,0.8792,0.8499,0.8701,0.9169,0.9966,1.0622,1.1858,1.3675,1.402,1.4564,1.5357,1.5121,1.5242,1.5615,1.5408,1.5021,1.4513,1.4257,1.3646,1.2764,1.163,1.1233,1.1213,1.0282,0.9862,0.9753,0.9663,0.9603,0.9583,0.9693,0.9865,1.0115,1.083,1.1244,1.1478,1.1623,1.1297,1.0792,1.0415,0.9996,0.9647,0.9647,0.9774,0.9902,0.9902,1.0309,1.0623,1.0409,1.0655,1.0794,1.0429,1.0118,0.983,0.9497,0.882,0.8368,0.8461,0.775,0.705,0.6593,0.5856,0.5287,0.5054,0.4505,0.3945,0.3414,0.3508,0.335,0.2765,0.2878,0.3033,0.3197,0.3677,0.403,0.423,0.5561,0.7006,0.856,0.0,0.0,0.0,0.0,0.0,0.0,0.0,0.0,0.0,0.0,0.0,0.0,0.0,0.0,0.0,0.0,0.0,0.0,0.0,0.0,0.0,0.0,0.0,1.3414,1.3421,1.3632,1.3706,1.3301,1.2945,1.2698,1.1902,1.1268,1.0935,1.0681,1.0306,0.984,1.0177,1.0403,1.0419,1.1527,1.2767,1.4118,1.5178,1.6038,1.6704,1.6344,1.6232,1.6276,1.5731,1.5071,1.4364,1.4077,1.3488,1.2589,1.1539,1.1101,1.1007,1.014,0.9753,0.9683,0.9563,0.9583,0.9703,0.9782,1.0154,1.0637,1.0925,1.1292,1.1648,1.1919,1.1523,1.1009,1.1082,1.0725,1.0322,1.0342,1.0835,1.1297,1.1164,1.1472,1.1834,1.1875,1.1483,1.1082,1.0948,1.0215,0.9693,0.9885,0.9216,0.8909,0.9682,0.8788,0.0,0.7844,0.6818,0.5869,0.5229,0.4662,0.4171,0.3755,0.3423,0.3118,0.2844,0.2397,0.2457,0.3183,0.3843,0.4486,0.5116,0.6571,0.8589,1.1176,0.0,0.0,0.0,0.0,0.0,0.0,0.0,0.0,0.0,0.0,0.0,0.0,0.0,0.0,0.0,0.0,0.0,0.0,0.0,0.0,0.0,0.0,1.5444,1.4345,1.5184,1.5434,1.4198,1.3683,1.317,1.2471,1.1902,1.1441,1.1207,1.1044,1.0676,1.0053,1.0019,1.0295,1.089,1.181,1.3039,1.4516,1.5373,1.6133,1.6846,1.6457,1.6204,1.6065,1.5414,1.4629,1.3743,1.3578,1.2968,1.2068,1.138,1.0932,1.0592,0.9977,0.9713,0.9703,0.9663,0.9663,0.972,0.9942,1.0178,1.0519,1.1248,1.1567,1.1708,1.1927,1.1605,1.1183,1.1398,1.1147,1.0902,1.1353,1.1639,1.1803,1.1698,1.1852,1.1975,1.1855,1.1745,1.1634,1.1441,1.0813,1.0303,1.0274,1.0065,0.9877,0.9742,0.8994,0.0,0.8315,0.7151,0.6336,0.6397,0.5707,0.4956,0.4267,0.4079,0.3863,0.3545,0.3172,0.3122,0.3476,0.3714,0.4462,0.5796,0.7042,0.8569,0.0,0.0,0.0,0.0,0.0,0.0,0.0,0.0,0.0,0.0,0.0,0.0,0.0,0.0,0.0,0.0,0.0,0.0,0.0,0.0,0.0,0.0,1.6871,1.7051,1.6558,1.6447,1.6079,1.5111,1.4503,1.3949,1.3483,1.2951,1.2475,1.2028,1.1951,1.1538,1.0776,1.072,1.09,1.1385,1.2314,1.3447,1.4804,1.562,1.6412,1.7242,1.6671,1.6402,1.6401,1.5688,1.4773,1.3734,1.343,1.278,1.185,1.1167,1.0686,0.0,0.0,0.0,0.0,0.0,0.9813,0.9978,1.0124,1.0499,1.094,1.1291,1.1514,1.1626,1.1451,1.1303,1.1208,1.1262,1.1292,1.142,1.185,1.2204,1.2434,1.2391,1.2546,1.2689,1.2509,1.238,1.2226,1.2049,1.1663,0.0,1.0944,1.0463,1.0167,1.0334,0.9483,0.882,0.8839,0.7548,0.6663,0.669,0.5835,0.5024,0.4413,0.4215,0.0,0.0,0.0,0.3883,0.4617,0.49,0.0,0.0,0.0,0.9352,1.0402,0.0,0.0,0.0,1.279,1.2811,0.0,0.0,0.0,0.0,0.0,0.0,0.0,0.0,0.0,0.0,0.0,0.0,0.0,0.0,0.0,0.0,1.8739,1.9094,1.9003,1.7357,1.6164,1.6254,1.5509,1.4991,1.4987,1.4461,1.3862,1.3133,1.3118,1.274,1.175,0.0,0.0,0.0,0.0,1.4017,1.5018,1.5926,1.6768,1.7561,1.6887,1.6649,1.6781,1.609,1.5148,1.399,1.3507,1.2752,1.1765,1.0996,1.051,1.019,0.9841,0.9723,0.9723,0.9723,0.9991,1.0342,1.04,0.0,0.0,1.1305,1.1384,1.151,1.0865,1.088,1.1094,1.0858,1.1304,1.1844,1.2046,1.2688,1.3275,1.3194,1.346,1.3693,1.3549,1.3167,1.2861,1.2736,1.2556,1.2279,1.1847,1.0751,1.0196,1.1026,1.0029,0.9196,0.9218,0.7953,0.6893,0.6498,0.0,0.0,0.4383,0.4151,0.4143,0.4445,0.4241,0.4707,0.6061,0.6724,0.7626,0.8849,0.9857,1.0575,1.0962,1.2099,1.2479,1.2173,1.2844,1.3046,0.0,0.0,0.0,0.0,0.0,0.0,0.0,0.0,0.0,0.0,0.0,0.0,0.0,0.0,0.0,1.7984,1.8302,1.8537,1.8469,1.7976,1.7541,1.7416,1.635,1.5427,1.4898,1.4635,1.4264,1.37,1.3953,1.3628,1.2464,1.2532,1.257,1.2463,1.3638,1.4568,1.5148,1.6233,1.6803,1.6816,0.0,0.0,1.5536,1.5684,1.4882,1.3459,1.3468,1.2618,1.1245,1.1186,1.0625,0.9804,0.9781,0.9783,0.9783,0.9911,1.0205,1.0601,1.1039,1.1554,1.2047,1.2173,1.2087,1.1807,1.1125,1.0841,0.0,1.0855,1.1315,1.1935,1.2566,1.3588,1.4435,1.4251,1.4387,1.45,1.4194,1.3759,1.3439,1.3415,1.2955,1.2632,1.2846,1.2062,1.1119,1.03,0.9877,0.943,0.8819,0.7965,0.7221,0.6764,0.6189,0.5544,0.4761,0.476,0.4801,0.4803,0.514,0.5633,0.6242,0.7397,0.8224,0.8643,1.0061,1.1197,1.2008,1.2268,1.2645,1.313,1.2956,1.2593,0.0,0.0,0.0,0.0,0.0,0.0,0.0,0.0,0.0,0.0,0.0,1.7644,0.0,0.0,1.9158,1.9254,1.9189,1.9133,1.91,1.8831,1.8405,1.7762,1.7145,1.6442,1.5633,1.5583,1.5131,1.4024,1.4145,1.381,1.2752,1.3029,1.317,1.3111,1.4264,1.5114,1.5605,1.6469,1.6936,1.7004,1.6802,1.6395,1.5792,1.5488,1.4749,1.3694,1.3359,1.2464,1.1205,1.0745,1.0277,0.987,1.0026,0.996,0.9773,0.995,1.0245,1.0636,1.0941,1.1383,1.1811,1.1964,1.1851,1.1547,1.101,1.0908,1.0977,1.0882,1.1494,1.2292,1.274,1.38,1.475,1.4701,1.4786,1.48,1.4627,1.4184,1.3773,1.3716,1.3434,1.3114,1.281,1.2361,1.1736,1.0786,1.0256,0.9686,0.8984,0.8365,0.7646,0.6699,0.6156,0.555,0.4811,0.4993,0.5164,0.5195,0.5616,0.6164,0.6865,0.7897,0.8673,0.9143,1.0626,1.1652,1.2193,1.2431,1.2787,1.3237,1.2813,1.2527,0.0,0.0,0.0,0.0,0.0,0.0,0.0,0.0,1.6995,1.7922,1.8509,1.9115,1.991,2.0158,2.0328,2.0687,2.0354,2.0041,2.0041,1.9528,1.8841,1.7996,1.7862,1.7504,1.6658,1.6654,1.6083,1.4583,1.4411,1.3992,1.3112,1.3496,1.3782,1.3813,1.5007,1.5839,1.6319,1.6888,1.7285,1.7501,1.6818,1.6439,1.6283,1.5448,1.4715,1.4046,1.3037,1.2151,1.1298,1.0271,0.9949,1.0112,1.0351,1.0279,1.0025,1.0112,1.0343,1.0658,1.0784,1.1217,1.1712,1.1602,1.1507,1.1354,1.0847,1.1024,1.1301,1.0921,1.1695,1.2665,1.2824,1.38,1.4764,1.4898,1.4947,1.4922,1.4898,1.446,1.401,1.3905,1.3794,1.3476,1.2676,1.2372,1.2016,1.1307,1.0546,0.9839,0.9185,0.8686,0.7888,0.6521,0.6013,0.5506,0.491,0.5267,0.5599,0.5745,0.6136,0.6812,0.7808,0.8572,0.9296,0.9996,1.1333,1.2092,1.2242,1.2579,1.2855,1.3042,1.2538,1.2473,1.7497,1.721,1.6867,1.694,1.6972,1.7583,0.0,0.0,1.9738,2.0159,2.0933,2.1317,2.0435,2.1086,2.1635,2.128,2.0827,2.0514,2.0514,1.9498,1.8721,1.8582,1.8374,1.8037,1.7571,1.7298,1.677,1.586,1.5498,1.4927,1.4004,1.4167,1.4378,1.4582,1.6042,1.7026,1.741,1.7963,1.8091,1.7842,1.7174,1.6525,1.5941,1.5528,1.4897,1.4016,1.2285,1.1474,1.1242,1.0413,1.0209,1.0456,1.0609,1.0849,1.1084,1.0757,1.0693,1.0824,1.1134,1.1778,1.2411,1.1995,1.193,1.1841,1.0973,1.0989,1.1255,1.0969,1.1794,1.2824,1.3028,1.3965,1.4922,1.5056,1.508,1.5056,1.4922,1.4521,1.4176,1.4152,1.3829,1.3506,1.3398,1.2636,1.17,1.0657,1.0177,0.9634,0.8856,0.8338,0.7608,0.6433,0.6316,0.6064,0.546,0.5992,0.6447,0.6645,0.7313,0.8117,0.9063,0.9861,1.0546,1.1114,1.1978,1.2531,1.2718,1.2608,1.2668,1.2908,1.2252,1.2138,1.9674,1.9622,1.932,0.0,1.9496,2.0235,2.0641,2.0667,2.0782,2.1301,2.1307,2.1292,2.1498,2.1485,2.1471,0.0,2.1005,2.0454,2.059,1.9476,1.869,1.8818,1.8468,1.8167,1.7952,1.7967,1.7461,1.6253,1.5749,1.505,1.3987,1.4429,1.4794,1.4983,1.6024,1.6907,1.7558,1.797,1.8036,1.7765,1.7335,1.6789,1.6179,1.5542,1.4811,1.3888,1.24,1.1762,1.1714,1.1013,1.0849,1.1049,1.1296,1.1433,1.1434,1.1195,1.117,1.1299,1.1565,1.1935,1.2284,1.2176,1.193,1.1674,1.1556,1.1406,1.1327,1.1484,1.2157,1.2835,1.2993,1.3894,1.4789,1.4838,1.5007,1.5056,1.4922,1.464,1.4361,1.4127,1.3855,1.3543,1.3108,1.2328,1.1566,1.0966,1.0559,1.0134,0.9643,0.8857,0.7835,0.6508,0.6136,0.5915,0.5754,0.6129,0.6503,0.6786,0.7156,0.771,0.8448,0.9183,0.9947,1.0757,1.1445,1.2042,1.2573,1.2365,1.2383,1.2597,1.2,1.1836,2.0736,0.0,0.0,2.0611,2.1441,2.2178,2.1339,2.1369,2.1614,2.1865,2.1388,2.1108,2.1729,2.1402,2.1256,2.1818,2.1232,2.0717,2.0874,1.9723,1.8923,1.9009,1.874,1.8467,1.827,1.8129,1.7543,1.634,1.5683,1.4939,1.4036,1.4619,1.5237,1.5796,1.6567,1.7338,1.8144,1.8343,1.8277,1.7973,1.7501,1.6961,1.6366,1.5369,1.452,1.3832,1.2588,1.2078,1.2062,1.156,1.1455,1.1679,1.1903,1.1995,1.2001,1.1853,1.1743,1.1672,1.1835,1.2068,1.229,1.2306,1.2077,1.187,1.2186,1.2124,1.1989,1.229,1.2764,1.322,1.3165,1.3834,1.4523,1.4537,1.4777,1.4899,1.4638,1.4498,1.4281,1.3785,1.3521,1.3192,1.2654,1.2047,1.1575,1.142,1.0955,1.0476,1.0088,0.9103,0.801,0.6901,0.6394,0.6166,0.6208,0.6518,0.6779,0.6923,0.7209,0.7633,0.8187,0.8816,0.9566,1.0459,1.1052,1.1657,1.2258,1.2107,1.2194,1.2497,1.1994,1.1873,0.0,0.0,2.1697,2.144,2.1981,2.2582,2.2555,2.2754,2.2716,2.1895,2.1591,2.1272,2.0581,2.086,2.1308,2.1653,2.1668,2.1643,2.159,2.0427,1.9511,1.941,1.9376,1.918,0.0,1.7637,1.6709,1.6144,1.5389,1.4774,1.4497,1.4944,1.5867,1.7301,1.817,1.9004,1.9826,1.959,1.9173,1.8654,1.7683,1.6908,1.6366,1.4819,1.4037,1.3842,1.2693,1.2147,1.2086,1.1802,1.1915,1.2266,1.2217,1.2528,1.3045,1.289,1.2398,1.1802,1.1879,1.2292,1.2742,1.2399,1.2544,1.2841,1.2804,1.3124,1.3487,1.3317,1.374,1.4159,1.3714,1.3797,1.4054,1.4174,1.4418,1.4458,1.386,1.3872,1.3793,1.3062,1.2561,1.2243,1.2213,1.1935,1.1734,1.1861,1.1199,1.0451,0.9709,0.8691,0.7956,0.7772,0.7453,0.7182,0.6982,0.7446,0.7617,0.7309,0.7959,0.8538,0.8939,0.9483,1.0062,1.0684,1.1217,1.1623,1.1927,1.1844,1.2159,1.2785,1.2365,1.2348,0.0,0.0,2.3627,2.3156,2.3536,2.392,2.3668,2.2944,2.2247,2.194,2.0991,2.0257,2.0371,1.9988,2.0022,2.1073,2.0896,2.0935,2.1761,2.0842,2.007,2.0051,1.9679,0.0,0.0,0.0,0.0,1.74,1.6661,1.6083,1.5701,1.6048,1.6555,1.726,1.7909,1.8674,1.961,1.9238,1.898,1.8879,1.756,1.6864,1.6692,1.5273,1.469,1.4754,1.3488,1.2812,1.2623,1.2524,1.2624,1.2823,1.2809,1.2922,1.3115,1.3243,1.3037,1.2676,1.2832,1.3086,1.3338,1.3309,1.313,1.3018,1.372,1.3875,1.3909,1.442,1.4777,1.5025,1.4942,1.475,1.4698,1.5024,1.5107,1.4878,1.4231,1.4258,1.4194,1.351,1.2705,1.226,1.2596,1.1763,1.0999,1.0917,1.0856,1.0417,0.9275,0.8792,0.8347,0.7849,0.7613,0.7533,0.7649,0.7873,0.8147,0.8471,0.8773,0.8989,0.9131,0.9443,0.9879,1.0492,1.0809,1.1227,1.1771,1.1962,1.2174,1.2388,1.2263,1.2268,0.0,2.4315,2.5168,2.4933,2.495,2.4899,2.4361,2.3271,2.2197,2.1688,2.052,1.9552,1.9382,1.8924,1.886,1.9783,2.0135,2.0554,2.1363,2.1234,2.1027,2.1008,2.0643,2.0221,0.0,0.0,0.0,1.8202,1.7378,1.6847,1.6646,1.683,1.7326,1.81,1.8306,1.8894,1.9995,1.9259,1.8721,1.8331,1.7195,1.6735,1.6878,1.5606,1.5213,1.5429,1.4093,1.3428,1.3311,1.3224,1.3328,1.3516,1.3481,1.3531,1.3636,1.3736,1.3718,1.3611,1.353,1.3616,1.3786,1.3893,1.38,1.3776,1.4476,1.4646,1.471,1.5085,1.533,1.5438,1.5318,1.4995,1.4831,1.5243,1.5323,1.5132,1.4541,1.4524,1.4405,1.3576,1.2726,1.226,1.2594,1.1583,1.0667,1.0461,1.0589,1.0398,0.9608,0.9326,0.9041,0.8671,0.8521,0.8453,0.8467,0.8503,0.8668,0.9018,0.9185,0.9273,0.9238,0.9683,1.0128,1.0572,1.0989,1.1431,1.1869,1.218,1.2386,1.2455,1.2454,1.2464,2.5086,2.5906,2.6302,2.6595,2.6188,2.5501,2.463,2.3645,2.2499,2.1112,2.0115,1.9084,0.0,0.0,1.7862,1.7965,1.9425,2.0579,2.0654,2.1615,2.2268,0.0,0.0,0.0,0.0,0.0,0.0,1.8514,0.0,1.7169,1.7283,1.7326,1.81,1.9713,1.9398,1.9768,2.0878,1.9755,1.8529,1.7239,1.6733,1.6687,1.6988,1.5865,1.556,1.5832,1.4542,1.4029,1.4111,1.386,1.3981,1.4301,1.4187,1.4337,1.4592,1.4427,1.4453,1.4506,1.3969,1.3937,1.4134,1.4134,1.4533,1.5007,1.5028,1.5462,1.581,1.5416,1.5493,1.5562,1.5021,1.4687,1.457,1.4936,1.5159,1.5178,1.4703,1.4662,1.4395,1.3363,1.2643,1.2221,1.2158,1.1424,1.0774,1.0577,1.0449,1.0427,1.0592,1.0209,0.9977,1.0096,1.0037,0.9818,0.9389,0.9366,0.9287,0.9052,0.9358,0.9505,0.945,1.0289,1.0823,1.0945,1.1699,1.2137,1.2191,1.2489,1.272,1.2923,1.2944,1.2959,2.5179,2.6603,2.7866,2.7517,2.683,2.603,2.5301,2.3285,2.1481,2.1107,1.9383,1.7712,0.0,0.0,0.0,1.7406,1.8744,0.0,2.1272,2.2106,0.0,2.2289,0.0,2.1921,2.1119,2.1063,0.0,0.0,1.8977,1.8585,1.8604,1.9093,1.9359,1.9353,2.0229,2.0804,2.0976,2.0417,1.9438,1.8009,1.792,1.7744,1.7418,1.6692,1.6268,1.6093,1.529,1.4713,1.4367,1.4683,1.4687,1.4543,1.4829,1.4858,1.4765,1.4965,1.4804,1.4483,1.4801,1.4783,1.4629,1.4743,1.4868,1.5085,1.5519,1.5777,1.6001,1.6415,1.6693,1.6923,1.7235,1.6444,1.5777,1.6594,1.6008,1.5204,1.4889,1.472,1.4461,1.3871,1.3211,1.2487,1.1732,1.1445,1.1286,1.1202,1.1266,1.1181,1.0736,1.0474,1.0283,1.0124,1.0086,1.0029,0.9903,1.0324,1.0646,1.0841,1.1196,1.1397,1.1387,1.1471,1.1547,1.1632,1.1936,1.2083,1.205,1.2574,1.2977,1.3287,1.3419,1.3457,2.6875,2.803,2.8984,2.8327,2.7451,2.6291,2.4749,2.2897,2.1163,1.9801,1.8449,0.0,0.0,0.0,0.0,0.0,0.0,0.0,2.0843,2.1912,2.2568,0.0,2.2619,0.0,2.1883,2.1715,2.1314,0.0,1.9836,1.9457,1.9422,1.9844,2.0116,2.0226,2.1037,2.14,2.1277,2.0712,1.9858,1.8774,1.8512,1.8115,1.7637,1.7079,1.6699,1.6418,0.0,1.532,1.5079,1.5459,1.5548,1.5527,1.5963,1.5948,1.5695,1.5827,1.556,1.519,1.5469,1.5472,1.5355,1.5252,1.5415,1.5645,1.5762,1.6008,1.6276,1.6522,1.6802,1.717,1.7665,1.6975,1.6391,1.7175,1.6464,1.557,1.5495,1.5177,1.466,1.3782,1.3234,1.253,1.1339,1.1169,1.1206,1.1271,1.1285,1.1289,1.1189,1.1149,1.1115,1.1147,1.0939,1.0725,1.0558,1.0885,1.1108,1.1162,1.1521,1.1745,1.1745,1.1979,1.2101,1.2091,1.2617,1.2842,1.2759,1.3324,1.3654,1.3716,1.3672,1.3528,2.8931,2.9492,2.9711,2.9025,2.799,2.647,2.3872,2.2557,2.1086,1.8356,0.0,1.7085,1.5712,1.5766,1.6056,1.6111,0.0,1.9522,2.0189,2.1538,2.259,2.29,2.2927,2.2889,2.2731,2.246,2.1887,2.0892,2.0335,1.9949,1.9792,2.0133,2.0767,2.1723,2.1679,2.1629,2.1592,2.0758,2.0005,1.9396,1.8886,1.8331,1.7771,1.7347,1.7069,1.6928,1.6138,1.5902,1.6062,1.6158,1.6341,1.6597,1.7113,1.7134,1.6838,1.6769,1.6535,1.6268,1.6172,1.6151,1.6134,1.5713,1.5958,1.633,1.5936,1.6154,1.6525,1.628,1.6461,1.6851,1.7301,1.6928,1.6598,1.7197,1.6631,1.6033,1.6196,1.5753,1.4901,1.3485,1.3104,1.2594,1.1322,1.1103,1.1135,1.1246,1.1184,1.1289,1.179,1.1852,1.1987,1.2391,1.2014,1.1605,1.1305,1.1418,1.1341,1.0987,1.1358,1.1593,1.1593,1.2299,1.2626,1.2569,1.3531,1.3962,1.3783,1.428,1.4357,1.4084,1.3796,1.3469,2.8604,2.9441,3.0238,2.9281,2.8139,2.6747,2.4771,2.2404,0.0,0.0,0.0,1.6229,1.5476,1.5786,0.0,1.6741,0.0,0.0,0.0,0.0,2.2849,0.0,0.0,0.0,0.0,0.0,0.0,0.0,2.0616,2.0398,1.9677,2.0938,2.2077,2.297,2.1937,2.1423,2.1592,2.0896,2.014,1.9318,1.9756,1.9384,1.8289,1.7967,1.782,1.7737,1.6711,0.0,1.6882,1.6734,1.6472,1.6279,1.7114,1.7257,1.6998,1.7369,1.74,1.7267,1.7369,1.7092,1.6604,1.6144,1.6177,1.6392,1.6309,1.634,1.6495,1.6774,1.6881,1.7112,1.784,1.7396,1.6846,1.7274,1.6674,1.6058,1.6311,1.5903,1.5145,1.4038,1.3674,1.3379,1.2793,1.2663,1.2511,1.221,1.2479,1.2562,1.2193,1.179,1.1697,1.2047,1.2005,1.2005,1.2162,1.2744,1.2851,1.2309,1.2807,1.3117,1.3117,1.3411,1.3683,1.3957,1.4527,1.4623,1.4291,1.4473,1.4424,1.4092,1.4035,1.3923,2.9694,3.0174,3.0497,2.9502,2.8098,2.6353,2.3847,0.0,0.0,0.0,1.7455,1.6694,1.6213,0.0,0.0,0.0,0.0,0.0,0.0,0.0,0.0,0.0,0.0,0.0,0.0,0.0,0.0,0.0,2.1277,2.1038,2.0349,2.1818,2.2823,2.3176,2.2342,2.1918,2.2033,2.1174,2.0555,2.0145,2.0179,1.9661,1.8669,1.8543,1.8352,1.8088,1.7554,1.745,1.769,1.7821,1.7593,1.7201,1.834,1.8361,1.7823,1.8526,1.8597,1.8328,1.8122,1.7853,1.7564,1.7092,1.6698,1.6413,1.6413,1.6413,1.6459,1.6807,1.6955,1.7121,1.7597,1.749,1.7284,1.7324,1.6658,1.5966,1.5847,1.546,1.49,1.4049,1.3828,1.3619,1.3188,1.3058,1.3022,1.2921,1.3027,1.3079,1.3027,1.2705,1.2471,1.2429,1.2357,1.2339,1.2394,1.2786,1.3022,1.2967,1.3301,1.3627,1.3966,1.415,1.4317,1.4403,1.4934,1.5097,1.4874,1.5149,1.5266,1.5215,1.4773,1.4766,3.0646,3.0909,3.0931,2.9897,2.8312,2.6223,2.3216,2.1695,0.0,0.0,1.7298,1.7273,1.6994,0.0,0.0,0.0,0.0,0.0,0.0,0.0,0.0,0.0,0.0,0.0,0.0,0.0,0.0,0.0,2.1923,2.1614,2.1289,2.2567,2.3293,2.3171,2.2696,2.2423,2.2309,2.1357,2.0848,2.0808,2.0369,1.9792,1.9116,1.9009,1.8817,1.8539,1.8306,1.8274,1.8422,1.8637,1.8416,1.8123,1.9212,1.9156,1.8507,1.9347,1.9515,1.9258,1.8757,1.8623,1.8583,1.8114,1.7324,1.6529,1.6529,1.6529,1.6555,1.6765,1.6967,1.7119,1.713,1.728,1.7379,1.717,1.6655,1.6093,1.5695,1.537,1.4996,1.4381,1.4182,1.3972,1.363,1.3496,1.3439,1.3517,1.3401,1.3375,1.3619,1.3531,1.3356,1.313,1.3043,1.2942,1.2822,1.3005,1.3186,1.3343,1.3586,1.3914,1.4374,1.47,1.4824,1.4792,1.5347,1.5606,1.5624,1.5902,1.6148,1.6323,1.5638,1.5651,3.0058,3.0987,3.1813,3.0756,2.9239,2.7271,2.4554,0.0,0.0,1.8774,1.7826,1.7187,1.7112,1.7369,1.7831,0.0,0.0,0.0,0.0,0.0,0.0,0.0,0.0,0.0,0.0,0.0,0.0,0.0,2.2185,2.1963,2.2182,2.3018,2.3442,2.3372,2.2914,2.2421,2.193,2.1133,2.0627,2.0444,2.0389,2.0183,1.9781,1.9382,1.9361,1.9695,1.8656,1.8558,0.0,1.8373,1.8039,1.8029,1.8394,1.8486,1.8476,1.8984,1.951,1.9931,1.9402,1.9344,1.9401,1.8924,1.7966,1.6955,1.6955,1.6955,1.6921,1.6821,1.7126,1.7312,1.6738,1.659,1.6617,1.659,1.6743,1.6835,1.6609,1.644,1.6238,1.5872,1.5356,1.5011,1.5075,1.4746,1.4327,1.4003,1.3936,1.3726,1.3231,1.3423,1.3716,1.4026,1.4206,1.4275,1.4142,1.4536,1.4443,1.3617,1.4025,1.4328,1.4405,1.5004,1.5468,1.5783,1.6119,1.6422,1.6675,1.6587,1.6526,1.6464,1.6401,1.624,3.0435,3.1223,3.1537,3.0809,2.9177,2.7151,2.4965,0.0,0.0,1.9621,1.8305,1.7471,1.8019,1.7251,1.7013,0.0,0.0,0.0,0.0,0.0,0.0,0.0,0.0,0.0,0.0,0.0,0.0,0.0,2.2271,2.1943,2.1751,2.2936,2.3491,2.3167,2.2993,2.2612,2.2103,2.1358,2.0914,2.0679,2.0625,2.0443,2.0194,1.9878,1.9825,1.9987,1.9544,1.9511,0.0,1.9738,1.9512,1.9222,1.9881,1.9898,1.9607,2.0081,2.041,2.0564,2.0065,1.994,1.9956,1.9477,1.8786,1.8081,1.7716,1.7521,1.7449,1.7601,1.7525,1.7302,1.6903,1.658,1.644,1.6721,1.6693,1.652,1.6364,1.62,1.6029,1.5796,1.5712,1.5631,1.5603,1.5438,1.5389,1.559,1.5319,1.5202,1.5537,1.5354,1.5358,1.5716,1.5069,1.4643,1.4723,1.4635,1.4604,1.4686,1.4666,1.4806,1.5169,1.5583,1.5773,1.5663,1.6175,1.6505,1.6618,1.6708,1.6677,1.6617,1.6105,1.6141,2.9769,3.0811,3.1317,3.0545,2.8962,2.7075,0.0,0.0,2.1049,2.0133,1.8792,1.7948,1.8499,1.7514,1.7007,0.0,0.0,0.0,0.0,0.0,0.0,0.0,0.0,0.0,0.0,0.0,0.0,2.2797,2.2359,2.2026,2.1711,2.2834,2.3351,2.299,2.299,2.2746,2.2213,2.155,2.1094,2.0903,2.0754,2.0604,2.041,2.0183,2.0118,2.0118,2.026,2.0325,0.0,2.0838,2.0736,2.0363,2.0962,2.0912,2.0541,2.0708,2.0913,2.1005,2.0386,2.0302,2.0413,1.9897,1.9511,1.9116,1.869,1.8291,1.7999,1.8002,1.7493,1.6905,1.6753,1.6459,1.6282,1.6648,1.6539,1.6328,1.6318,1.617,1.6084,1.6224,1.6286,1.6337,1.6421,1.6203,1.6153,1.6518,1.6105,1.6016,1.6775,1.6498,1.6432,1.6956,1.6026,1.5377,1.5342,1.4956,1.4873,1.526,1.494,1.4971,1.5529,1.5879,1.5957,1.5746,1.6287,1.6576,1.6566,1.6556,1.6561,1.6553,1.6002,1.6081,2.7483,2.9479,3.1402,3.0107,2.8795,2.7304,0.0,0.0,2.1222,2.0295,1.9353,1.8553,1.8185,1.8309,1.8423,1.8235,0.0,0.0,0.0,0.0,0.0,0.0,0.0,0.0,0.0,0.0,0.0,2.2956,2.2579,0.0,2.2389,2.2787,2.2956,2.2888,2.2979,2.2746,2.2213,2.155,2.1094,2.0903,2.0754,2.0604,2.041,2.0183,2.0118,2.014,2.0642,2.0883,0.0,2.1177,2.1301,2.1255,2.1069,2.0988,2.0924,2.0488,2.073,2.1172,2.0246,2.0357,2.0818,2.0271,1.9998,1.9889,1.9889,1.9307,1.8533,1.7724,1.6818,1.6116,1.6116,1.6018,1.5947,1.6089,1.6255,1.6477,1.6751,1.6684,1.6839,1.7607,1.7363,1.7207,1.7861,1.7141,1.6444,1.6332,1.5896,1.5741,1.6079,1.6105,1.6467,1.7384,1.718,1.6755,1.6137,1.5834,1.5484,1.5028,1.4751,1.4794,1.5202,1.5654,1.6027,1.6297,1.6556,1.6709,1.6689,1.6237,1.6109,1.631,1.6309,1.6292,2.568,2.6679,2.7323,2.6731,2.6444,2.5798,2.3849,0.0,2.1559,2.0359,1.9065,1.8097,1.7882,1.6917,1.6651,1.8093,1.7675,0.0,0.0,0.0,0.0,0.0,0.0,0.0,0.0,0.0,2.4138,2.3632,2.3476,2.3126,2.2434,2.2972,2.3341,2.3444,2.3255,2.301,2.2758,2.1809,2.1178,2.0903,2.0754,2.0604,2.0422,2.072,2.0775,2.0697,2.1315,2.1501,2.1396,2.1816,2.1976,2.1944,2.1561,2.1396,2.1298,2.0474,2.0541,2.0978,2.0707,2.0729,2.0872,2.0719,2.038,2.0042,2.0042,1.9607,1.8909,1.7915,1.7506,1.7256,1.6602,1.6416,1.6388,1.6444,1.6504,1.6524,1.6545,1.6814,1.7153,1.74,1.7658,1.7888,1.8109,1.7951,1.7913,1.824,1.7951,1.785,1.8188,1.7892,1.7747,1.7947,1.7871,1.7594,1.6961,1.6377,1.6108,1.621,1.5452,1.5285,1.5939,1.586,1.5877,1.5953,1.6747,1.7054,1.6768,1.7307,1.7192,1.6412,1.607,1.5735,0.0,2.4566,2.4988,2.4531,2.4534,0.0,0.0,0.0,2.1221,2.0223,1.9061,1.8215,1.816,1.7095,1.6762,1.8423,1.8044,0.0,0.0,0.0,0.0,0.0,0.0,0.0,0.0,2.496,2.4622,2.4414,2.4292,2.3982,2.3369,2.3536,2.3699,2.3873,2.3374,2.3106,2.3144,2.1983,2.1334,2.1198,2.1112,2.0982,2.0785,2.1252,2.1406,2.1303,2.1822,2.1971,0.0,2.2193,2.2313,2.2233,2.1778,2.1701,2.1767,2.0947,2.0882,2.1168,2.1168,2.0938,2.062,2.0839,2.0544,2.0074,2.0042,1.9684,1.905,1.8093,1.7789,1.7536,1.6751,1.6534,1.6576,1.6715,1.6823,1.6931,1.7028,1.7357,1.7739,1.8239,1.8364,1.8542,1.902,1.9018,1.9028,1.9212,1.9114,1.9071,1.9147,1.9019,1.8903,1.8817,1.8638,1.8375,1.8081,1.717,1.6722,1.6965,1.6104,1.5822,1.6347,1.6292,1.6241,1.6186,1.7163,1.7376,1.6837,1.7097,1.6821,1.6101,1.5634,1.539,0.0,0.0,0.0,0.0,0.0,0.0,0.0,0.0,0.0,1.9944,1.9315,1.8848,1.8927,1.8468,1.8356,1.9175,1.9127,0.0,0.0,0.0,0.0,0.0,0.0,0.0,0.0,2.4843,2.5303,2.5243,2.5021,2.4866,2.4889,2.4352,2.4085,2.4213,2.3364,2.3086,2.3407,2.2068,2.153,2.1742,2.1708,2.1631,2.1442,2.182,2.1985,0.0,2.2292,2.2404,2.2404,2.2404,2.2404,2.236,2.1868,2.1955,2.2294,2.1802,2.1638,2.1706,2.1671,2.1046,2.0358,2.0774,2.0511,2.0031,1.989,1.9566,1.9071,1.831,1.7713,1.7231,1.6667,1.6454,1.6508,1.6986,1.7267,1.7542,1.8032,1.8155,1.8508,1.9648,1.9267,1.9135,2.0361,2.0212,1.9801,1.9479,1.9579,1.9601,1.9268,1.9575,1.9844,1.9844,1.9359,1.9145,1.9346,1.8113,1.7366,1.7397,1.6705,1.6431,1.6668,1.6924,1.7031,1.6925,1.7691,1.7715,1.7003,1.5971,1.5538,1.5583,1.5257,1.5277,1.9219,0.0,2.0642,2.0323,0.0,0.0,0.0,0.0,0.0,0.0,0.0,0.0,0.0,1.8555,1.8346,2.008,1.9829,2.0159,0.0,0.0,0.0,0.0,0.0,0.0,0.0,2.5508,2.5608,2.5559,2.5531,2.5335,2.4935,2.4557,2.4326,2.4189,2.3652,2.3359,2.3407,2.2234,2.1823,2.223,2.1867,2.1744,2.1808,2.2542,2.2721,2.2459,2.3212,2.3436,2.329,2.329,2.329,2.3234,2.278,2.2646,2.2691,2.2222,2.2278,2.2579,2.2437,2.2212,2.1878,2.1125,2.0282,1.9562,1.953,1.9629,1.9598,1.8903,1.829,1.7788,1.7652,1.7019,1.6693,1.7792,1.7822,1.775,1.8224,1.8628,1.8835,1.8788,1.8915,1.9262,2.0075,2.0222,2.0309,2.0578,2.077,2.0749,2.038,2.0404,2.0442,2.0265,1.9996,1.9874,1.9909,1.8601,1.7914,1.827,1.7698,1.7718,1.8516,1.8067,1.792,1.8237,1.8008,1.7911,1.796,1.697,1.6438,1.6405,1.6008,1.5944,1.9043,1.956,2.0093,1.9633,2.0326,2.0925,0.0,0.0,0.0,0.0,0.0,0.0,0.0,0.0,0.0,0.0,2.1319,0.0,0.0,0.0,0.0,0.0,0.0,0.0,0.0,2.5885,2.5951,2.6143,2.5854,2.5576,2.5393,2.4995,2.4622,2.4345,2.387,2.3621,2.3548,2.2311,2.201,2.2628,2.2308,2.2309,2.26,2.3227,2.3406,2.3212,2.359,2.3703,2.3582,2.3383,2.3293,2.3248,2.2754,2.2698,2.2855,2.2597,2.2665,2.2887,2.2931,2.272,2.2281,2.1235,2.0686,2.038,2.0151,2.028,2.0298,1.9222,1.8913,1.8836,1.8595,1.8072,1.7854,1.8697,1.8859,1.8929,1.9312,1.9667,1.9891,1.9965,1.981,1.991,2.0579,2.0769,2.0938,2.1303,2.1739,2.1866,2.1559,2.1709,2.1724,2.1393,2.0917,2.0683,2.0878,1.9606,1.8908,1.9144,1.8852,1.8887,1.9363,1.8987,1.8809,1.8966,1.8187,1.7946,1.8296,1.7169,1.6613,1.6566,1.6004,1.5893,1.9755,2.0573,2.1166,2.016,2.0529,2.1133,0.0,0.0,0.0,0.0,0.0,0.0,0.0,0.0,0.0,0.0,0.0,0.0,0.0,0.0,0.0,0.0,0.0,0.0,2.6385,2.6258,2.6353,2.6837,2.6133,2.5758,2.6039,2.5415,2.4873,2.449,2.4007,2.3708,2.3572,2.2341,2.2122,2.2981,2.2776,2.2983,2.3509,2.3813,2.3934,2.3897,0.0,0.0,2.3531,2.314,2.2996,2.2926,2.2635,2.2759,2.3108,2.3108,2.3108,2.314,2.3301,2.2915,2.2207,2.1421,2.1322,2.1407,2.1015,2.1062,2.0984,1.9595,1.9588,1.9902,1.9466,1.9202,1.922,1.9657,1.9956,2.0231,2.0609,2.0815,2.1097,2.1604,2.1124,2.0819,2.1497,2.1555,2.1627,2.2008,2.2478,2.2757,2.2633,2.2946,2.3039,2.2646,2.182,2.1478,2.1834,2.0737,2.0015,1.9969,1.9901,1.9789,1.966,1.9656,1.9529,1.922,1.8303,1.7904,1.8055,1.6968,1.6425,1.6348,1.5781,1.5701,2.0049,2.1861,2.3164,2.0956,2.1178,2.1805,0.0,0.0,0.0,0.0,0.0,0.0,0.0,0.0,0.0,0.0,0.0,0.0,0.0,0.0,0.0,0.0,0.0,2.7042,2.6753,2.6847,2.7136,2.7676,2.6621,2.6022,2.6256,2.5342,2.4754,2.449,2.387,2.3384,2.3015,2.2142,2.2243,2.3316,2.2891,2.3097,2.382,2.4045,2.4043,2.3875,0.0,2.3416,2.3416,2.336,2.3337,2.3371,2.3761,2.3944,2.4002,2.4002,2.4002,2.3977,2.3838,2.3279,2.2546,2.2391,2.1744,2.0993,2.0916,2.0958,2.0977,2.0764,2.0347,2.0083,2.0376,1.9781,1.9385,2.0581,2.0586,2.0483,2.0911,2.135,2.1563,2.1242,2.1424,2.1811,2.2471,2.2258,2.2289,2.3121,2.2974,2.2872,2.3069,2.3143,2.3163,2.3091,2.2309,2.1887,2.2123,2.1131,2.0573,2.0708,2.0326,1.9992,1.9842,1.9832,1.9508,1.8815,1.8466,1.7851,1.6935,1.673,1.6508,1.6237,1.6117,1.6314,1.9949,2.1567,2.2936,2.1777,2.2798,2.3876,0.0,0.0,0.0,0.0,0.0,0.0,0.0,0.0,0.0,0.0,0.0,0.0,0.0,0.0,0.0,0.0,0.0,2.7435,2.7561,2.7286,2.7333,2.7846,2.6738,2.6103,2.6306,2.5478,2.4842,2.4502,2.4037,2.3592,2.3179,2.2619,2.2596,2.3121,2.3098,2.3406,2.408,2.4164,2.4152,2.4032,0.0,2.3808,2.3808,2.3808,2.3659,2.343,2.3659,2.3751,2.3786,2.4097,2.4127,2.4007,2.3934,2.3557,2.3056,2.2573,2.2268,2.1964,2.149,2.1464,2.1592,2.1592,2.1288,2.1027,2.1224,2.0928,2.07,2.1342,2.1331,2.13,2.1766,2.2035,2.219,2.2232,2.2408,2.2582,2.2619,2.2679,2.2856,2.3283,2.3377,2.3534,2.3867,2.3919,2.3919,2.3919,2.3217,2.2778,2.2734,2.22,2.1511,2.0761,2.05,2.0323,2.0292,2.0149,1.9848,1.93,1.8561,1.7934,1.7472,1.6768,1.648,1.6511,1.6373,1.6536,2.0303,2.1506,2.2712,2.2739,0.0,0.0,0.0,0.0,0.0,0.0,0.0,0.0,0.0,0.0,0.0,0.0,0.0,0.0,0.0,0.0,2.7414,2.7783,2.7741,2.7818,2.8171,2.7731,2.7593,2.7926,2.6933,2.6308,2.6382,2.5613,2.5001,2.4585,2.4155,2.377,2.3407,2.3144,2.3005,2.3017,2.3282,2.3671,2.42,2.42,2.42,2.4189,2.4074,2.3948,2.3844,2.3844,2.3546,2.3063,2.3189,2.3304,2.3465,2.4005,2.4116,2.397,2.397,2.3824,2.35,2.2819,2.2769,2.2898,2.2224,2.2115,2.2252,2.2252,2.2147,2.2001,2.1973,2.2056,2.2128,2.2128,2.2128,2.2232,2.2584,2.2739,2.2925,2.3277,2.3432,2.3391,2.3039,2.3184,2.3391,2.3484,2.3722,2.4043,2.4445,2.4497,2.4497,2.4497,2.3915,2.338,2.3063,2.2951,2.2362,2.1076,2.0909,2.083,2.0683,2.0614,2.0387,1.9921,1.8877,1.8271,1.8127,1.7036,1.6613,1.6899,1.6662,1.675,2.1792,2.2748,2.3622,2.4047,0.0,0.0,0.0,0.0,0.0,0.0,0.0,0.0,0.0,0.0,0.0,0.0,0.0,0.0,0.0,0.0,2.8323,2.8199,2.8331,2.8343,2.8207,2.8303,2.8343,2.8179,2.7459,2.6889,2.6595,2.5688,2.5075,2.4777,2.4073,2.363,2.3407,2.3373,2.335,2.335,2.3396,2.3671,2.42,2.42,2.42,2.4166,2.3659,2.3224,2.2822,2.2822,2.249,2.2055,2.2559,2.3029,2.3465,2.4005,2.42,2.4189,2.4189,2.3934,2.3593,2.3522,2.3265,2.299,2.292,2.2782,2.2665,2.2665,2.2683,2.2673,2.2488,2.277,2.3091,2.3091,2.3091,2.3101,2.3132,2.3474,2.3795,2.3826,2.4157,2.4394,2.4352,2.4074,2.3971,2.4342,2.4115,2.4043,2.4445,2.4497,2.4497,2.4497,2.3915,2.3266,2.2706,2.2788,2.2676,2.2116,2.191,2.152,2.0891,2.1207,2.1055,2.0256,1.968,1.9008,1.8197,1.7616,1.7261,1.7191,1.7146,1.718,2.1271,2.2399,2.3629,2.3969,0.0,0.0,0.0,0.0,0.0,0.0,0.0,0.0,0.0,0.0,0.0,0.0,0.0,0.0,0.0,2.7924,2.7978,2.79,2.8266,2.8471,2.8379,2.8339,2.8116,2.7715,2.7199,2.6574,2.5845,2.5413,2.4964,2.4441,2.4257,2.4081,2.3913,2.3913,2.4026,2.4313,2.4051,2.4005,2.42,2.42,2.4028,2.3682,2.3488,2.3121,2.2719,2.2719,2.2375,2.194,2.2478,2.28,2.3064,2.389,2.42,2.42,2.42,2.4091,2.3897,2.3519,2.3298,2.3113,2.274,2.259,2.2515,2.2515,2.2743,2.2921,2.2726,2.2951,2.3184,2.3184,2.3184,2.3267,2.3557,2.3567,2.3536,2.3826,2.4012,2.4033,2.3753,2.4022,2.425,2.4146,2.4219,2.4353,2.4476,2.4497,2.4497,2.4497,2.4257,2.3965,2.3632,2.3517,2.3237,2.2673,2.228,2.193,2.1559,2.1654,2.1347,2.0578,1.9993,1.9419,1.8828,1.8074,1.7901,1.8295,1.7763,1.7819,2.093,2.2149,2.3674,0.0,0.0,0.0,0.0,0.0,0.0,0.0,0.0,0.0,0.0,0.0,0.0,0.0,0.0,0.0,2.8055,2.8047,2.793,2.793,2.8294,2.851,2.851,2.8379,2.8032,2.7352,2.7054,2.6415,2.534,2.5233,2.4916,2.4321,2.4418,2.4418,2.42,2.42,2.4361,2.4682,2.4349,2.42,2.4189,2.4028,2.3684,2.3167,2.3167,2.2914,2.2444,2.2444,2.2237,2.1951,2.2718,2.2983,2.3018,2.3879,2.42,2.42,2.42,2.4164,2.4043,2.3629,2.3409,2.3224,2.2815,2.2628,2.259,2.259,2.2857,2.3154,2.3037,2.3265,2.3565,2.3701,2.3628,2.3607,2.394,2.3679,2.3522,2.3919,2.4002,2.3898,2.3639,2.3915,2.4094,2.383,2.3821,2.3831,2.3831,2.4057,2.4282,2.4497,2.4631,2.4671,2.4551,2.428,2.3991,2.3667,2.2981,2.2468,2.209,2.2207,2.202,2.1466,2.0843,2.036,1.9994,1.905,1.8829,1.9186,1.846,1.8474,2.1132,2.2184,2.3896,0.0,0.0,0.0,0.0,0.0,0.0,0.0,0.0,0.0,0.0,0.0,0.0,0.0,0.0,2.9079,2.9079,2.8724,2.8498,2.8498,2.8498,2.8498,2.8498,2.8498,2.81,2.7172,2.7097,2.6523,2.5268,2.5222,2.4989,2.4513,2.449,2.4418,2.42,2.42,2.42,2.42,2.42,2.42,2.4166,2.3637,2.3121,2.2707,2.2707,2.2386,2.1883,2.1894,2.1894,2.203,2.3225,2.3595,2.3465,2.4005,2.42,2.42,2.42,2.408,2.3897,2.3897,2.3641,2.3298,2.3298,2.315,2.3001,2.3001,2.3199,2.3414,2.3386,2.3817,2.4315,2.4787,2.4525,2.421,2.421,2.4006,2.3886,2.4157,2.421,2.4263,2.4457,2.3937,2.3503,2.3503,2.2906,2.2438,2.2448,2.3057,2.3774,2.4464,2.4921,2.5199,2.5189,2.5013,2.4984,2.5148,2.4122,2.3229,2.2549,2.2877,2.3091,2.3091,2.2413,2.1961,2.1695,2.0597,1.995,1.9706,1.9266,1.9109,2.2142,2.302,0.0,0.0,0.0,0.0,0.0,0.0,0.0,0.0,0.0,0.0,0.0,0.0,0.0,2.8787,2.85,2.8274,2.8504,2.8131,2.7811,2.7811,2.7685,2.7609,2.7609,2.7316,2.6897,2.6224,2.6064,2.5669,2.4976,2.5062,2.5003,2.4718,2.4718,2.461,2.4418,2.4273,2.4372,2.4694,2.4361,2.4005,2.3625,2.3476,2.2937,2.2157,2.2157,2.1858,2.1454,2.1908,2.2344,2.2726,2.3433,2.3595,2.3465,2.4005,2.42,2.42,2.42,2.4164,2.408,2.3934,2.3714,2.3482,2.3335,2.315,2.3001,2.3001,2.3073,2.3221,2.3748,2.3908,2.3995,2.4335,2.442,2.4428,2.4428,2.4242,2.4083,2.4013,2.4075,2.4169,2.4095,2.4163,2.4196,2.4196,2.4013,2.3985,2.4351,2.4832,2.5146,2.5013,2.554,2.5564,2.4787,2.4796,2.467,2.422,2.3919,2.3634,2.3418,2.3188,2.2916,2.2608,2.1748,2.1123,2.069,1.9972,1.967,1.9846,1.9529,1.975,2.2873,0.0,0.0,0.0,0.0,0.0,0.0,0.0,0.0,0.0,0.0,0.0,0.0,0.0,0.0,2.9202,2.86,2.8189,2.8384,2.789,2.7483,2.7397,2.7285,2.7173,2.7099,2.6848,2.647,2.5847,2.5678,2.5392,2.4825,2.4992,2.5016,2.479,2.459,2.4425,2.4283,2.3896,2.3872,2.4232,2.386,2.3433,2.2926,2.3259,2.2857,2.1894,2.1894,2.1903,2.1953,2.2441,2.2894,2.3339,2.3921,2.399,2.3751,2.4085,2.42,2.42,2.4116,2.408,2.4043,2.3861,2.3629,2.3446,2.3335,2.315,2.3001,2.3001,2.3143,2.3389,2.3822,2.4057,2.4241,2.444,2.442,2.4398,2.4482,2.4335,2.4184,2.423,2.4282,2.4304,2.4315,2.4193,2.411,2.411,2.4122,2.4324,2.5005,2.5506,2.5654,2.5396,2.6041,2.6105,2.5141,2.526,2.5195,2.4885,2.4467,2.4212,2.4287,2.3877,2.3386,2.2955,2.2243,2.1652,2.1228,2.0526,2.0313,2.0516,2.0416,2.0662,0.0,0.0,0.0,0.0,0.0,0.0,0.0,0.0,0.0,0.0,0.0,0.0,0.0,0.0,0.0,2.9845,2.9175,2.8649,2.8649,2.7953,2.741,2.72,2.7126,2.699,2.6779,2.6791,2.6451,2.573,2.5742,2.5467,2.4814,2.504,2.5064,2.4825,2.439,2.4107,2.4013,2.3338,2.3047,2.3169,2.3001,2.2633,2.2203,2.2926,2.2765,2.1894,2.1973,2.244,2.3164,2.3379,2.3639,2.3956,2.4601,2.4609,2.42,2.42,2.42,2.4164,2.4027,2.4002,2.3965,2.377,2.3549,2.339,2.3309,2.315,2.3012,2.3056,2.3383,2.3716,2.3793,2.4299,2.4811,2.4925,2.4598,2.4345,2.4511,2.4375,2.4355,2.4764,2.4696,2.4638,2.4882,2.4176,2.3644,2.364,2.3727,2.4102,2.4961,2.5474,2.5757,2.5687,2.6487,2.6695,2.5989,2.608,2.6219,2.6416,2.5448,2.4947,2.5143,2.4648,2.4238,2.3857,2.3418,2.3047,2.2694,2.1957,2.1634,2.1593,2.1711,2.1725,0.0,2.5118,0.0,0.0,0.0,0.0,0.0,0.0,0.0,0.0,0.0,0.0,0.0,0.0,0.0,3.0456,2.9568,2.885,2.885,2.7852,2.7086,2.7037,2.6381,2.5923,2.5887,2.5732,2.5409,2.4833,2.5181,2.5146,2.4596,2.5409,2.5637,2.5064,2.5265,2.4956,2.4025,2.3688,2.3328,2.2955,2.2922,2.2566,2.1971,2.2157,2.21,2.1917,2.2519,2.3408,2.4425,2.4637,2.4886,2.52,2.5354,2.4923,2.42,2.42,2.42,2.4246,2.4551,2.4677,2.4651,2.4513,2.4326,2.4059,2.3494,2.315,2.3078,2.3471,2.3607,2.3819,2.44,2.4665,2.4852,2.5083,2.5041,2.5009,2.5051,2.5155,2.5237,2.5156,2.523,2.5273,2.4925,2.4733,2.4643,2.4807,2.5435,2.5993,2.6222,2.6625,2.6775,2.6422,2.6702,2.6716,2.6197,2.5959,2.5909,2.5963,2.5558,2.5357,2.5409,2.4751,2.4375,2.4287,2.3681,2.3308,2.3224,2.2754,2.2402,2.2215,2.2046,2.1928,0.0,0.0,0.0,0.0,0.0,0.0,0.0,0.0,0.0,0.0,0.0,0.0,0.0,0.0,3.0082,3.049,2.945,2.866,2.8781,2.7664,2.6726,2.6374,2.565,2.5194,2.5078,2.4974,2.4784,2.4508,2.5081,2.5153,2.4542,2.5117,2.5189,2.4499,2.4304,2.394,2.3384,2.2846,2.249,2.2311,2.2234,2.1964,2.1571,2.178,2.2032,2.2306,2.2773,2.3524,2.4437,2.4815,2.5192,2.5554,2.5431,2.5045,2.451,2.4281,2.42,2.4269,2.464,2.4811,2.4819,2.488,2.4806,2.4673,2.4263,2.4082,2.405,2.4316,2.4509,2.4768,2.5062,2.5286,2.5485,2.5537,2.5369,2.5242,2.538,2.5517,2.5601,2.5549,2.5559,2.5593,2.5551,2.5559,2.5616,2.5824,2.6417,2.681,2.6903,2.7337,2.7406,2.6862,2.704,2.6991,2.6434,2.6447,2.6476,2.6344,2.6212,2.6107,2.5964,2.5498,2.5083,2.4727,2.4222,2.384,2.3644,2.3223,2.2969,2.283,2.2583,2.2426,0.0,0.0,0.0,0.0,0.0,0.0,0.0,0.0,0.0,0.0,0.0,0.0,0.0,0.0,2.9874,3.0081,2.8957,2.8071,2.8187,2.7145,2.6164,2.5542,2.5121,2.48,2.465,2.4662,2.4661,2.4564,2.5113,2.516,2.4444,2.4619,2.4437,2.3785,2.314,2.2769,2.2645,2.1908,2.1568,2.1667,2.1474,2.1305,2.1233,2.1594,2.2076,2.2592,2.2981,2.3547,2.419,2.4731,2.5202,2.5493,2.5308,2.5073,2.4855,2.4372,2.4246,2.4347,2.4637,2.4816,2.4915,2.5104,2.5217,2.5273,2.5144,2.5122,2.5133,2.5184,2.5508,2.5764,2.5721,2.5972,2.6252,2.6089,2.5794,2.5508,2.5623,2.5654,2.5718,2.5973,2.5923,2.5979,2.6336,2.6434,2.6507,2.6687,2.6999,2.7214,2.7399,2.7717,2.7719,2.7163,2.7364,2.7332,2.677,2.7044,2.7129,2.69,2.6794,2.6651,2.6448,2.6197,2.5836,2.5243,2.4898,2.4557,2.42,2.3861,2.3678,2.3628,2.3329,2.3129,0.0,0.0,0.0,0.0,0.0,0.0,0.0,0.0,0.0,0.0,0.0,0.0,0.0,0.0,0.0,2.9196,2.7876,2.6739,2.6265,2.553,2.5015,2.4913,2.5114,2.5204,2.5204,2.5356,2.5267,2.4806,2.4842,2.4648,2.408,2.4379,2.4222,2.3573,2.3897,2.3558,2.2439,2.2218,2.1853,2.1431,2.1316,2.1273,2.1368,2.1322,2.1537,2.2076,2.3326,2.4167,2.4755,2.5407,2.563,2.5554,2.5368,2.5122,2.4855,2.4372,2.4464,2.482,2.4863,2.5184,2.5547,2.541,2.5689,2.5922,2.5284,2.5122,2.5161,2.5598,2.5726,2.5883,2.6349,2.6517,2.6579,2.6738,2.671,2.6504,2.5983,2.5864,2.5984,2.641,2.6683,2.6832,2.6897,2.7072,2.72,2.7189,2.7594,2.7855,2.7902,2.7778,2.761,2.7547,2.741,2.7278,2.7216,2.704,2.6948,2.69,2.6448,2.6197,2.6149,2.61,2.5926,2.5654,2.5557,2.5509,2.545,2.5411,2.5235,2.503,2.4529,2.4183,0.0,0.0,0.0,0.0,0.0,0.0,0.0,0.0,0.0,0.0,0.0,0.0,0.0,0.0,0.0,2.8804,2.8014,2.7276,2.6867,2.6115,2.546,2.5102,2.4938,2.4781,2.4594,2.4638,2.4378,2.3539,2.3855,2.3762,2.3035,2.3216,2.3099,2.2626,2.2743,2.2409,2.1455,2.1267,2.1057,2.0857,2.0981,2.1132,2.1273,2.1423,2.1487,2.1592,2.3008,2.3696,2.3886,2.512,2.553,2.5357,2.5159,2.5182,2.5302,2.4786,2.4728,2.4958,2.5256,2.552,2.5723,2.5959,2.6354,2.6691,2.6382,2.6194,2.6158,2.6343,2.6318,2.6349,2.6663,2.6785,2.6823,2.7052,2.7118,2.702,2.6736,2.6485,2.6376,2.6551,2.7129,2.754,2.754,2.7758,2.7875,2.7725,2.7859,2.7951,2.7809,2.7809,2.7809,2.7809,2.7762,2.7631,2.7499,2.7357,2.7214,2.7129,2.6918,2.6774,2.6774,2.6486,2.6255,2.6169,2.6014,2.5868,2.5693,2.5693,2.5635,2.5489,2.4833,2.443,0.0,0.0,0.0,0.0,0.0,0.0,0.0,0.0,0.0,0.0,0.0,0.0,0.0,0.0,0.0,0.0,2.7469,2.7085,2.6992,2.6186,2.549,2.534,2.474,2.4265,2.4006,2.3814,2.3428,2.2738,2.2947,2.2836,2.229,2.2043,2.1807,2.1533,2.136,2.1108,2.0698,2.0504,2.0343,2.0228,2.0586,2.0842,2.1006,2.1408,2.1504,2.1443,2.2706,2.3137,2.3107,2.4611,2.5158,2.5011,2.4941,2.5245,2.5658,2.5268,2.5199,2.5348,2.5624,2.5796,2.5968,2.6386,2.6818,2.719,2.7149,2.7015,2.6891,2.685,2.6727,2.6662,2.6943,2.698,2.7092,2.7491,2.759,2.7513,2.7337,2.714,2.6944,2.6944,2.7609,2.8176,2.813,2.825,2.8301,2.8045,2.7998,2.7951,2.7726,2.7857,2.7998,2.7904,2.7904,2.7809,2.7547,2.7452,2.7357,2.7214,2.7119,2.7119,2.7119,2.6784,2.6554,2.6496,2.6342,2.611,2.5693,2.5693,2.5693,2.5693,2.5088,2.4784,0.0,0.0,0.0,0.0,0.0,0.0,0.0,0.0,0.0,0.0,0.0,0.0,0.0,0.0,0.0,0.0,0.0,0.0,2.5261,2.4466,2.4198,2.5192,2.4507,2.3904,2.391,2.3325,2.309,2.3415,2.253,2.2114,2.2365,2.1324,2.0637,2.0468,2.0293,2.034,2.0687,2.0504,2.0182,1.9734,2.0224,2.0423,2.0469,2.0983,2.1466,2.1916,2.2691,2.3024,2.3072,2.413,2.4536,2.4547,2.4814,2.5245,2.5716,2.5681,2.598,2.6363,2.5876,2.6026,2.6467,2.6501,2.6818,2.7149,2.6974,2.6891,2.685,2.6685,2.6603,2.6715,2.7178,2.7258,2.7461,2.8165,2.8353,2.813,2.7458,2.7609,2.7925,2.7925,2.8375,2.8678,2.8398,2.8384,2.8301,2.8045,2.7998,2.7987,2.7987,2.7998,2.7904,2.7631,2.7631,2.7536,2.7309,2.7081,2.6948,2.69,2.6699,2.6544,2.6544,2.6747,2.6747,2.6496,2.6747,2.6458,2.5693,2.5693,2.5693,2.5693,2.5635,2.5635,0.0,0.0,0.0,0.0,0.0,0.0,0.0,0.0,0.0,0.0,0.0,0.0,0.0,0.0,0.0,0.0,0.0,0.0,0.0,2.4955,2.4728,2.4886,2.4293,2.3797,2.355,2.2787,2.2222,2.1993,2.1241,2.0867,2.0978,2.0823,2.0615,2.0332,2.0747,2.0677,2.018,1.9696,1.9677,2.0148,2.0088,2.0365,2.0925,2.1192,2.153,2.1917,2.2534,2.2971,2.3329,2.4175,2.4603,2.4756,2.4843,2.544,2.6152,2.583,2.6026,2.6432,2.5888,2.6048,2.6559,2.6852,2.73,2.777,2.7996,2.7972,2.7856,2.777,2.7557,2.741,2.7888,2.7878,2.7921,2.849,2.8655,2.86,2.8322,2.8375,2.8407,2.8056,2.8429,2.8757,2.8664,2.8664,2.8571,2.829,2.8243,2.8196,2.8045,2.7998,2.7951,2.7857,2.7857,2.7773,2.7489,2.7404,2.7309,2.7167,2.7071,2.7023,2.7023,2.6794,2.6699,2.6747,2.6496,2.6255,2.5965,2.5965,2.5868,2.5693,2.5693,2.5693,0.0,0.0,0.0,0.0,0.0,0.0,0.0,0.0,0.0,0.0,0.0,0.0,0.0,0.0,0.0,0.0,0.0,0.0,0.0,0.0,2.495,2.5099,2.4285,2.3624,2.346,2.2463,2.1794,2.1692,2.1026,0.0,2.064,2.0646,2.0378,1.982,2.0332,2.0305,1.9634,1.9097,1.9234,2.0057,1.9844,2.0132,2.0865,2.1345,2.1751,2.2102,2.2617,2.3063,2.3453,2.4137,2.4597,2.4935,2.5107,2.5601,2.6198,2.6026,2.6175,2.6455,2.6083,2.6404,2.7036,2.7369,2.7816,2.8287,2.8534,2.8507,2.8345,2.8226,2.8008,2.7933,2.831,2.8383,2.8455,2.8819,2.885,2.8803,2.8803,2.8803,2.8705,2.8342,2.8538,2.8757,2.8664,2.8664,2.8571,2.829,2.8243,2.8196,2.8045,2.8092,2.8055,2.7857,2.8045,2.7961,2.7536,2.7547,2.7489,2.7309,2.7309,2.7309,2.7309,2.6976,2.6794,2.69,2.6544,2.6294,2.61,2.61,2.6004,2.582,2.5732,2.5762,0.0,0.0,0.0,0.0,0.0,0.0,0.0,0.0,0.0,0.0,0.0,0.0,0.0,0.0,0.0,0.0,0.0,0.0,0.0,0.0,0.0,2.5679,2.4334,2.3392,2.3658,2.2371,2.1888,2.2747,2.1992,2.1509,2.1496,2.071,1.9839,1.8884,1.9033,1.9123,1.9146,1.8897,1.8975,1.9451,1.9429,1.9701,2.0245,2.1383,2.2069,2.2434,2.2898,2.3195,2.3429,2.3957,2.4487,2.4981,2.5497,2.5704,2.5796,2.6306,2.6501,2.6524,2.6513,2.7168,2.7977,2.8042,2.8322,2.8669,2.8509,2.8434,2.8347,2.791,2.7954,2.8186,2.8377,2.8763,2.9128,2.9128,2.8932,2.8781,2.8781,2.8781,2.8781,2.8792,2.8803,2.871,2.8441,2.8395,2.8301,2.8045,2.8045,2.7987,2.7987,2.8254,2.8228,2.7699,2.8098,2.8156,2.7425,2.7531,2.7578,2.733,2.734,2.7351,2.7351,2.734,2.7187,2.6921,2.6911,2.6651,2.6159,2.61,2.61,2.612,2.5859,2.6006,1.7593,0.0,0.0,0.0,0.0,0.0,0.0,0.0,0.0,0.0,0.0,0.0,0.0,0.0,0.0,0.0,0.0,0.0,0.0,0.0,0.0,2.3661,2.3244,2.2963,2.3057,2.2507,2.233,0.0,2.2219,2.1676,2.1241,2.0126,1.9805,2.0496,1.9973,1.9796,2.0047,1.9878,1.9957,2.0349,1.9958,2.0048,2.0585,2.1227,2.1767,2.2217,2.2687,2.3138,2.3559,2.3877,2.4557,2.5463,2.5222,2.5601,2.6232,2.6003,2.6381,2.6967,2.6639,2.7168,2.8046,2.839,2.8586,2.8838,2.9495,2.9713,2.9668,2.9533,2.9466,2.9365,2.925,2.9293,2.9393,2.9393,2.9034,2.8733,2.8733,2.8733,2.8742,2.8784,2.8803,2.8757,2.871,2.871,2.8664,2.8606,2.843,2.8301,2.8301,2.8496,2.8567,2.8413,2.8887,2.895,2.8348,2.8741,2.8697,2.807,2.8342,2.8421,2.8245,2.7768,2.7554,2.7603,2.6947,2.6754,2.7116,2.6453,2.6172,2.631,2.6523,2.6728,0.0,0.0,0.0,0.0,0.0,0.0,2.0341,2.0861,2.1361,0.0,0.0,0.0,0.0,0.0,0.0,0.0,0.0,0.0,0.0,0.0,0.0,0.0,2.2804,2.2778,2.2951,2.2536,2.2428,2.2764,2.2596,2.2205,2.1517,2.0531,2.0264,2.0896,2.0437,2.034,2.0614,2.0064,2.0036,2.0572,2.007,2.0093,2.0594,2.143,2.1856,2.2021,2.2793,2.3262,2.3482,2.3677,2.4487,2.5565,2.5333,2.5624,2.6163,2.6301,2.6588,2.6932,2.7099,2.7621,2.8367,2.8731,2.888,2.904,2.9851,3.0045,3.0045,3.0045,2.9966,2.9886,2.9806,2.9726,2.9691,2.9691,2.9161,2.8712,2.8712,2.8712,2.8712,2.8648,2.8811,2.8896,2.8803,2.8803,2.8803,2.8803,2.8664,2.8657,2.8853,2.897,2.9074,2.916,2.9558,2.9612,2.9078,2.9411,2.9345,2.8628,2.8848,2.8896,2.8607,2.821,2.8017,2.8056,2.7505,2.7367,2.7641,2.6793,2.6458,2.666,2.6904,2.7109,0.0,0.0,0.0,0.0,0.0,0.0,2.0805,2.1377,2.1791,2.2334,2.3049,0.0,0.0,0.0,0.0,0.0,0.0,0.0,0.0,0.0,0.0,0.0,0.0,2.2724,2.308,2.2577,2.2374,2.2764,2.293,2.2721,2.2113,2.1413,2.0943,2.0717,2.0702,2.0765,2.0958,1.9954,1.9795,2.0432,2.0044,2.0088,2.0554,2.1823,2.2205,2.1893,2.3059,2.3449,2.3257,2.346,2.4299,2.5433,2.557,2.5727,2.5991,2.6858,2.7013,2.6881,2.7748,2.8379,2.8818,2.9056,2.9148,2.925,2.9772,2.9931,2.9931,2.9931,2.9931,2.9977,3.0136,3.0045,2.9931,2.9931,2.9308,2.8723,2.8791,2.8757,2.8668,2.8577,2.8851,2.9046,2.8916,2.8836,2.8825,2.8869,2.888,2.9066,2.95,2.9609,2.9698,2.9926,3.0182,3.0155,2.9717,2.9887,2.9777,2.9168,2.9171,2.9053,2.8773,2.8721,2.859,2.8318,2.8268,2.8188,2.7965,2.7302,2.7001,2.7131,2.7139,2.7363,0.0,0.0,0.0,0.0,0.0,0.0,1.9712,2.0216,2.0885,0.0,0.0,0.0,0.0,0.0,0.0,0.0,0.0,0.0,0.0,0.0,0.0,0.0,0.0,2.238,2.2456,2.2773,2.2911,2.2804,2.2207,2.2035,2.2455,2.1346,2.1123,2.2087,2.1562,2.1272,2.13,2.1082,2.0868,2.0637,2.0753,2.0974,2.1229,2.2155,2.2378,2.2101,2.2986,2.3186,2.2925,2.3242,2.4186,2.5399,2.5158,2.5792,2.6915,2.7121,2.7667,2.8287,2.8494,2.8907,2.9355,2.9414,2.9404,2.9495,2.9988,3.0136,3.0136,3.0136,3.0136,3.0136,3.017,3.017,3.0136,3.0136,2.9382,2.8834,2.9268,2.9017,2.8883,2.9489,2.9349,2.9203,2.9601,2.9195,2.8935,2.9328,2.9347,2.9521,3.0002,3.0395,3.0657,3.0695,3.1055,3.1142,3.065,3.1015,3.0878,2.9947,3.0236,3.0242,2.9725,2.9363,2.9115,2.9115,2.887,2.8624,2.8357,2.801,2.7845,2.7883,2.7986,2.8096,0.0,0.0,0.0,2.2616,0.0,0.0,0.0,2.0578,2.0653,2.0443,0.0,0.0,0.0,0.0,0.0,0.0,0.0,0.0,0.0,0.0,0.0,0.0,0.0,2.0476,2.0853,2.1385,2.2011,2.2724,2.1798,2.1707,2.2836,2.2027,2.1717,2.2209,2.1973,2.1611,2.1164,2.0984,2.0944,2.1008,2.1232,2.1384,2.1537,2.2412,2.2456,2.1913,2.2904,2.3125,2.2849,2.366,2.4551,2.5372,2.5214,2.5867,2.6944,2.769,2.8126,2.8448,2.9194,2.947,2.9538,2.9657,2.9521,2.9395,2.9908,3.0057,3.0,2.9897,2.9852,2.9852,2.9852,2.9954,3.0057,3.0057,2.9564,2.924,2.9745,2.9642,2.9723,3.0662,3.0529,3.0231,3.0274,2.9917,2.9756,2.9805,2.9849,3.0013,3.0493,3.0756,3.0985,3.1236,3.1476,3.152,3.128,3.1487,3.1276,3.0498,3.0648,3.0568,2.9994,2.9777,2.9653,2.9653,2.9507,2.9393,2.9237,2.8957,2.8695,2.84,2.8353,2.8291,0.0,0.0,0.0,0.0,0.0,2.2581,0.0,0.0,0.0,0.0,0.0,0.0,0.0,0.0,0.0,0.0,0.0,0.0,0.0,0.0,0.0,0.0,0.0,1.8622,1.9244,1.9623,2.0566,2.2351,2.1255,2.1326,2.3147,2.2675,2.2277,2.2065,2.2242,2.1889,2.0921,2.079,2.0952,2.138,2.1634,2.1824,2.1867,2.2614,2.2499,2.1808,2.2891,2.3127,2.2904,2.4144,2.4979,2.5483,2.5574,2.6102,2.695,2.8218,2.8517,2.8459,2.9768,2.9918,2.9621,2.9886,2.9647,2.933,2.9761,2.984,2.9783,2.9542,2.9485,2.9531,2.9542,2.9737,2.9886,2.9931,2.9725,2.9653,3.025,3.0285,3.0549,3.1733,3.1759,3.1471,3.0975,3.0752,3.0573,3.0439,3.0351,3.0515,3.0974,3.1029,3.1181,3.1586,3.1618,3.1618,3.1618,3.1618,3.1373,3.0827,3.0786,3.0568,2.9994,2.9994,2.9994,2.9994,2.9994,2.9994,2.9994,2.9711,2.9353,2.8887,2.8621,2.8451,0.0,0.0,0.0,0.0,2.4587,0.0,0.0,0.0,2.0784,1.9079,0.0,0.0,0.0,0.0,0.0,0.0,0.0,0.0,0.0,0.0,0.0,0.0,0.0,1.8591,1.8615,1.8552,1.93,2.1149,1.9951,2.0396,2.3316,2.2605,2.2306,2.2696,2.2614,2.2058,2.1002,2.1597,2.1793,2.1571,2.219,2.2591,2.2743,2.2699,2.2509,2.2334,2.2891,2.3028,2.296,2.3997,2.4941,2.5711,2.6209,2.6967,2.7885,2.8471,2.8964,2.9412,3.0009,3.0057,2.9909,3.0114,3.0011,2.9818,2.9874,2.9737,2.9531,2.9485,2.9485,2.9531,2.9783,2.9886,2.9931,3.0136,2.9804,2.9757,3.0721,3.0549,3.0652,3.2121,3.2397,3.2262,3.1969,3.1169,3.0743,3.1136,3.0981,3.0996,3.1476,3.1542,3.1564,3.1567,3.1618,3.1618,3.1618,3.1618,3.1373,3.0827,3.0786,3.0568,2.9994,2.9994,2.9994,2.9994,2.9994,2.9994,2.9994,2.9711,2.9554,2.9501,2.9185,2.8877,0.0,0.0,0.0,0.0,0.0,0.0,2.109,0.0,2.0725,0.0,0.0,0.0,0.0,0.0,0.0,0.0,0.0,0.0,0.0,0.0,0.0,0.0,0.0,0.0,1.8286,1.7945,1.8438,2.0311,1.9885,2.039,2.2352,2.2335,2.2158,2.1945,2.1796,2.131,2.042,2.1064,2.1587,2.1958,2.2487,2.2818,2.2997,2.2781,2.2421,2.2031,2.2682,2.3064,2.3306,2.4602,2.5355,2.5796,2.66,2.7346,2.8,2.8207,2.8804,2.9573,3.0055,3.0136,3.0091,3.017,3.0136,3.0057,2.9931,2.984,2.9691,2.9531,2.9485,2.9531,2.9634,2.9783,3.0011,3.0364,3.0423,3.0652,3.1651,3.1697,3.1812,3.2764,3.2948,3.2948,3.2799,3.2171,3.1695,3.1705,3.1475,3.1389,3.1545,3.1618,3.1618,3.1618,3.1618,3.1618,3.1618,3.1618,3.1424,3.1086,3.0713,3.0401,2.9994,2.9994,2.9994,2.9994,2.9994,2.9994,2.9994,2.9889,2.9827,2.9827,2.9343,2.9036,2.6256,0.0,0.0,0.0,0.0,0.0,0.0,0.0,0.0,0.0,0.0,0.0,0.0,0.0,0.0,0.0,0.0,0.0,0.0,0.0,0.0,0.0,0.0,0.0,0.0,1.7143,1.751,1.9384,1.9202,1.9874,2.1838,2.1931,2.1798,2.1495,2.1235,2.0718,1.9952,2.0738,2.1431,2.2074,2.2615,2.2975,2.309,2.2665,2.2262,2.1883,2.2503,2.3029,2.3522,2.5009,2.5627,2.5718,2.664,2.7415,2.8042,2.8126,2.8643,2.9366,2.9998,3.0216,3.017,3.0136,3.0136,3.0091,2.9931,2.984,2.9737,2.9531,2.9485,2.9531,2.9588,2.9737,3.0056,3.0591,3.0857,3.1283,3.2271,3.2489,3.265,3.3178,3.3281,3.3281,3.3281,3.2919,3.2505,3.2179,3.1874,3.1669,3.1618,3.1618,3.1618,3.1618,3.1618,3.1618,3.1618,3.1618,3.1476,3.123,3.0765,3.0401,3.0141,3.0099,3.0099,2.9994,2.9994,2.9994,2.9994,2.9994,2.9994,2.9994,2.9564,2.929,0.0,0.0,0.0,2.3069,0.0,0.0,0.0,0.0,2.1758,0.0,0.0,0.0,0.0,0.0,0.0,0.0,0.0,0.0,0.0,0.0,0.0,0.0,0.0,0.0,0.0,1.5924,1.633,1.8204,1.7203,1.8293,2.2353,2.1431,2.1134,2.1941,2.1414,2.0679,1.9811,2.1066,2.1678,2.1744,2.2657,2.3095,2.3078,2.2278,2.2011,2.2183,2.2337,2.2788,2.3486,2.4846,2.5394,2.549,2.6239,2.7145,2.8046,2.8505,2.87,2.8873,2.9871,3.0216,3.017,2.9977,2.9886,2.9886,2.9886,2.9737,2.9531,2.9485,2.9485,2.9542,2.984,2.9886,3.0068,3.08,3.1008,3.1283,3.2271,3.2489,3.265,3.3178,3.3281,3.3281,3.3281,3.3081,3.2779,3.2493,3.2179,3.1863,3.1618,3.1618,3.1618,3.1618,3.1618,3.1618,3.1618,3.1618,3.1476,3.123,3.0931,3.0672,3.0391,3.0391,3.0297,2.9994,2.9994,2.9994,2.9994,2.9994,2.9994,2.9994,2.9994,2.9827,0.0,0.0,2.5936,2.4027,0.0,0.0,0.0,0.0,0.0,0.0,0.0,0.0,0.0,0.0,0.0,0.0,0.0,0.0,0.0,0.0,0.0,0.0,0.0,0.0,0.0,0.0,0.0,1.6382,1.7027,1.82,2.0055,2.0329,2.0566,2.0797,2.0513,2.0193,1.9798,2.0983,2.162,2.1716,2.2552,2.2969,2.2939,2.2451,2.2397,2.2743,2.3071,2.372,2.4669,2.5499,2.5859,2.599,2.7046,2.7472,2.7541,2.8046,2.885,2.9757,3.0089,3.0216,3.017,3.0136,3.0091,3.0091,3.0091,3.0045,2.9943,2.9943,2.9943,3.0068,3.0525,3.0617,3.0869,3.1789,3.1984,3.2179,3.2868,3.3017,3.3063,3.3247,3.3281,3.3281,3.3281,3.3231,3.3081,3.283,3.2505,3.2291,3.219,3.219,3.2128,3.1874,3.1863,3.1772,3.1629,3.1618,3.1476,3.123,3.1127,3.092,3.0672,3.0672,3.0557,3.0297,3.0245,3.0193,2.9994,2.9994,2.9994,2.9994,2.9994,2.9942,2.6783,2.6593,0.0,2.4657,2.4392,0.0,2.2081,0.0,0.0,0.0,0.0,0.0,0.0,0.0,0.0,0.0,0.0,0.0,0.0,0.0,0.0,0.0,0.0,0.0,0.0,0.0,1.5337,1.5652,1.6656,1.7773,0.0,1.9578,2.0054,2.045,2.0105,1.9963,2.0021,2.0879,2.1469,2.1741,2.2474,2.2848,2.2891,2.2739,2.2834,2.3141,2.3595,2.4294,2.5169,2.569,2.592,2.6142,2.7357,2.7603,2.7326,2.8125,2.9108,3.0091,3.017,3.0216,3.0216,3.0216,3.0216,3.0216,3.0216,3.0216,3.0216,3.0216,3.0216,3.0342,3.0882,3.1019,3.126,3.2248,3.2489,3.2627,3.3166,3.3281,3.3281,3.3281,3.3281,3.3281,3.3281,3.3281,3.3181,3.2942,3.2768,3.2606,3.2493,3.2493,3.2443,3.2179,3.2077,3.1863,3.1618,3.1618,3.1527,3.1322,3.1322,3.123,3.0931,3.0931,3.085,3.0632,3.0475,3.0402,3.0491,3.0325,3.0243,3.0243,3.0243,3.0149]}]]